[[{"header":{"parameterUnit":"m.s-1","parameterCategory":1,"la1":30.6,"la2":28.766,"lo1":-90.7593,"lo2":-88.6598,"dy":0.0162,"dx":0.0183,"nx":116,"ny":114,"refTime":"2024-03-24T06:00:00:Z","depth":0,"parameterNumber":2,"parameterNumberName":"U-component_of_WINDS"},"data":[0.0,0.0,0.0,0.0,0.0,0.0,0.0,0.0,0.0,0.0,0.0,0.0,0.0,0.0,0.0,0.0,0.0,0.0,0.0,0.0,0.0,0.0,0.0,0.0,0.0,0.0,0.0,0.0,0.0,0.0,0.0,0.0,0.0,0.0,0.0,0.0,0.0,0.0,0.0,0.0,0.0,0.0,0.0,0.0,0.0,0.0,0.0,0.0,0.0,0.0,0.0,0.0,0.0,0.0,0.0,0.0,0.0,0.0,0.0,0.0,0.0,0.0,0.0,0.0,0.0,0.0,0.0,0.0,0.0,0.0,0.0,0.0,0.0,0.0,0.0,0.0,0.0,0.0,0.0,0.0,0.0,0.0,0.0,0.0,0.0,0.0,0.0,0.0,0.0,0.0,0.0,0.0,0.0,0.0,0.0,0.0,0.0,0.0,0.0,0.0,0.0,0.0,0.0,0.0,0.0,0.0,0.0,0.0,0.0,0.0,0.0,0.0,0.0,0.0,0.0,0.0,0.0,0.0,0.0,0.0,0.0,0.0,0.0,0.0,0.0,0.0,0.0,0.0,0.0,0.0,0.0,0.0,0.0,0.0,0.0,0.0,0.0,0.0,0.0,0.0,0.0,0.0,0.0,0.0,0.0,0.0,0.0,0.0,0.0,0.0,0.0,0.0,0.0,0.0,0.0,0.0,0.0,0.0,0.0,0.0,0.0,0.0,0.0,0.0,0.0,0.0,0.0,0.0,0.0,0.0,0.0,0.0,0.0,0.0,0.0,0.0,0.0,0.0,0.0,0.0,0.0,0.0,0.0,0.0,0.0,0.0,0.0,0.0,0.0,0.0,0.0,0.0,0.0,0.0,0.0,0.0,0.0,0.0,0.0,0.0,0.0,0.0,0.0,0.0,0.0,0.0,0.0,0.0,0.0,0.0,0.0,0.0,0.0,0.0,0.0,0.0,0.0,0.0,0.0,0.0,0.0,0.0,0.0,0.0,0.0,0.0,0.0,0.0,0.0,0.0,0.0,0.0,0.0,0.0,0.0,0.0,0.0,0.0,0.0,0.0,0.0,0.0,0.0,0.0,0.0,0.0,0.0,0.0,0.0,0.0,0.0,0.0,0.0,0.0,0.0,0.0,0.0,0.0,0.0,0.0,0.0,0.0,0.0,0.0,0.0,0.0,0.0,0.0,0.0,0.0,0.0,0.0,0.0,0.0,0.0,0.0,0.0,0.0,0.0,0.0,0.0,0.0,0.0,0.0,0.0,0.0,0.0,0.0,0.0,0.0,0.0,0.0,0.0,0.0,0.0,0.0,0.0,0.0,0.0,0.0,0.0,0.0,0.0,0.0,0.0,0.0,0.0,0.0,0.0,0.0,0.0,0.0,0.0,0.0,0.0,0.0,0.0,0.0,0.0,0.0,0.0,0.0,0.0,0.0,0.0,0.0,0.0,0.0,0.0,0.0,0.0,0.0,0.0,0.0,0.0,0.0,0.0,0.0,0.0,0.0,0.0,0.0,0.0,0.0,0.0,0.0,0.0,0.0,0.0,0.0,0.0,0.0,0.0,0.0,0.0,0.0,0.0,0.0,0.0,0.0,0.0,0.0,0.0,0.0,0.0,0.0,0.0,0.0,0.0,0.0,0.0,0.0,0.0,0.0,0.0,0.0,0.0,0.0,0.0,0.0,0.0,0.0,0.0,0.0,0.0,0.0,0.0,0.0,0.0,0.0,0.0,0.0,0.0,0.0,0.0,0.0,0.0,0.0,0.0,0.0,0.0,0.0,0.0,0.0,0.0,0.0,0.0,0.0,0.0,0.0,0.0,0.0,0.0,0.0,0.0,0.0,0.0,0.0,0.0,0.0,0.0,0.0,0.0,0.0,0.0,0.0,0.0,0.0,0.0,0.0,0.0,0.0,0.0,0.0,0.0,0.0,0.0,0.0,0.0,0.0,0.0,0.0,0.0,0.0,0.0,0.0,0.0,0.0,0.0,0.0,0.0,0.0,0.0,0.0,0.0,0.0,0.0,0.0,0.0,0.0,0.0,0.0,0.0,0.0,0.0,0.0,0.0,0.0,0.0,0.0,0.0,0.0,0.0,0.0,0.0,0.0,0.0,0.0,0.0,0.0,0.0,0.0,0.0,0.0,0.0,0.0,0.0,0.0,0.0,0.0,0.0,0.0,0.0,0.0,0.0,0.0,0.0,0.0,0.0,0.0,0.0,0.0,0.0,0.0,0.0,0.0,0.0,0.0,0.0,0.0,0.0,0.0,0.0,0.0,0.0,0.0,0.0,0.0,0.0,0.0,0.0,0.0,0.0,0.0,0.0,0.0,0.0,0.0,0.0,0.0,0.0,0.0,0.0,0.0,0.0,0.0,0.0,0.0,0.0,0.0,0.0,0.0,0.0,0.0,0.0,0.0,0.0,0.0,0.0,0.0,0.0,0.0,0.0,0.0,0.0,0.0,0.0,0.0,0.0,0.0,0.0,0.0,0.0,0.0,0.0,0.0,0.0,0.0,0.0,0.0,0.0,0.0,0.0,0.0,0.0,0.0,0.0,0.0,0.0,0.0,0.0,0.0,0.0,0.0,0.0,0.0,0.0,0.0,0.0,0.0,0.0,0.0,0.0,0.0,0.0,0.0,0.0,0.0,0.0,0.0,0.0,0.0,0.0,0.0,0.0,0.0,0.0,0.0,0.0,0.0,0.0,0.0,0.0,0.0,0.0,0.0,0.0,0.0,0.0,0.0,0.0,0.0,0.0,0.0,0.0,0.0,0.0,0.0,0.0,0.0,0.0,0.0,0.0,0.0,0.0,0.0,0.0,0.0,0.0,0.0,0.0,0.0,0.0,0.0,0.0,0.0,0.0,0.0,0.0,0.0,0.0,0.0,0.0,0.0,0.0,0.0,0.0,0.0,0.0,0.0,0.0,0.0,0.0,0.0,0.0,0.0,0.0,0.0,0.0,0.0,0.0,0.0,0.0,0.0,0.0,0.0,0.0,0.0,0.0,0.0,0.0,0.0,0.0,0.0,0.0,0.0,0.0,0.0,0.0,0.0,0.0,0.0,0.0,0.0,0.0,0.0,0.0,0.0,0.0,0.0,0.0,0.0,0.0,0.0,0.0,0.0,0.0,0.0,0.0,0.0,0.0,0.0,0.0,0.0,0.0,0.0,0.0,0.0,0.0,0.0,0.0,0.0,0.0,0.0,0.0,0.0,0.0,0.0,0.0,0.0,0.0,0.0,0.0,0.0,0.0,0.0,0.0,0.0,0.0,0.0,0.0,0.0,0.0,0.0,0.0,0.0,0.0,0.0,0.0,0.0,0.0,0.0,0.0,0.0,0.0,0.0,0.0,0.0,0.0,0.0,0.0,0.0,0.0,0.0,0.0,0.0,0.0,0.0,0.0,0.0,0.0,0.0,0.0,0.0,0.0,0.0,0.0,0.0,0.0,0.0,0.0,0.0,0.0,0.0,0.0,0.0,0.0,0.0,0.0,0.0,0.0,0.0,0.0,0.0,0.0,0.0,0.0,0.0,0.0,0.0,0.0,0.0,0.0,0.0,0.0,0.0,0.0,0.0,0.0,0.0,0.0,0.0,0.0,0.0,0.0,0.0,0.0,0.0,0.0,0.0,0.0,0.0,0.0,0.0,0.0,0.0,0.0,0.0,0.0,0.0,0.0,0.0,0.0,0.0,0.0,0.0,0.0,0.0,0.0,0.0,0.0,0.0,0.0,0.0,0.0,0.0,0.0,0.0,0.0,0.0,0.0,0.0,0.0,0.0,0.0,0.0,0.0,0.0,0.0,0.0,0.0,0.0,0.0,0.0,0.0,0.0,0.0,0.0,0.0,0.0,0.0,0.0,0.0,0.0,0.0,0.0,0.0,0.0,0.0,0.0,0.0,0.0,0.0,0.0,0.0,0.0,0.0,0.0,0.0,0.0,0.0,0.0,0.0,0.0,0.0,0.0,0.0,0.0,0.0,0.0,0.0,0.0,0.0,0.0,0.0,0.0,0.0,0.0,0.0,0.0,0.0,0.0,0.0,0.0,0.0,0.0,0.0,0.0,0.0,0.0,0.0,0.0,0.0,0.0,0.0,0.0,0.0,0.0,0.0,0.0,0.0,0.0,0.0,0.0,0.0,0.0,0.0,0.0,0.0,0.0,0.0,0.0,0.0,0.0,0.0,0.0,0.0,0.0,0.0,0.0,0.0,0.0,0.0,0.0,0.0,0.0,0.0,0.0,0.0,0.0,0.0,0.0,0.0,0.0,0.0,0.0,0.0,0.0,0.0,0.0,0.0,0.0,0.0,0.0,0.0,0.0,0.0,0.0,0.0,0.0,0.0,0.0,0.0,0.0,0.0,0.0,0.0,0.0,0.0,0.0,0.0,0.0,0.0,0.0,0.0,0.0,0.0,0.0,0.0,0.0,0.0,0.0,0.0,0.0,0.0,0.0,0.0,0.0,0.0,0.0,0.0,0.0,0.0,0.0,0.0,0.0,0.0,0.0,0.0,0.0,0.0,0.0,0.0,0.0,0.0,0.0,0.0,0.0,0.0,0.0,0.0,0.0,0.0,0.0,0.0,0.0,0.0,0.0,0.0,0.0,0.0,0.0,0.0,0.0,0.0,0.0,0.0,0.0,0.0,0.0,0.0,0.0,0.0,0.0,0.0,0.0,0.0,0.0,0.0,0.0,0.0,0.0,0.0,0.0,0.0,0.0,0.0,0.0,0.0,0.0,0.0,0.0,0.0,0.0,0.0,0.0,0.0,0.0,0.0,0.0,0.0,0.0,0.0,0.0,0.0,0.0,0.0,0.0,0.0,0.0,0.0,0.0,0.0,0.0,0.0,0.0,0.0,0.0,0.0,0.0,0.0,0.0,0.0,0.0,0.0,0.0,0.0,0.0,0.0,0.0,0.0,0.0,0.0,0.0,0.0,0.0,0.0,0.0,0.0,0.0,0.0,0.0,0.0,0.0,0.0,0.0,0.0,0.0,0.0,0.0,0.0,0.0,0.0,0.0,0.0,0.0,0.0,0.0,0.0,0.0,0.0,0.0,0.0,0.0,0.0,0.0,0.0,0.0,0.0,0.0,0.0,0.0,0.0,0.0,0.0,0.0,0.0,0.0,0.0,0.0,0.0,0.0,0.0,0.0,0.0,0.0,0.0,0.0,0.0,0.0,0.0,0.0,0.0,0.0,0.0,0.0,0.0,0.0,0.0,0.0,0.0,0.0,0.0,0.0,0.0,0.0,0.0,0.0,0.0,0.0,0.0,0.0,0.0,0.0,0.0,0.0,0.0,0.0,0.0,0.0,0.0,0.0,0.0,0.0,0.0,0.0,0.0,0.0,0.0,0.0,0.0,0.0,0.0,0.0,0.0,0.0,0.0,0.0,0.0,0.0,0.0,0.0,0.0,0.0,0.0,0.0,0.0,0.0,0.0,0.0,0.0,0.0,0.0,0.0,0.0,0.0,0.0,0.0,0.0,0.0,0.0,0.0,0.0,0.0,0.0,0.0,0.0,0.0,0.0,0.0,0.0,0.0,0.0,0.0,0.0,0.0,0.0,0.0,0.0,0.0,0.0,0.0,0.0,0.0,0.0,0.0,0.0,0.0,0.0,0.0,0.0,0.0,0.0,0.0,0.0,0.0,0.0,0.0,0.0,0.0,0.0,0.0,0.0,0.0,0.0,0.0,0.0,0.0,0.0,0.0,0.0,0.0,0.0,0.0,0.0,0.0,0.0,0.0,0.0,0.0,0.0,0.0,0.0,0.0,0.0,0.0,0.0,0.0,0.0,0.0,0.0,0.0,0.0,0.0,0.0,0.0,0.0,0.0,0.0,0.0,0.0,0.0,0.0,0.0,0.0,0.0,0.0,0.0,0.0,0.0,0.0,0.0,0.0,0.0,0.0,0.0,0.0,0.0,0.0,0.0,0.0,0.0,0.0,0.0,0.0,0.0,0.0,0.0,0.0,0.0,0.0,0.0,0.0,0.0,0.0,0.0,0.0,0.0,0.0,0.0,0.0,0.0,0.0,0.0,0.0,0.0,0.0,0.0,0.0,0.0,0.0,0.0,0.0,0.0,0.0,0.0,0.0,0.0,0.0,0.0,-5.798,-5.9627,0.0,0.0,0.0,0.0,0.0,0.0,0.0,0.0,0.0,0.0,0.0,0.0,0.0,0.0,0.0,0.0,0.0,0.0,0.0,0.0,0.0,0.0,0.0,0.3451,0.3767,0.3994,0.4961,0.58,0.6475,0.707,0.7536,0.7889,0.813,0.8318,0.8453,0.924,0.9887,1.0252,1.1574,1.3022,1.4597,1.4155,1.3719,1.3286,0.0,0.0,0.0,0.0,0.0,0.0,0.0,0.0,0.0,0.0,0.0,0.0,0.0,0.0,0.0,0.0,0.0,0.0,0.0,0.0,0.0,0.0,0.0,0.0,0.0,0.0,0.0,0.0,0.0,0.0,0.0,0.0,0.0,0.0,0.0,0.0,0.0,0.0,0.0,0.0,0.0,0.0,0.0,0.0,0.0,0.0,0.0,0.0,0.0,0.0,0.0,0.0,0.0,0.0,0.0,0.0,0.0,0.0,0.0,0.0,0.0,0.0,0.0,0.0,0.0,0.0,0.0,0.0,0.0,0.0,-5.8053,-5.9182,0.0,0.0,0.0,0.0,0.0,0.0,0.0,0.0,0.0,0.0,0.0,0.0,0.0,0.0,0.0,0.0,0.0,0.0,0.0,0.0,0.0,0.334,0.3327,0.3975,0.4502,0.4716,0.6027,0.6897,0.7045,0.767,0.8093,0.8142,0.8528,0.8745,0.8845,0.9936,1.0785,1.139,1.2469,1.4332,1.6777,1.6718,1.6082,1.5053,1.4755,0.0,0.0,0.0,0.0,0.0,0.0,0.0,0.0,0.0,0.0,0.0,0.0,0.0,0.0,0.0,0.0,0.0,0.0,0.0,0.0,0.0,0.0,0.0,0.0,0.0,0.0,0.0,0.0,0.0,0.0,0.0,0.0,0.0,0.0,0.0,0.0,0.0,0.0,0.0,0.0,0.0,0.0,0.0,0.0,0.0,0.0,0.0,0.0,0.0,0.0,0.0,0.0,0.0,0.0,0.0,0.0,0.0,0.0,0.0,0.0,0.0,0.0,0.0,-5.4545,-5.5592,-5.6269,-5.7223,-5.8369,-5.9656,-5.9024,-5.9474,-6.0646,-6.0962,0.0,0.0,0.0,0.0,0.0,0.0,0.0,0.0,0.0,0.0,0.0,0.0,0.0,0.0,0.0,0.0,0.0,0.0,0.0,0.3767,0.427,0.462,0.5228,0.6298,0.6985,0.7668,0.8331,0.8546,0.8783,0.908,0.9189,0.9445,0.9881,1.1238,1.2,1.2164,1.4728,1.7098,1.9239,1.9221,1.926,1.9335,1.711,1.6088,1.6072,0.0,0.0,0.0,0.0,0.0,0.0,0.0,0.0,0.0,0.0,0.0,0.0,0.0,0.0,0.0,0.0,0.0,0.0,0.0,0.0,0.0,0.0,0.0,0.0,0.0,0.0,0.0,0.0,0.0,0.0,0.0,0.0,0.0,0.0,0.0,0.0,0.0,0.0,0.0,0.0,0.0,-2.2187,-2.4666,0.0,0.0,0.0,0.0,0.0,0.0,0.0,0.0,0.0,0.0,0.0,0.0,0.0,-4.5521,-4.7024,-5.0383,-5.2442,-5.329,-5.6036,-5.7715,-5.8423,-6.0301,-6.1255,-6.1545,-6.2155,0.0,-6.026,-6.0787,0.0,0.0,0.0,0.0,0.0,0.0,0.0,0.0,0.0,0.0,0.0,0.0,0.0,0.0,0.0,0.0,0.0,0.0,0.0,0.0,0.0,0.6127,0.7292,0.7865,0.9365,1.0179,1.0094,1.0175,1.0096,0.9833,0.986,0.9978,1.0238,1.1811,1.3362,1.4961,1.7674,1.9505,2.0537,2.1279,2.1671,2.1826,2.0679,1.9377,1.8073,1.7138,0.0,0.0,0.0,0.0,0.0,0.0,0.0,0.0,0.0,0.0,0.0,0.0,0.0,0.0,0.0,0.0,0.0,0.0,0.0,0.0,0.0,0.0,0.0,0.0,0.0,0.0,0.0,0.0,0.0,0.0,0.0,0.0,0.0,0.0,0.0,0.0,0.0,0.0,0.0,-2.1384,-2.3446,-2.5001,-2.6004,-2.6939,0.0,0.0,0.0,0.0,0.0,0.0,0.0,0.0,0.0,-4.2651,-4.4884,-4.7315,-4.9807,-5.2629,-5.495,-5.6968,-5.8451,-5.9502,-6.0206,-6.1598,-6.261,-6.3347,-6.3872,-6.3718,-6.2761,-6.173,-6.1644,-6.2364,0.0,0.0,0.0,0.0,-7.5366,-7.7766,0.0,0.0,0.0,0.0,0.0,0.0,0.0,0.0,0.0,0.0,0.0,0.0,0.5964,0.7976,0.9522,0.999,1.1616,1.2273,1.1569,1.1404,1.0995,1.0314,1.0456,1.0637,1.0897,1.2942,1.5292,1.7793,2.008,2.146,2.1921,2.3105,2.3691,2.3789,2.3574,2.2233,2.0157,1.8991,1.841,1.8224,0.0,0.0,0.0,0.0,0.0,0.0,0.0,0.0,0.0,0.0,0.0,0.0,0.0,0.0,0.0,0.0,0.0,0.0,0.0,0.0,0.0,0.0,0.0,0.0,0.0,0.0,0.0,0.0,0.0,0.0,0.0,0.0,0.0,0.0,0.0,0.0,0.0,-2.2636,-2.4423,-2.5228,-2.6732,-2.7904,0.0,0.0,0.0,0.0,0.0,0.0,-3.938,-4.0588,-4.2266,-4.4388,-4.6645,-4.9476,-5.2828,-5.4844,-5.7408,-6.0475,-6.0941,-6.1706,-6.2533,-6.3312,-6.4229,-6.5207,-6.5617,-6.5607,-6.5115,-6.3251,-6.2934,-6.358,-6.4531,-6.6765,-6.9765,-7.2163,-7.4686,-7.7157,0.0,0.0,0.0,0.0,0.0,0.0,0.0,0.0,0.0,0.0,0.0,0.7151,0.8734,1.0136,1.1555,1.3068,1.3042,1.2817,1.2446,1.1575,1.0981,1.0627,1.0808,1.1421,1.2453,1.5324,1.7828,2.0068,2.124,2.2541,2.3929,2.4652,2.5195,2.5566,2.4727,2.3613,2.2324,2.1403,2.0324,1.9261,1.872,0.0,0.0,0.0,0.0,0.0,0.0,0.0,0.0,0.0,0.0,0.0,0.0,0.0,0.0,0.0,0.0,0.0,0.0,0.0,0.0,0.0,0.0,0.0,0.0,0.0,0.0,0.0,0.0,0.0,0.0,0.0,0.0,0.0,0.0,0.0,0.0,0.0,0.0,-2.5562,-2.7402,0.0,0.0,0.0,0.0,-3.4588,-3.6904,-3.9077,-4.0715,-4.2658,-4.4568,-4.635,-4.878,-5.1655,-5.4743,-5.6523,-5.8997,-6.2272,-6.3163,-6.4395,-6.575,-6.6667,-6.7194,-6.7286,-6.7928,-6.75,-6.6246,-6.5337,-6.4777,-6.4551,-6.622,-6.8169,-7.0323,-7.3303,-7.5439,-7.715,0.0,0.0,0.0,0.0,0.0,0.0,0.4003,0.4374,0.5008,0.6176,0.7442,0.8736,1.0236,1.2303,1.3915,1.4778,1.5515,1.5634,1.5018,1.4213,1.3445,1.2568,1.2608,1.353,1.5412,1.7242,1.9137,2.1025,2.2725,2.3982,2.4967,2.5606,2.6152,2.6543,2.623,2.5684,2.4883,2.2891,2.1632,2.0962,2.0461,1.996,0.0,0.0,0.0,0.0,0.0,0.0,0.0,0.0,0.0,0.0,0.0,0.0,0.0,0.0,0.0,0.0,0.0,0.0,0.0,0.0,0.0,0.0,0.0,0.0,0.0,0.0,0.0,0.0,0.0,0.0,0.0,0.0,0.0,0.0,0.0,0.0,0.0,-2.7476,-3.0041,0.0,-3.2664,-3.4433,-3.621,-3.7817,-3.9221,-4.0952,-4.3347,-4.4908,-4.6664,-4.8616,-5.0986,-5.3524,-5.6066,-5.8908,-6.1234,-6.3014,-6.5079,-6.6116,-6.6239,-6.7439,-6.8019,-6.805,-6.8531,-6.8495,-6.8034,-6.7658,-6.6869,-6.5773,-6.707,-6.9084,-7.166,-7.4221,-7.6408,-7.8248,0.0,0.0,0.0,0.0,0.0,0.0,0.4608,0.5125,0.5882,0.7195,0.8805,1.0475,1.2134,1.4493,1.6192,1.6879,1.7406,1.7295,1.6219,1.5169,1.4181,1.33,1.4081,1.5438,1.7475,1.9101,2.0671,2.2264,2.3929,2.5102,2.5855,2.6501,2.7051,2.7441,2.7305,2.709,2.668,2.4668,2.3398,2.2656,2.1879,2.1448,2.1154,0.0,0.0,0.0,0.0,0.0,0.0,0.0,0.0,0.0,0.0,0.0,0.0,0.0,0.0,0.0,0.0,0.0,0.0,0.0,0.0,0.0,0.0,0.0,0.0,0.0,0.0,0.0,0.0,0.0,0.0,0.0,0.0,0.0,0.0,-2.5824,-2.8598,-3.0321,-3.2845,-3.5017,-3.632,-3.7653,-3.9154,-4.0978,-4.1998,-4.3644,-4.6052,-4.7262,-4.8833,-5.0707,-5.2485,-5.4618,-5.6976,-5.9724,-6.208,-6.398,-6.6239,-6.7219,-6.7249,-6.7989,-6.8386,-6.8386,-6.8623,-6.8772,-6.8772,-6.8889,-6.8272,-6.7386,-6.8655,-7.0457,-7.2597,-7.512,-7.7041,-7.8526,0.0,0.0,0.0,0.0,0.0,0.0,0.5281,0.6013,0.6944,0.8044,0.9999,1.2117,1.4453,1.6741,1.8449,1.9237,1.8559,1.746,1.6017,1.4164,1.3027,1.2629,1.5033,1.7078,1.8638,2.0857,2.2549,2.3691,2.4814,2.5875,2.6602,2.7357,2.7891,2.8281,2.7871,2.7695,2.7637,2.6777,2.5684,2.4375,2.2913,2.2522,2.2656,0.0,0.0,0.0,0.0,0.0,0.0,0.0,0.0,0.0,0.0,0.0,0.0,0.0,0.0,0.0,0.0,0.0,0.0,0.0,0.0,0.0,0.0,0.0,0.0,0.0,0.0,0.0,0.0,0.0,0.0,0.0,0.0,0.0,-2.5003,-2.7541,-3.06,-3.3812,-3.5504,-3.7309,-3.9782,-4.0938,-4.2183,-4.3815,-4.5178,-4.69,-4.8948,-4.9837,-5.1038,-5.2537,-5.3191,-5.4781,-5.7532,-5.9245,-6.1884,-6.5285,-6.6417,-6.7627,-6.8858,-6.8505,-6.8386,-6.8386,-6.8386,-6.8386,-6.8386,-6.8772,-6.8889,-6.9147,-7.1123,-7.2382,-7.3223,-7.5862,-7.7202,-7.8089,0.0,0.0,0.0,0.0,0.0,0.5664,0.6154,0.666,0.7707,0.978,1.1422,1.3241,1.5578,1.7442,1.876,1.9256,1.8302,1.7496,1.7116,1.5459,1.4853,1.5447,1.6493,1.8123,2.0466,2.2168,2.3544,2.4411,2.5567,2.6384,2.691,2.7461,2.7891,2.8281,2.8396,2.8443,2.8404,2.8058,2.7702,2.7182,2.4716,2.3506,2.2997,0.0,0.0,0.0,0.0,0.0,0.0,0.0,0.0,0.0,0.0,0.0,0.0,0.0,0.0,0.0,0.0,0.0,0.0,0.0,0.0,0.0,0.0,0.0,0.0,0.0,0.0,0.0,0.0,0.0,0.0,0.0,-2.4272,-2.5995,-2.6506,-2.9829,-3.2913,-3.4433,-3.8185,-4.0785,-4.155,-4.3915,-4.5899,-4.6728,-4.7957,-4.9217,-5.0742,-5.182,-5.2956,-5.4367,-5.536,-5.6604,-5.7996,-6.1193,-6.3118,-6.3864,-6.6942,-6.8274,-6.8212,-6.8557,-6.8772,-6.8772,-6.8772,-6.8772,-6.8772,-6.8889,-6.8889,-6.9178,-7.1735,-7.347,-7.4537,-7.6789,-7.8306,-7.9429,0.0,0.0,0.0,0.0,0.0,0.6426,0.6902,0.7286,0.8332,1.0516,1.2155,1.4035,1.6296,1.799,1.8981,1.9054,1.81,1.7275,1.678,1.5946,1.5919,1.6812,1.8193,1.9851,2.1835,2.3403,2.4481,2.514,2.5956,2.6602,2.7031,2.7461,2.7988,2.8555,2.8593,2.872,2.8985,2.874,2.8665,2.8629,2.6844,2.5635,2.469,2.3791,2.3555,2.3526,2.2522,2.2213,2.1934,2.0076,0.0,0.0,0.0,0.0,0.0,0.0,0.0,0.0,0.0,0.0,0.0,0.0,0.0,0.0,0.0,0.0,0.0,0.0,0.0,0.0,0.0,0.0,0.0,0.0,-2.6352,-2.8555,-2.9876,-3.2322,-3.481,-3.7127,-4.0516,-4.3055,-4.4196,-4.6651,-4.8385,-4.8912,-5.0122,-5.1398,-5.251,-5.3053,-5.4071,-5.5412,-5.5992,-5.6867,-5.8096,-6.0844,-6.2765,-6.4017,-6.64,-6.7897,-6.8335,-6.8705,-6.8889,-6.8889,-6.8889,-6.8889,-6.8889,-6.9006,-6.9123,-6.9325,0.0,0.0,0.0,0.0,-7.9949,-8.1255,0.0,0.0,0.0,0.0,0.0,0.7063,0.7492,0.7881,0.8848,1.0632,1.2484,1.4388,1.6515,1.8155,1.8962,1.8614,1.7789,1.6835,1.5818,1.5947,1.6522,1.7406,1.9809,2.1704,2.3008,2.4438,2.541,2.5801,2.6289,2.6719,2.709,2.7539,2.8164,2.8906,2.8535,2.8829,2.9441,2.9045,2.908,2.9252,2.885,2.8106,2.6981,2.555,2.5456,2.5991,2.5031,2.4354,2.3703,2.1802,0.0,0.0,0.0,0.0,0.0,0.0,0.0,0.0,0.0,0.0,0.0,0.0,0.0,0.0,0.0,0.0,0.0,0.0,0.0,0.0,0.0,0.0,0.0,0.0,-2.8893,-3.1604,-3.3974,-3.4859,-3.6603,-4.0366,-4.2186,-4.4263,-4.6955,-4.878,-5.0017,-5.0569,-5.1841,-5.3055,-5.3971,-5.3989,0.0,0.0,0.0,-5.6556,-5.805,-5.9709,-6.1909,-6.4822,-6.564,-6.7063,-6.8889,-6.8889,-6.8889,-6.8889,-6.8889,-6.8889,-6.9006,-6.924,-6.9503,-6.9703,-7.1424,-7.2867,-7.4605,-7.9282,-8.1842,-8.2998,0.0,0.0,0.0,0.0,0.0,0.7235,0.7771,0.8317,0.9337,1.1209,1.2647,1.4136,1.5733,1.7073,1.7807,1.7734,1.6688,1.602,1.5974,1.6449,1.7491,1.9163,2.1024,2.2524,2.3633,2.5293,2.6172,2.6269,2.7031,2.7461,2.7539,2.7969,2.8437,2.8926,2.9065,2.9501,2.9897,3.0348,3.0526,3.0506,3.0425,2.9323,2.7643,2.7019,2.6657,2.6456,2.6275,2.6227,2.5819,2.3305,2.2356,2.1594,1.8369,1.6714,0.0,0.0,0.0,0.0,0.0,0.0,0.0,0.0,0.0,0.0,0.0,0.0,0.0,0.0,0.0,0.0,0.0,0.0,0.0,-2.737,-3.0318,-3.2901,-3.5537,-3.7171,-3.8387,-3.9176,-4.226,-4.4792,-4.6171,-4.9157,-5.1172,-5.1724,-5.281,-5.3487,-5.3997,-5.4738,-5.5501,-5.6615,-5.7367,-5.817,-5.9302,-6.0972,-6.2783,-6.4822,-6.6115,0.0,-6.8889,-6.8889,-6.8889,-6.8889,-6.8889,-6.9006,-6.924,-6.9356,-6.9734,-7.0482,-7.409,-7.6541,-7.8372,-8.1683,-8.2929,-8.3188,0.0,0.0,0.0,0.0,0.0,0.7408,0.8209,0.858,0.9326,1.0699,1.1788,1.2894,1.4167,1.5007,1.539,1.5199,1.4978,1.5132,1.5808,1.7177,1.8716,2.0372,2.2142,2.3349,2.4082,2.5605,2.6289,2.6055,2.7148,2.7559,2.7344,2.7988,2.8516,2.8926,2.9035,2.951,3.0258,3.0349,3.0681,3.1162,3.1257,3.0587,2.9647,2.9096,2.8689,2.8551,2.8104,2.7511,2.6569,2.4186,2.3066,2.2138,1.9361,1.7661,1.6087,0.0,0.0,0.0,0.0,0.0,0.0,0.0,0.0,0.0,0.0,0.0,0.0,0.0,0.0,-1.7897,-1.991,0.0,-2.5918,-2.9366,-3.2056,-3.4451,-3.6371,-3.7863,-3.9187,-4.0074,-4.3063,-4.5341,-4.6688,-4.9278,-5.133,-5.2321,-5.3029,-5.3938,-5.5478,-5.5657,-5.6321,-5.7634,-5.7926,-5.8605,-5.9621,-6.0539,-6.2361,-6.4822,-6.5455,-6.6879,-6.8889,-6.8889,-6.8889,-6.8889,-6.9123,-6.9271,-6.9387,-6.9734,-7.0683,-7.2365,-7.5554,-7.7536,-7.9028,-8.1817,-8.353,-8.468,0.0,0.0,0.0,0.0,0.0,0.7622,0.8646,0.8804,0.9111,1.0092,1.0823,1.1657,1.2538,1.3018,1.3178,1.2821,1.3588,1.4692,1.5973,1.8043,1.9907,2.1543,2.3086,2.4102,2.4531,2.5762,2.6211,2.5859,2.6992,2.7402,2.7148,2.793,2.8555,2.9043,2.9121,2.9636,3.0518,3.0485,3.0862,3.1593,3.1799,3.1848,3.1828,3.1236,3.0882,3.0661,2.9899,2.8474,2.6732,2.4721,2.3274,2.206,1.9925,1.8485,1.6948,1.3713,1.1476,0.0,0.0,0.0,0.0,0.0,0.0,0.0,0.0,-1.1183,-1.3228,-1.4424,-1.6679,-1.9179,-2.194,-2.4919,-2.7919,-3.1309,-3.392,-3.5936,-3.6942,-3.813,-3.9647,-4.1477,-4.3737,-4.575,-4.7265,-4.9347,-5.1311,-5.2851,-5.3433,-5.455,-5.6659,-5.6503,-5.6902,-5.8455,-5.8249,-5.8689,-5.9761,-6.0021,-6.1691,-6.4822,-6.4822,-6.6327,-6.8889,-6.9006,-6.9006,-6.8889,-6.9356,-6.9472,-6.9472,-7.0192,-7.1597,-7.3691,-7.6026,-7.7638,-7.8946,-8.1664,-8.4103,-8.6174,0.0,0.0,0.0,0.0,0.0,0.0,0.8699,0.8804,0.9111,1.0092,1.0572,1.1096,1.1696,1.2265,1.2596,1.253,1.3978,1.5533,1.7095,1.8858,2.0762,2.2832,2.3848,2.4551,2.498,2.5918,2.6367,2.6309,2.6836,2.7266,2.7598,2.8066,2.873,2.9512,2.9883,3.0312,3.0878,3.1485,3.1996,3.2387,3.2832,3.3112,3.335,3.2953,3.2331,3.1431,3.0569,2.8945,2.7004,2.5237,2.3459,2.1695,1.9576,1.8357,1.6967,1.3158,1.1168,0.9705,0.7378,0.0675,-0.6154,-0.8035,-0.8527,-0.8848,0.0,-1.2656,-1.5065,-1.5688,-1.7847,-2.062,-2.3972,-2.6293,-2.8954,-3.2933,-3.5269,-3.6923,-3.7984,-3.8895,-4.0004,-4.1499,-4.3444,-4.5388,-4.7258,-4.9952,-5.2292,-5.3682,-5.4653,-5.5313,-5.5572,-5.6842,-5.7695,-5.8296,-5.8971,-5.9654,-6.0177,-6.0564,-6.2109,-6.4822,-6.5076,-6.6574,-6.8889,-6.924,-6.9123,-6.8889,-6.9472,-6.9818,-6.9818,-7.0419,-7.1537,-7.3017,-7.5587,-7.7908,-8.0306,-8.3182,-8.5117,-8.6392,0.0,0.0,0.0,0.0,0.0,0.0,0.0,0.8804,0.895,0.9326,0.9519,0.9767,1.0078,1.0359,1.069,1.0984,1.2932,1.4897,1.6598,1.8395,2.0491,2.296,2.34,2.4049,2.5059,2.5178,2.5618,2.6387,2.6289,2.671,2.7676,2.8086,2.8476,2.8848,2.9531,3.0054,3.0423,3.1348,3.1979,3.2512,3.2974,3.3094,3.2995,3.2874,3.2057,3.0734,2.9653,2.7823,0.0,2.361,2.2092,2.0693,1.8912,1.7616,1.592,1.27,1.0594,0.8418,0.4013,-0.091,-0.534,-0.7885,-0.8924,-0.9871,-1.1806,-1.4396,-1.6648,-1.7948,-1.9878,-2.2574,-2.6165,-2.8268,-3.0673,-3.4346,-3.6221,-3.7554,-3.8212,-3.8759,-3.9155,-3.9559,-4.226,-4.492,-4.7123,-4.9998,-5.2394,-5.392,-5.4944,-5.5968,-5.7094,-5.7129,-5.7616,-5.8692,-5.9057,-5.944,-6.0177,-6.1002,-6.2164,-6.3663,-6.5202,-6.6604,-6.7759,-6.8889,-6.9356,-6.9472,-7.0139,-7.0673,-7.1048,-7.1686,-7.2906,-7.4665,-7.6937,-7.924,-8.1596,-8.3599,-8.5231,-8.6501,0.0,0.0,0.0,0.0,0.0,0.0,0.0,0.0,0.891,0.891,0.8977,0.9085,0.9231,0.9421,0.967,1.0048,1.2001,1.4087,1.607,1.765,1.9732,2.2438,2.2483,2.2923,2.4089,2.4054,2.4461,2.5277,2.5488,2.6163,2.7342,2.7863,2.8349,2.8623,2.9355,2.9858,3.0181,3.127,3.1979,3.2275,3.293,3.2686,3.1914,3.1699,3.0451,2.871,2.8295,2.6427,2.4035,2.181,2.0332,1.9206,1.7701,1.6349,1.4797,1.2144,0.9784,0.6835,0.1364,-0.2309,-0.5396,-0.838,-0.9567,-1.0755,-1.3506,-1.5727,-1.7824,-1.9613,-2.1546,-2.3916,-2.7779,-2.9722,-3.1856,-3.5241,-3.7014,-3.8016,-3.8221,-3.8532,-3.8502,-3.8046,-4.089,-4.3669,-4.5895,-4.952,-5.2429,-5.3984,-5.4977,-5.621,-5.7739,-5.7302,-5.7466,-5.8726,-5.8742,-5.9207,-6.0347,-6.1136,-6.2131,-6.3431,-6.5484,-6.6757,-6.7366,-6.8858,-6.9681,-7.0015,-7.0776,-7.1321,-7.2002,-7.2705,-7.4107,-7.5949,-7.8186,-8.039,-8.2356,-8.3957,-8.5323,-8.6465,0.0,0.0,0.0,0.0,0.0,0.0,0.0,0.0,0.0,0.9211,0.9477,0.9714,0.9878,1.015,1.0394,1.058,1.1589,1.3318,1.5896,1.6694,1.8294,2.1034,2.1066,2.1181,2.164,2.2796,2.3203,2.2601,2.4537,2.5759,2.6318,2.7342,2.8357,2.9401,2.9917,3.0176,3.0273,3.1582,3.2135,3.2058,3.2564,3.1757,3.0156,2.9287,2.7409,2.5366,2.6445,2.5089,2.2484,2.0263,1.8658,1.7373,1.5707,1.4718,1.3623,1.1081,0.8495,0.5507,0.0826,-0.3822,-0.8016,-1.0359,-1.0739,-1.1232,-1.4551,-1.6609,-1.8443,-2.0468,-2.21,-2.4234,-2.8077,-3.0048,-3.2151,-3.5281,-3.7412,-3.8688,-3.8274,-3.8212,-3.8026,-3.757,-3.9478,-4.1291,-4.2809,-4.8125,-5.2232,-5.4026,-5.5282,-5.5935,-5.5987,-5.6757,-5.7509,-5.7943,-5.8214,-5.9263,-6.0933,-6.0933,-6.224,-6.488,-6.6204,-6.7336,-6.8386,-6.9325,-7.0077,-7.0466,-7.108,-7.1688,-7.2464,-7.3352,-7.4446,-7.5949,-7.9046,-8.0951,-8.2467,-8.4484,-8.5736,-8.6355,0.0,0.0,0.0,0.0,0.0,0.0,0.0,0.0,0.0,0.0,0.0,0.0,0.0,0.0,0.0,0.0,1.1448,1.292,1.458,1.6054,1.7957,2.0377,2.0744,2.1386,2.2434,2.2434,2.2703,2.334,2.3761,2.4236,2.4796,2.6636,2.7372,2.7252,2.9167,3.001,2.9844,3.0879,3.1348,3.1211,3.1074,3.0606,2.9603,2.7826,2.5986,2.4338,0.0,2.1778,2.0671,1.8148,1.7162,1.6612,1.4021,1.2718,1.1401,0.7496,0.4243,0.1267,-0.1296,-0.4801,-0.8372,-1.0681,-1.1318,-1.2134,-1.5701,-1.8267,-2.014,-2.1383,-2.2914,-2.489,-2.7327,-2.8924,-3.081,-3.4013,-3.6404,-3.8109,-3.8564,-3.8626,-3.8109,-3.6742,-3.9427,-4.1545,-4.1801,-4.6686,-5.0816,-5.3088,-5.4574,-5.5835,-5.6731,-5.6735,-5.7221,-5.816,-5.8425,-5.9008,-6.0297,-6.1211,-6.1812,-6.2395,-6.4758,-6.7154,-6.9703,-6.9818,-7.0192,-7.0995,-7.1697,-7.2759,-7.4002,-7.4793,-7.5798,-7.7216,-7.9196,-8.0966,-8.261,-8.3832,-8.4936,-8.58,0.0,0.0,0.0,0.0,0.0,0.0,0.0,0.0,0.0,0.0,0.0,0.0,0.0,0.0,0.0,0.0,0.0,1.2278,1.3797,1.486,1.6353,1.8435,1.8803,1.9363,2.0219,2.0342,2.0676,2.1327,2.1919,2.2529,2.3072,2.4757,2.5451,2.5414,2.7593,2.8623,2.8602,2.9702,2.9785,2.9119,2.8718,2.7801,2.6424,2.4715,2.3248,0.0,1.9508,1.8682,1.8429,1.6497,1.5543,1.4764,1.2565,1.1157,0.957,0.6149,0.2313,-0.1307,-0.4082,-0.6847,-0.9355,-1.1195,-1.2011,-1.3367,-1.6436,-1.8777,-2.0567,-2.1565,-2.2974,-2.4542,-2.6194,-2.7811,-2.9673,-3.209,-3.4754,-3.6784,-3.7508,-3.7488,-3.7136,-3.6432,-3.8503,-4.0439,-4.1377,-4.5027,-4.8595,-5.1843,-5.3713,-5.5076,-5.6053,-5.6399,-5.701,-5.7784,-5.8195,-5.8898,-6.0051,-6.1076,-6.2159,-6.3092,-6.5314,-6.7661,-7.0306,-7.0161,-7.0694,-7.1719,-7.2506,-7.3696,-7.5163,-7.6071,-7.6911,-7.7872,-7.9263,-8.0828,-8.2243,-8.2763,-8.3701,-8.4694,0.0,0.0,0.0,0.0,0.0,0.0,0.0,0.0,0.0,0.0,0.0,0.0,0.0,0.0,0.0,0.0,0.0,0.0,1.3382,1.3203,1.3781,1.5492,1.5509,1.5512,1.5512,1.6732,1.7253,1.7022,1.9272,2.0616,2.1072,2.1884,2.2862,2.4049,2.5369,2.6083,2.6525,2.7878,2.7428,2.5834,2.5591,2.3785,2.1172,2.0443,1.9408,1.8091,1.6689,1.6197,1.6021,1.5261,1.3811,1.2058,1.1296,0.9846,0.8133,0.6553,0.2621,-0.2155,-0.7174,-0.9647,-1.1063,-1.1732,-1.3116,-1.4683,-1.6869,-1.8496,-1.9886,-2.0819,-2.2045,-2.3386,-2.4745,-2.6824,-2.8763,-2.9661,-3.2653,-3.5004,-3.5521,-3.5252,-3.5459,-3.6722,-3.7148,-3.8484,-4.1516,-4.3399,-4.6129,-5.0376,-5.2681,-5.3836,-5.3942,-5.5649,-5.6682,-5.6682,-5.7688,-5.8828,-6.002,-6.083,-6.3042,-6.6816,-6.7514,-6.871,-7.0306,-7.0645,-7.1402,-7.2432,-7.3352,-7.4491,-7.597,-7.7134,-7.7796,-7.8097,-7.916,-8.042,-8.161,-8.1477,-8.225,-8.339,0.0,0.0,0.0,0.0,0.0,0.0,0.0,0.0,0.0,0.0,0.0,0.0,0.0,0.0,0.0,0.0,0.0,0.0,1.2451,1.3152,1.3976,1.4913,1.5987,1.6522,1.6522,1.7395,1.7552,1.6957,1.8591,1.9064,1.8262,2.0149,2.096,2.0905,2.2618,2.339,2.3574,2.399,2.3854,2.3305,2.2636,2.2075,2.14,1.9886,1.8926,1.8126,1.67,1.5569,1.4777,1.4582,1.2804,1.051,0.9713,0.8384,0.6338,0.2292,0.0114,-0.1903,-0.6247,-0.908,-1.1118,-1.2131,-1.3758,-1.5394,-1.7156,-1.9124,-2.0545,-2.0962,-2.19,-2.2688,-2.275,-2.4902,-2.7345,-2.9332,-3.3094,-3.6287,-3.7757,-3.8171,-3.8325,-3.8235,-4.0234,-4.1976,-4.2708,-4.5641,-4.8107,-4.9427,-5.1496,-5.3303,-5.4831,-5.5992,-5.6812,-5.7044,-5.8297,-5.9108,-5.9402,-6.1003,-6.3293,-6.6265,-6.6816,-6.8335,-7.0676,-7.0789,-7.1456,-7.2588,-7.3355,-7.4766,-7.6385,-7.727,-7.7717,-7.7932,-7.8352,-7.9643,-8.1007,-8.0587,-8.1741,-8.3447,0.0,0.0,0.0,0.0,0.0,0.0,0.0,0.0,0.0,0.0,0.0,0.0,0.0,0.0,0.0,0.0,0.0,0.0,0.0,1.2187,1.2867,1.3737,1.4527,1.5135,1.5429,1.5824,1.6,1.5942,1.681,1.7124,1.6863,1.8194,1.8734,1.8796,2.0231,2.1042,2.1223,2.141,2.1212,0.0,0.0,1.9555,1.9261,1.8011,1.7468,1.7165,1.5813,1.4493,1.3314,1.3132,1.1508,0.9338,0.8246,0.7231,0.5571,0.0352,-0.2804,-0.5192,-0.7512,-1.0178,-1.2448,-1.3113,-1.485,-1.6666,-1.7182,-1.8728,-2.0106,-1.9795,-2.0937,-2.1926,-2.1576,-2.3895,-2.6328,-2.8052,-3.1642,-3.5107,-3.7343,-3.7992,-3.8479,-3.9227,-4.1391,-4.3262,-4.4194,-4.6824,-4.9046,-5.0153,-5.1679,-5.3174,-5.44,-5.6036,-5.7174,-5.756,-5.8676,-5.9426,-6.0043,-6.1697,-6.377,-6.6022,-6.6847,-6.8606,-7.0789,-7.141,-7.1951,-7.27,-7.4282,-7.5592,-7.6529,-7.7172,-7.7642,-7.7944,-7.7513,-7.8657,-8.0518,-7.9939,-8.12,-8.3161,0.0,0.0,0.0,0.0,0.0,0.0,0.0,0.0,0.0,0.0,0.0,0.0,0.0,0.0,0.0,0.0,0.0,0.0,0.0,0.0,1.1358,1.232,1.2381,1.272,1.3458,1.3458,1.3876,1.4692,1.4947,1.5446,1.6216,1.6361,1.6701,1.7203,1.8079,1.8665,1.9033,1.9504,1.9073,1.8013,1.7715,1.7167,1.6373,0.0,1.5858,1.5912,1.4481,1.3038,1.1833,1.1319,1.0123,0.8653,0.7236,0.6116,0.4397,-0.0763,-0.565,-0.9484,-1.0066,-1.2198,-1.4342,-1.443,-1.6253,-1.7966,-1.7369,-1.8312,-1.9229,-1.8642,-2.0086,-2.1378,-2.1178,-2.3547,-2.5953,-2.7027,-3.0056,-3.3265,-3.5997,-3.6813,-3.7887,-4.0056,-4.1883,-4.3715,-4.5814,-4.7658,-4.9548,-5.1615,-5.2634,-5.3374,-5.3673,-5.5969,-5.756,-5.8325,-5.8927,-5.9977,-6.1309,-6.2499,-6.4062,-6.6143,-6.7302,-6.8858,-7.0789,-7.203,-7.2618,-7.2682,-7.5245,-7.6266,-7.6342,-7.7007,-7.7499,-7.7781,-7.6842,-7.7812,-7.9904,-7.9507,-8.0695,-8.2696,0.0,0.0,0.0,0.0,0.0,0.0,0.0,0.0,0.0,0.0,0.9928,1.0364,0.0,0.0,0.0,0.0,0.0,0.0,0.0,0.0,0.0,1.164,1.1703,1.2149,1.3139,1.3155,1.3702,1.4692,1.5036,1.5274,1.5429,1.5373,1.5586,1.5888,1.574,1.5779,1.6193,1.6551,1.6556,1.6354,1.652,1.6699,1.6679,1.5993,1.5617,0.0,1.3214,1.1627,1.0551,0.9998,0.9639,0.9144,0.7632,0.3865,-0.0646,-0.3622,-0.691,-1.0088,-1.1543,-1.3303,-1.4951,-1.6239,-1.7555,-1.8517,-1.8522,-1.8944,-1.9444,-2.0315,-2.1122,-2.1808,-2.2131,-2.4368,-2.6864,-2.8878,-3.1772,-3.4672,-3.7446,-3.8528,-3.9467,-4.0901,-4.322,-4.5169,-4.665,-4.8888,-5.0752,-5.1762,-5.2904,-5.3835,-5.4665,-5.6212,-5.7816,-5.9052,-5.9673,-6.0668,-6.1919,-6.2703,-6.4298,-6.6695,-6.7514,-6.8858,-7.0789,-7.152,-7.2099,-7.2595,-7.4081,-7.5108,-7.5591,-7.6258,-7.6435,-7.6375,-7.6438,-7.7559,-7.916,-7.9294,-8.0695,-8.2696,0.0,0.0,0.0,0.0,0.0,0.0,0.0,0.8402,0.8612,0.9434,0.9896,1.0164,1.0027,1.0264,1.0428,0.0,0.0,0.0,0.0,0.0,0.0,1.0968,1.0968,1.1425,1.2466,1.2466,1.3212,1.4624,0.0,1.5209,1.5752,1.5686,1.5638,1.5512,1.5286,1.5277,1.5452,1.5774,1.5921,1.595,1.6433,1.653,1.6232,1.5712,1.5133,0.0,1.267,1.1434,1.0474,1.0262,0.8506,0.6026,0.3799,-0.0893,-0.5774,-0.7413,-0.9758,-1.2163,-1.2955,-1.4902,-1.6963,-1.7414,-1.8572,-1.9487,-1.9038,-1.9617,-2.0178,-2.069,-2.1431,-2.2232,-2.2417,-2.4104,-2.6333,-2.8757,-3.103,-3.3782,-3.7398,-3.8629,-3.9987,-4.1971,-4.4346,-4.6489,-4.8164,-5.0001,-5.1575,-5.2702,-5.3904,-5.4662,-5.4853,-5.7004,-5.8676,-5.9673,-6.0725,-6.1408,-6.2093,-6.308,-6.4681,-6.6877,-6.7575,-6.9062,-7.1314,-7.2183,-7.2692,-7.2965,-7.4675,-7.5389,-7.5297,-7.5731,-7.5938,-7.5973,-7.6193,-7.7327,-7.9063,-7.9416,-8.0621,-8.2105,0.0,0.0,0.0,0.0,0.0,0.0,0.0,0.8584,0.8931,0.9823,1.002,1.0053,0.9852,0.9921,0.9854,0.0,0.0,0.0,0.0,0.0,0.0,0.0,1.0301,1.0779,1.1788,0.0,0.0,1.4351,1.4496,0.0,0.0,0.0,0.0,0.0,1.5442,1.5467,1.5555,1.5877,1.6052,0.0,0.0,1.6437,1.5819,0.0,0.0,0.0,0.0,1.1207,1.0264,1.0017,0.7006,0.2639,-0.0485,-0.4993,-0.9319,-1.0001,-1.1859,-1.3745,-1.415,-1.6428,-1.8738,-1.871,-1.9475,-2.0103,-1.9494,-2.0089,-2.0888,-2.0854,-2.181,-2.2736,-2.2837,-2.4162,-2.5956,-2.8369,-3.0017,-3.2529,-3.6745,-3.8401,-4.0214,-4.2591,-4.5117,-4.7447,-4.9432,-5.0972,-5.2233,-5.3498,-5.4828,-5.5644,-5.5609,-5.8022,-5.9673,-6.0194,-6.1264,-6.2035,-6.2296,-6.3312,-6.4917,-6.7089,-6.7636,-6.9178,-7.1612,-7.2811,-7.3315,-7.3351,-7.5157,-7.5529,-7.5032,-7.5337,-7.5506,-7.5838,-7.6008,-7.7125,-7.861,-7.938,-8.0333,-8.1292,0.0,0.0,0.0,0.0,0.0,0.0,0.0,0.8769,0.9256,1.0278,1.0337,1.0251,1.0227,1.0055,0.9802,0.0,0.0,0.0,0.0,0.0,0.0,0.0,0.0,0.0,0.0,0.0,0.0,1.3572,1.4186,0.0,0.0,0.0,0.0,0.0,0.0,1.5599,1.5891,1.6199,0.0,0.0,0.0,0.0,0.0,0.0,0.0,0.0,0.0,1.0108,0.8927,0.7868,0.5051,0.1294,-0.2827,-0.6214,-0.8823,-0.9527,-1.1175,-1.3237,-1.5667,-1.7514,-1.919,-2.046,-2.0588,-2.0367,-1.996,-2.041,-2.1202,-2.186,-2.2601,-2.3438,-2.3954,-2.5462,-2.708,-2.8509,-3.0302,-3.2505,-3.5508,-3.8276,-4.0706,-4.2216,-4.5667,-4.8427,-5.0031,-5.1376,-5.2566,-5.3552,-5.5319,-5.672,-5.785,-5.9245,-6.0165,-6.0194,-6.086,-6.1832,-6.2993,-6.3109,-6.471,-6.7818,-6.7879,-6.9178,-7.158,-7.2326,-7.2859,-7.3318,-7.41,-7.4337,-7.427,-7.4572,-7.4871,-7.5167,-7.5838,-7.6403,-7.6999,-7.8966,-8.0009,-8.0575,0.0,0.0,0.0,0.0,0.0,0.0,0.8676,0.9021,0.9498,1.0468,1.0563,1.0562,1.0562,1.0333,0.994,0.952,0.0,0.0,0.0,0.0,0.0,0.0,0.0,0.0,0.0,0.0,1.1827,1.3388,1.393,0.0,0.0,0.0,0.0,0.0,0.0,1.5613,1.5935,1.6243,0.0,0.0,0.0,0.0,0.0,0.0,0.0,0.0,0.0,0.0,0.883,0.627,0.4067,0.1483,-0.3762,-0.6208,-0.7749,-1.0459,-1.2766,-1.5006,-1.7341,-1.9252,-2.0607,-2.1505,-2.1635,-2.1544,-2.1321,-2.2041,-2.2774,-2.2788,-2.332,-2.3954,-2.4152,-2.5331,-2.6863,-2.8513,-2.9982,-3.206,-3.5113,-3.6745,-3.8993,-4.2522,-4.4533,-4.7185,-5.1089,-5.1944,-5.3217,-5.5593,-5.6875,-5.8099,-5.9369,-5.992,-6.0438,-6.0802,-6.1421,-6.218,-6.308,-6.3457,-6.4817,-6.7305,-6.8087,-6.9463,-7.1548,-7.255,-7.3318,-7.3833,-7.407,-7.4171,-7.4272,-7.4672,-7.487,-7.5067,-7.5994,-7.6768,-7.7473,-7.9108,-7.9936,-8.0436,0.0,0.0,0.0,0.0,0.0,0.8029,0.8859,0.9107,0.9598,1.061,1.0647,1.0635,1.0707,1.0417,1.0,0.9628,0.9532,0.0,0.0,0.0,0.0,0.0,0.0,0.0,0.0,0.0,1.1415,1.2711,1.3505,1.4209,0.0,0.0,1.5756,1.5423,0.0,0.0,0.0,0.0,0.0,0.0,0.0,0.0,0.0,0.0,0.0,0.0,0.0,0.0,0.0,0.0,0.0,0.067,-0.4585,-0.6374,-0.7179,-1.0406,-1.3302,-1.5891,-1.7683,-1.9723,-2.1481,-2.1808,-2.2107,-2.218,-2.2389,-2.3178,-2.3817,-2.3709,-2.4035,-2.435,-2.435,-2.5567,-2.7008,-2.8598,-3.0046,-3.1946,-3.4758,-3.6087,-3.804,-4.1888,-4.3263,-4.5954,-5.1332,-5.2929,-5.4968,-5.7979,-5.8455,-5.9142,-6.0381,-6.056,-6.0681,-6.1193,-6.1774,-6.2412,-6.308,-6.3844,-6.5081,-6.6939,-6.8057,-6.9693,-7.1516,-7.255,-7.3525,-7.4171,-7.4171,-7.4171,-7.4272,-7.4771,-7.4968,-7.5067,-7.6122,-7.6747,-7.7233,-7.8859,-7.9647,-8.0094,0.0,0.0,0.0,0.0,0.0,0.0,0.8944,0.9126,0.9512,1.0586,1.049,1.0429,1.0695,1.0248,0.988,0.9868,0.9628,0.0,0.0,0.0,0.0,0.0,0.0,0.0,0.0,0.0,1.1142,1.1192,1.29,1.3609,1.3476,1.4755,1.5423,1.5423,0.0,0.0,0.0,0.0,0.0,0.0,0.0,0.0,1.373,0.0,0.0,0.0,0.0,0.0,0.0,0.0,0.0,0.0,0.0,-0.6821,-0.7343,-0.8772,-1.1988,-1.5262,-1.575,-1.8506,-2.1151,-2.127,-2.1679,-2.2242,-2.2529,-2.3296,-2.402,-2.4424,-2.4529,-2.4529,-2.4843,-2.636,-2.7893,-2.8915,-3.0555,-3.2443,-3.4383,-3.6587,-3.8594,-4.0058,-4.221,-4.5428,-5.0446,-5.4852,-5.8099,-6.0079,-5.9594,-5.9899,-6.1164,-6.1193,-6.1193,-6.1193,-6.1774,-6.2412,-6.308,-6.4093,-6.5329,-6.6939,-6.7909,-6.9526,-7.1516,-7.2262,-7.3142,-7.4171,-7.4171,-7.4171,-7.4272,-7.4771,-7.4968,-7.5067,-7.6122,-7.6017,-7.5571,-7.785,-7.8923,-7.9395,0.0,0.0,0.0,0.0,0.0,0.0,0.0,0.8956,0.9379,1.0091,1.0048,1.0164,1.0429,1.0309,1.014,0.9892,0.9628,0.0,0.0,0.0,0.0,0.0,0.0,0.0,0.0,1.1206,1.1347,1.1782,1.2839,1.3526,1.3646,1.4838,1.5423,1.5438,1.5657,1.572,0.0,0.0,0.0,0.0,0.0,1.3806,1.2674,0.0,0.0,0.0,0.0,0.0,0.0,0.0,0.0,0.0,0.0,0.0,0.0,-0.9644,-1.2216,-1.4844,-1.7014,-1.8454,-1.9844,-2.1368,-2.1781,-2.2284,-2.3503,-2.4278,-2.4711,-2.4523,-2.4627,-2.4824,-2.4843,-2.6628,-2.8443,-2.9483,-3.1422,-3.3268,-3.4544,-3.6494,-3.8924,-4.2011,-4.7832,-5.2414,-5.4445,-5.7038,-5.9009,-6.0108,-5.9956,-6.0258,-6.1164,-6.1193,-6.1193,-6.1193,-6.1396,-6.2006,-6.308,-6.3407,-6.4422,-6.6352,-6.8264,-6.9526,-7.0235,-7.2014,-7.314,-7.3442,-7.3442,-7.3707,-7.4272,-7.4771,-7.4968,-7.5067,-7.6122,-7.6017,-7.5571,-7.7815,-7.8887,-7.9395,0.0,0.0,0.0,0.0,0.0,0.0,0.0,0.8753,0.9112,0.9652,0.9724,0.9868,1.0284,1.0152,0.994,0.988,0.9724,0.0,0.0,0.0,0.0,0.0,0.0,0.0,1.1516,1.139,1.149,1.1815,1.3079,1.3704,1.3814,1.512,1.5789,1.5789,1.5994,1.5817,0.0,0.0,0.0,0.0,1.431,1.3414,1.2131,0.0,0.0,0.0,0.0,0.0,0.0,0.0,0.0,0.0,0.0,0.0,0.0,0.0,-1.2833,-1.4802,-1.6839,-1.8045,-1.9173,-2.1152,-2.1695,-2.2118,-2.3825,-2.459,-2.4827,-2.4684,-2.4843,-2.5039,-2.5137,-2.7153,-2.9037,-2.9916,-3.206,-3.3933,-3.5089,-3.6788,-3.9404,-4.3326,-5.0193,-5.4879,-5.5466,-5.8159,-6.0129,-6.0531,-6.0547,-6.0758,-6.1164,-6.1193,-6.1193,-6.1193,-6.1425,-6.2151,-6.3428,-6.332,-6.4093,-6.5882,-6.8382,-6.9401,-6.9113,-7.1949,-7.2909,-7.2381,-7.2879,-7.3376,0.0,-7.4671,-7.4968,-7.5067,-7.6122,-7.6187,-7.5948,-7.8079,-7.9066,-7.9792,0.0,0.0,0.0,0.0,0.0,0.0,0.0,0.8513,0.8861,0.9388,0.9472,0.9664,1.0224,0.9808,0.9628,0.9856,0.0,0.0,0.0,0.0,0.0,0.0,0.0,0.0,1.1474,1.1556,1.1572,1.1589,1.3335,1.4047,1.3999,1.5585,1.6345,1.6374,1.6389,1.6027,1.5523,1.4558,1.4336,1.4503,1.3926,1.3093,0.0,0.0,0.0,0.0,0.0,0.0,0.0,0.0,0.0,0.0,0.0,0.0,0.0,0.0,0.0,0.0,0.0,-1.7197,-1.9082,-2.0831,-2.145,-2.1915,-2.3634,-2.4208,0.0,-2.4843,-2.5137,-2.543,-2.5645,-2.7785,-2.9693,-3.0273,-3.241,-3.4486,-3.5819,-3.7673,-4.0428,-4.4487,-5.0097,-5.3768,-5.4078,-5.8419,-6.1193,-6.1193,-6.1193,-6.1193,-6.1193,-6.1193,-6.1222,-6.1251,-6.1774,-6.2616,-6.3893,-6.3684,-6.4129,-6.5416,-6.8054,-6.8882,-6.8179,-7.1574,-7.2335,-7.1156,-7.2448,-7.3011,-7.3244,-7.4437,-7.4935,-7.5164,-7.6122,-7.6461,-7.6656,-7.8377,-7.9501,-8.037,0.0,0.0,0.0,0.0,0.0,0.0,0.0,0.0,0.0,0.0,0.9352,0.9532,0.9652,0.9781,0.982,0.0,0.0,0.0,0.0,0.0,0.0,0.0,0.0,0.0,1.134,1.1169,1.1336,1.1946,1.3003,1.3767,1.4148,1.546,1.614,1.6374,1.5979,1.5338,1.4303,1.3664,1.3545,1.3696,1.288,1.1916,0.0,0.0,0.0,0.0,0.3463,0.134,0.0,0.0,0.0,0.0,0.0,0.0,0.0,0.0,-1.3884,-1.5047,-1.6698,0.0,-1.8105,-2.0074,-2.0856,-2.1577,0.0,-2.4702,-2.5137,-2.5235,-2.543,-2.5645,-2.5645,-2.7785,-2.9789,-3.0466,-3.2506,-3.4366,-3.5526,-3.9915,-4.3862,-4.6563,-5.2371,-5.5745,-5.4835,-5.8673,-6.1193,-6.1193,-6.1193,-6.1193,-6.1193,-6.1193,-6.1396,-6.1861,-6.1571,-6.1774,-6.2558,-6.2506,-6.3211,-6.4744,-6.6513,-6.7332,-6.7435,-6.9801,-7.0664,-7.037,-7.1127,-7.2149,-7.3408,-7.3967,-7.4757,-7.5614,-7.6216,-7.6211,-7.6169,-7.8277,-7.9142,-7.9648,0.0,0.0,0.0,0.0,0.0,0.0,0.0,0.0,0.0,0.0,0.0,0.0,0.0,0.0,0.0,0.0,0.0,0.0,0.0,0.0,0.0,0.0,1.0621,1.093,1.1432,1.128,1.1388,1.1877,1.3299,1.4099,1.4242,1.5782,1.6652,1.6723,1.5869,1.4981,1.4096,1.3468,1.3416,1.3549,1.2597,0.0,0.0,0.0,0.0,0.0,0.2573,0.0447,0.0,-0.3798,-0.5588,-0.726,0.0,0.0,0.0,0.0,-1.4984,-1.6174,-1.718,-1.7716,-1.8393,-2.0292,-2.1253,-2.2265,-2.4214,-2.5039,-2.5333,-2.5333,-2.5625,-2.6073,-2.6661,-2.8657,-3.0577,-3.1553,-3.3457,-3.5502,-3.7814,-4.1579,-4.521,-4.8432,-5.2386,-5.5216,-5.6185,-5.8647,-6.0416,-6.0758,-6.0729,-6.0613,-6.0351,-6.0584,-6.0874,-6.1222,-6.1222,-6.1629,-6.2529,-6.1977,-6.2448,-6.3823,-6.588,-6.6663,-6.6467,-6.9278,-7.0238,-6.9616,-7.0565,-7.1651,-7.2909,-7.3569,-7.4493,-7.5422,-7.6216,-7.6314,-7.6321,-7.8235,-7.925,-7.9865,0.0,0.0,0.0,0.0,0.0,0.0,0.0,0.0,0.0,0.0,0.0,0.0,0.0,0.0,0.0,0.0,0.0,0.0,0.0,0.0,0.0,1.0886,1.0975,1.1181,1.1555,1.1566,1.1629,1.1749,1.3484,1.4385,1.4527,1.6323,1.7073,1.6928,1.5639,1.4704,1.4109,1.3711,1.3538,1.3414,1.2548,0.0,0.0,0.0,0.0,0.0,0.0,0.0,0.0,-0.4912,-0.6478,-0.7925,-1.0343,0.0,0.0,0.0,0.0,0.0,-1.7609,-1.8373,-1.9613,-2.1059,-2.2266,-2.3473,-2.4721,-2.529,-2.5506,-2.5546,-2.5957,-2.6681,-2.8022,-2.9829,-3.153,-3.2858,-3.4921,-3.7543,-4.1189,-4.3263,-4.5842,-4.959,-5.164,-5.399,-5.6969,-5.827,-5.9248,-6.0117,-6.0119,-5.9829,-5.9335,-5.9771,-6.0061,-6.0061,-6.0613,-6.1454,-6.2645,-6.1687,-6.1832,-6.308,-6.54,-6.6037,-6.5576,-6.9174,-7.0073,-6.8928,-7.0138,-7.1223,-7.2149,-7.3268,-7.4295,-7.5228,-7.5986,-7.6324,-7.6644,-7.8079,-7.9284,-8.0298,0.0,0.0,0.0,0.0,0.0,0.0,0.0,0.0,0.0,0.0,0.0,0.0,0.0,0.0,0.0,0.0,0.0,0.0,0.0,0.0,0.0,1.0895,1.1146,1.1283,1.1305,1.1316,1.1538,1.1905,1.268,1.3767,1.5308,1.6062,1.613,1.5706,1.4959,1.4159,1.3325,1.3577,1.3257,1.224,1.1359,0.0,0.0,0.0,0.0,0.0,0.0,0.0,0.0,-0.6366,-0.782,-0.9258,-1.0672,0.0,0.0,0.0,0.0,0.0,-1.8957,-2.0377,-2.1515,-2.1723,-2.2946,-2.439,-2.5553,-2.6261,-2.6719,-2.6626,-2.6943,-2.7603,-2.9035,-3.0406,-3.1743,-3.329,-3.6949,-4.0638,-4.4117,-4.6254,-4.7637,-4.8309,-5.1896,-5.4512,-5.47,-5.6858,-5.8767,-6.0088,-5.9742,-5.9393,-5.9306,-5.9393,-5.9451,-5.9451,-5.9539,-5.9916,-6.0642,-6.1019,-6.1832,-6.308,-6.3914,-6.4532,-6.5041,-6.7524,-6.8496,-6.8401,-6.9514,-7.0822,-7.2374,-7.2797,-7.4113,-7.5926,-7.5559,-7.5811,-7.6242,-7.6931,-7.8048,-7.9648,0.0,0.0,0.0,0.0,0.0,0.0,0.0,0.0,0.0,0.0,0.0,0.0,0.0,0.0,0.0,0.0,0.0,0.0,0.0,1.1105,1.1623,1.1502,1.1946,1.1896,1.1346,1.1563,1.1739,1.1871,1.3441,1.4583,1.5356,1.6249,1.6268,1.5693,1.4927,1.4185,1.3399,1.309,1.2607,1.207,0.0,0.0,0.0,0.0,0.0,0.0,0.0,0.0,0.0,0.0,-0.8759,-1.057,-1.2082,0.0,0.0,0.0,0.0,0.0,-1.9194,-2.0825,-2.2374,-2.3288,-2.4602,-2.5767,-2.6415,-2.7361,-2.7925,-2.7242,-2.7944,-2.9126,-3.045,-3.178,-3.3744,-3.732,-4.0335,-4.2971,-4.5144,-4.6488,-4.7846,-4.9265,-5.1228,-5.3286,-5.5274,-5.6569,-5.7912,-5.919,-5.9132,-5.8668,-5.8232,-5.8263,-5.8234,-5.8234,-5.8639,-5.9073,-5.936,-5.9914,-6.0642,-6.1513,-6.272,-6.3406,-6.3728,-6.6027,-6.7264,-6.759,-6.8719,-7.0125,-7.1615,-7.2434,-7.3917,-7.5608,-7.5423,-7.5605,-7.6123,-7.7157,-7.8456,-7.9975,0.0,0.0,0.0,0.0,0.0,0.0,0.0,0.0,0.0,0.0,0.0,0.0,0.0,0.0,0.0,0.0,0.0,0.0,0.0,1.1834,1.2447,1.2221,1.2837,1.2735,1.1771,1.2212,1.2394,1.2213,1.4303,1.5356,1.5358,1.6355,1.639,1.5682,1.4836,1.4112,1.3393,1.2491,1.1953,1.1428,0.0,0.0,0.0,0.0,0.0,0.0,0.0,0.0,0.0,0.0,0.0,0.0,0.0,0.0,0.0,-1.7252,-1.7687,-1.8122,-1.9717,-2.133,-2.3063,-2.5013,-2.6201,-2.6943,-2.7168,-2.831,-2.9036,-2.8249,-2.9394,-3.0899,-3.2377,-3.4059,-3.6719,-4.1152,-4.347,-4.5201,-4.6708,-4.7379,-4.8524,-5.0869,-5.1023,-5.2406,-5.6232,-5.6276,-5.6771,-5.8378,-5.8405,-5.8056,-5.7332,-5.7309,-5.7311,-5.7311,-5.8003,-5.8321,-5.8258,-5.8697,-5.9248,-6.0206,-6.1822,-6.2573,-6.2564,-6.5044,-6.629,-6.6802,-6.7928,-6.9268,-7.0789,-7.1999,-7.3452,-7.4944,-7.5024,-7.5214,-7.5585,-7.7262,-7.8632,-7.9829,0.0,0.0,0.0,0.0,0.0,0.0,0.0,0.0,0.0,0.0,0.0,1.2663,0.0,0.0,0.0,0.0,0.0,0.0,0.0,1.2775,1.3015,1.2765,1.3335,1.342,1.2973,1.3698,1.4,1.3825,1.4484,1.5166,1.5821,1.6138,1.5865,1.5163,1.4467,1.3474,1.223,1.2313,1.1093,0.903,0.7459,0.0,0.0,0.0,0.0,0.0,0.0,0.0,0.0,0.0,0.0,0.0,0.0,0.0,-1.618,-1.7582,-1.8016,-1.8597,-2.1362,-2.2645,-2.3982,-2.6541,-2.7408,-2.7721,-2.791,-2.9125,-3.02,-3.0306,-3.1551,-3.3101,-3.4956,-3.774,-4.0512,-4.2983,-4.5356,-4.7587,-5.0037,-5.0943,-5.1627,-5.2544,-5.182,-5.2696,-5.6286,-5.529,-5.5584,-5.809,-5.7739,-5.7361,-5.7303,-5.7332,-5.7332,-5.7332,-5.739,-5.7338,-5.7398,-5.7398,-5.8408,-6.0177,-6.1373,-6.1929,-6.2086,-6.4843,-6.6096,-6.6193,-6.7213,-6.8633,-7.0343,-7.1359,-7.2472,-7.3646,-7.4128,-7.3981,-7.3775,-7.6194,-7.7461,-7.84,0.0,0.0,0.0,0.0,0.0,0.0,0.0,0.0,0.0,0.0,0.0,1.298,1.2788,1.3193,1.3195,0.0,0.0,0.0,1.1996,1.3006,1.3567,1.3344,1.383,1.4196,1.4395,1.4501,1.4284,1.3908,1.4592,1.5429,1.6406,1.5996,1.5623,1.5317,1.3804,1.2812,1.2196,1.0858,0.9684,0.8699,0.6468,0.4689,0.0,0.0,0.0,0.0,0.0,0.0,0.0,0.0,-1.1704,-1.294,-1.4567,-1.5968,-1.7041,-1.7806,-1.8654,-1.9866,-2.1963,-2.3582,-2.527,-2.7265,-2.8062,-2.8443,-2.8807,-3.0958,-3.2411,-3.0622,-3.3079,-3.5907,-3.671,-3.9546,-4.2523,-4.4789,-4.6939,-4.8968,-5.1021,-5.1465,-5.191,-5.2592,-5.2104,-5.287,-5.5648,-5.5142,-5.5261,-5.6846,-5.7187,-5.7328,-5.7295,-5.7328,-5.7303,-5.7303,-5.7303,-5.7249,-5.7251,-5.7251,-5.8052,-5.9433,-6.0686,-6.1048,-6.0761,-6.3507,-6.4736,-6.4864,-6.6259,-6.7777,-6.9357,-7.0556,-7.1934,-7.3316,-7.3959,-7.3822,-7.3577,-7.5405,-7.6818,-7.8153,0.0,0.0,0.0,0.0,0.0,0.0,0.0,0.0,1.2842,0.0,0.0,0.0,0.0,1.3731,1.3769,0.0,0.0,0.0,1.2378,1.3467,1.4052,1.3909,1.4419,1.4979,1.5408,1.5177,1.4816,1.4413,1.504,1.5603,1.6175,1.5647,1.5056,1.4482,1.3068,1.1982,1.1219,0.9574,0.8706,0.8159,0.5699,0.3689,0.0,0.0,0.0,0.0,0.0,0.0,0.0,0.0,-1.2524,-1.3588,-1.5316,-1.6723,-1.7714,-1.8126,-1.9338,-2.0786,-2.2695,-2.4404,-2.6143,-2.7898,-2.8615,-2.9186,-3.0268,-3.2531,-3.3975,-3.2447,-3.5514,-3.8521,-3.8807,-4.1381,-4.4002,-4.5762,-4.8133,-5.008,-5.1413,-5.1596,-5.1831,-5.2433,-5.2074,-5.2549,-5.4919,-5.4754,-5.4942,-5.6374,-5.6974,-5.7348,-5.726,-5.7295,-5.7328,-5.7303,-5.7303,-5.7303,-5.7303,-5.7303,-5.798,-5.924,-6.015,-6.0426,-6.042,-6.281,-6.3894,-6.402,-6.5469,-6.6982,-6.8593,-6.9787,-7.1421,-7.3129,-7.3499,-7.3504,-7.3496,-7.5332,-7.6751,-7.8153,0.0,0.0,0.0,0.0,0.0,0.0,1.2866,1.3285,1.3511,1.3511,1.3224,0.0,0.0,0.0,0.0,0.0,1.4129,0.0,1.3564,1.4106,1.4472,1.4472,1.5087,1.5584,1.5906,1.5805,1.5658,1.5464,1.5744,1.5617,1.4955,1.4966,1.4028,1.2417,1.2417,1.1109,0.8927,0.8927,0.8276,0.707,0.5043,0.3022,0.0784,0.0,0.0,0.0,0.0,0.0,0.0,0.0,-1.2637,-1.3588,-1.5316,-1.6723,-1.7754,-1.8693,-1.9725,-2.1211,-2.3634,-2.5148,-2.6449,-2.829,-2.894,-2.9758,-3.2447,-3.381,-3.4703,-3.5946,-3.8736,-4.105,-4.1362,-4.3316,-4.5037,-4.5969,-4.8785,-5.0969,-5.1518,-5.1596,-5.1805,-5.2406,-5.1557,-5.197,-5.4369,-5.3992,-5.4538,-5.7093,-5.734,-5.724,-5.7313,-5.7342,-5.7236,-5.7303,-5.7303,-5.7303,-5.7303,-5.7303,-5.8209,-5.9927,-5.9925,-6.0316,-6.1277,-6.31,-6.3894,-6.3988,-6.4943,-6.6434,-6.8135,-6.9052,-7.0951,-7.3098,-7.2742,-7.2887,-7.3566,-7.5938,-7.7221,-7.8227,0.0,0.0,0.0,0.0,0.0,0.0,1.3262,1.345,1.339,1.3164,1.3487,0.0,0.0,0.0,0.0,0.0,0.0,1.3783,1.3912,1.4258,1.4472,1.4472,1.5087,1.5584,1.5906,1.5061,1.4709,1.4956,1.4619,1.4365,1.4129,1.4316,1.3665,1.2427,1.1576,1.0412,0.8963,0.8172,0.7651,0.708,0.4756,0.22,-0.0578,0.0,0.0,0.0,0.0,0.0,0.0,0.0,0.0,0.0,-1.6497,-1.7675,-1.84,-1.8034,-2.0323,-2.3137,-2.4645,-2.6402,-2.8125,-2.8794,-2.9237,-3.0118,-3.235,-3.3271,-3.4577,-3.8216,-4.0409,-4.1922,-4.3028,-4.4753,-4.6325,-4.7198,-4.8625,-5.0219,-5.1439,-5.1596,-5.1721,-5.1793,-5.1361,-5.1408,-5.2397,-5.2233,-5.3217,-5.5771,-5.6839,-5.6544,-5.4678,-5.6297,-5.7254,-5.7274,-5.7353,-5.7353,-5.7303,-5.7303,-5.8143,-5.9925,-5.9849,-6.0316,-6.1277,-6.31,-6.3894,-6.3988,-6.4943,-6.6434,-6.8169,-6.9803,-7.121,-7.238,-7.2536,-7.2887,-7.3566,-7.5676,-7.7014,-7.8227,0.0,0.0,0.0,0.0,0.0,0.0,1.3459,1.339,1.3275,1.3178,1.3508,1.3621,0.0,0.0,0.0,1.4114,1.3829,1.383,1.405,1.4451,1.4662,1.4662,1.5145,1.5401,1.5461,1.4493,1.4025,1.4213,1.3768,1.3588,1.3696,1.3592,1.2861,1.1655,1.0564,0.9427,0.8249,0.7657,0.738,0.7072,0.4325,0.0935,-0.2696,0.0,0.0,0.0,0.0,0.0,0.0,0.0,0.0,0.0,-1.6914,-1.8117,-1.8659,-1.8442,-2.015,-2.2521,-2.4893,-2.7144,-2.8854,-2.9006,-2.9303,-3.0496,-3.4289,-3.5488,-3.7091,-4.1718,-4.3619,-4.4498,-4.4703,-4.5727,-4.6604,-4.7144,-4.892,-5.0558,-5.1492,-5.1616,-5.1557,-5.161,-5.1355,-5.1349,-5.1567,-5.2041,-5.2992,-5.4495,-5.4369,-5.4033,-5.3473,-5.5928,-5.6807,-5.581,-5.6741,-5.7254,-5.7289,-5.7295,-5.8238,-5.9923,-6.0092,-6.0751,-6.1683,-6.3228,-6.3894,-6.402,-6.575,-6.7055,-6.8259,-7.031,-7.1457,-7.2072,-7.2552,-7.297,-7.3601,-7.5879,-7.7413,-7.8702,0.0,0.0,1.2158,1.286,0.0,1.3134,1.3459,1.3241,1.3145,1.349,1.338,1.3459,0.0,0.0,0.0,1.4145,1.4096,1.3989,1.4094,1.4604,1.486,1.486,1.5277,1.5247,1.4788,1.4099,1.3656,1.3391,1.3149,1.3233,1.3491,1.2763,1.1764,1.0672,0.95,0.8264,0.7148,0.6939,0.6899,0.6518,0.3492,-0.0698,-0.5182,-0.6503,0.0,0.0,0.0,0.0,0.0,0.0,0.0,0.0,-1.6813,-1.8009,-1.8534,-1.9287,-1.9722,-2.0768,-2.4998,-2.7492,-2.8834,-2.8946,-2.9367,-3.1294,-3.673,-3.8922,-4.104,-4.514,-4.7136,-4.7758,-4.6398,-4.6513,-4.6764,-4.6824,-4.947,-5.1596,-5.157,-5.153,-5.1557,-5.1322,-5.1456,-5.1332,-5.0928,-5.2258,-5.3288,-5.3154,-5.1004,-5.0748,-5.3384,-5.5701,-5.5899,-5.3537,-5.5808,-5.6916,-5.6916,-5.691,-5.7902,-5.9631,-6.0363,-6.1278,-6.2414,-6.3452,-6.3988,-6.4179,-6.6858,-6.8159,-6.8562,-7.049,-7.1634,-7.2072,-7.2755,-7.317,-7.3717,-7.6488,-7.8134,-7.9462,0.0,0.0,1.2792,1.2946,0.0,0.0,1.3433,1.3459,1.3487,1.357,1.4016,1.4223,1.4178,1.4081,0.0,1.4793,1.4306,1.4229,1.4789,1.488,1.486,1.486,1.5496,1.5376,1.4501,1.4474,1.4043,1.3135,1.3169,1.3233,1.3491,1.2763,1.1764,1.0688,0.961,0.8487,0.7269,0.5402,0.4377,0.3661,0.0365,-0.314,-0.6474,-0.702,-0.7836,0.0,0.0,0.0,0.0,0.0,0.0,0.0,-1.7354,-1.7695,-1.819,-2.0215,-2.2134,-2.4175,-2.7011,-2.8145,-2.8509,-2.8958,-3.1359,-3.3356,-3.211,-3.6638,-4.1164,-4.2066,-4.5438,-4.8146,-4.7807,-4.8515,-4.9212,-4.9116,-5.0591,-5.1642,-5.1654,-5.1583,-5.0989,-4.9114,-5.0488,-4.981,-4.5259,-4.9003,-5.1356,-5.0543,-5.0054,-5.0771,-5.3377,-5.4052,-5.4013,-5.348,-5.4028,-5.4281,-5.4265,-5.4362,-5.5496,-5.7842,-5.9788,-6.1278,-6.2414,-6.3452,-6.436,-6.5222,-6.7345,-6.8339,-6.8562,-7.0635,-7.1776,-7.2331,-7.2838,-7.338,-7.4315,-7.664,-7.8382,-7.9853,0.0,0.0,0.0,0.0,0.0,0.0,0.0,0.0,1.3636,1.3818,1.4195,1.4396,1.4417,1.4237,0.0,0.0,1.4501,1.4418,1.49,1.5065,1.5248,1.5394,1.5376,1.5189,1.4815,1.4242,1.3788,1.3426,1.2787,1.2526,1.2658,1.1907,1.1,0.9801,0.8752,0.7996,0.7311,0.6064,0.3607,0.0487,-0.2521,-0.5008,-0.6906,-0.7143,-0.8078,-0.9284,-1.0211,0.0,0.0,0.0,0.0,0.0,0.0,0.0,-1.9566,-2.0891,-2.3645,-2.6738,-2.8019,-2.8272,-2.8555,-2.9374,-3.3424,-3.6812,-3.5624,-3.8484,-4.1594,-4.2534,-4.5705,-4.8212,-4.8143,-4.8687,-4.9404,-5.0542,-5.1233,-5.1663,-5.1615,-5.0724,-4.9088,-4.6835,-4.7512,-4.7118,-4.4098,-4.7906,-5.0313,-4.9692,-4.9695,-5.0241,-5.1614,-5.2836,-5.3464,-5.3521,-5.3511,-5.3463,-5.3539,-5.407,-5.5733,-5.8347,-5.9923,-6.1556,-6.3164,-6.3611,-6.4545,-6.5703,-6.7614,-6.8428,-6.8673,-7.0493,-7.1643,-7.2296,-7.2507,-7.3517,-7.4999,-7.6859,-7.8738,-8.0677,0.0,0.0,0.0,0.0,0.0,0.0,0.0,0.0,0.0,1.4231,1.4408,1.4541,1.4673,1.448,1.4359,0.0,0.0,0.0,1.4999,1.5277,1.5485,1.572,1.5158,1.4872,1.49,1.4092,1.3634,1.3768,1.2434,1.1726,1.1554,1.0766,0.9904,0.8816,0.775,0.7095,0.6813,0.7217,0.3635,-0.2397,-0.4668,-0.6036,-0.7011,-0.7273,-0.813,-0.9222,-0.9861,-1.1194,-1.244,-1.1782,0.0,0.0,0.0,0.0,-2.1159,-2.1182,-2.3944,-2.7308,-2.8128,-2.8466,-2.883,-2.9743,-3.4551,-3.9499,-4.0924,-4.126,-4.197,-4.4261,-4.6586,-4.8169,-4.821,-4.8221,-4.8823,-5.0696,-5.0948,-5.1057,-5.0976,-4.8995,-4.6861,-4.4873,-4.4755,-4.4661,-4.443,-4.6682,-4.8686,-4.9611,-4.9716,-4.9721,-4.9737,-5.167,-5.288,-5.2836,-5.3231,-5.3493,-5.3547,-5.4749,-5.6758,-5.9614,-6.0567,-6.2003,-6.3894,-6.3988,-6.4669,-6.588,-6.748,-6.8316,-6.8614,-7.0054,-7.1268,-7.2141,-7.2325,-7.3677,-7.572,-7.7179,-7.9203,-8.1474,0.0,0.0,0.0,0.0,0.0,0.0,0.0,0.0,0.0,0.0,1.5341,1.5455,1.5133,1.5049,1.4937,1.4958,1.4835,1.5013,1.535,0.0,0.0,1.4916,1.5089,1.4643,1.3635,1.4166,1.415,1.3587,1.2674,1.1882,1.0945,0.9735,0.903,0.8816,0.7838,0.6194,0.4265,0.6798,0.3173,-0.4248,-0.5057,-0.6165,-0.7127,-0.7327,-0.804,-0.9196,-1.0826,-1.2083,-1.3383,-1.4797,-1.626,0.0,0.0,0.0,-2.1189,-2.1151,-2.1689,-2.3035,-2.7191,-2.9006,-2.9766,-2.9923,-3.3398,-3.7617,-4.0629,-4.1305,-4.1957,-4.4229,-4.6605,-4.8169,-4.821,-4.8221,-4.835,-4.8549,-4.8635,-4.8588,-4.8629,-4.659,-4.5063,-4.4797,-4.4675,-4.4356,-4.3349,-4.2778,-4.4474,-4.9301,-4.9668,-4.9708,-4.9709,-5.0039,-5.0198,-5.0182,-5.231,-5.3509,-5.3539,-5.474,-5.6924,-5.987,-6.1464,-6.2808,-6.3894,-6.4175,-6.4852,-6.5846,-6.6912,-6.7544,-6.7873,-6.9306,-7.0565,-7.1705,-7.2753,-7.4413,-7.6363,-7.7972,-7.9885,-8.1843,0.0,0.0,0.0,0.0,0.0,0.0,0.0,0.0,0.0,0.0,0.0,1.5373,1.5154,1.4953,1.4834,1.4929,1.4933,1.5087,1.5409,1.5163,1.5047,1.5075,1.4475,1.4092,1.3931,1.3936,1.3534,1.2725,1.1846,1.0761,0.9582,0.8289,0.7856,0.8052,0.7547,0.6647,0.5482,0.4073,0.0348,-0.464,-0.6565,-0.7301,-0.723,-0.7969,-0.8469,-0.8996,-0.9757,-1.0405,-1.1411,-1.5441,-1.7579,-1.8901,-2.0681,0.0,0.0,0.0,-2.116,-2.2402,-2.7795,-2.9595,-3.0057,-3.0019,-3.36,-3.7967,-4.0644,-4.1319,-4.1568,-4.2605,-4.4623,-4.6262,-4.6243,-4.7351,-4.8142,-4.8158,-4.8153,-4.7705,-4.6404,-4.5337,-4.4687,-4.4707,-4.4722,-4.4282,-4.3145,-4.3508,-4.4893,-4.7395,-4.8905,-4.9708,-4.9675,-4.9675,-5.008,-5.0716,-5.2093,-5.3026,-5.3535,-5.472,-5.6888,-5.9949,-6.1859,-6.326,-6.3894,-6.4453,-6.518,-6.5988,-6.6987,-6.7671,-6.8048,-6.8777,-7.0099,-7.1711,-7.2171,-7.4223,-7.7119,-7.8131,-8.0253,-8.2724,0.0,0.0,0.0,0.0,0.0,0.0,0.0,0.0,0.0,0.0,0.0,1.5247,1.5157,0.0,0.0,0.0,1.5175,1.5256,1.5409,1.5021,1.4878,1.491,1.3921,1.3599,1.4079,1.3678,1.3091,1.2191,1.115,0.9898,0.8622,0.7028,0.6304,0.6546,0.6029,0.5764,0.551,0.0808,-0.2633,-0.5244,-0.7903,-0.8431,-0.7756,-0.8988,-0.9432,-0.9521,-0.9712,-0.9937,-1.0798,-1.6247,-1.8644,-1.9598,-2.0798,-2.1215,0.0,0.0,0.0,-2.4401,-2.8774,-2.9972,-2.9974,-3.0034,-3.3823,-3.7916,-3.9673,-4.0697,-4.1279,-4.1286,-4.2632,-4.3809,-4.3907,-4.5741,-4.7282,-4.7277,-4.7344,-4.6538,-4.4126,-4.4359,-4.4467,-4.3854,-4.407,-4.3467,-4.1487,-4.4651,-4.6835,-4.6917,-4.8596,-4.9708,-4.9669,-4.9669,-5.0133,-5.1091,-5.1874,-5.2515,-5.3036,-5.5031,-5.7345,-5.9832,-6.2157,-6.3548,-6.4114,-6.4819,-6.5448,-6.6129,-6.7045,-6.7658,-6.7996,-6.8295,-6.968,-7.1561,-7.1855,-7.4239,-7.7548,-7.8351,-8.0524,-8.3172,0.0,0.0,0.0,0.0,0.0,0.0,0.0,0.0,0.0,0.0,0.0,1.5528,1.5231,1.5761,1.5952,1.5583,1.5873,1.5824,1.5423,1.5021,1.4616,1.4193,1.3656,0.0,1.3539,1.347,1.3164,1.2398,1.0882,0.9734,0.8775,0.5972,0.4535,0.4052,0.262,0.1981,0.1839,-0.241,-0.5119,-0.6609,-0.8301,-0.893,-0.925,-1.049,-1.1037,-1.1249,-1.1961,-1.254,-1.3727,-1.7929,-1.9306,-1.9597,-2.0844,-2.1262,-2.1203,0.0,0.0,0.0,-2.9905,-3.0036,-3.0016,-3.0006,-3.3269,-3.6475,-3.6668,-3.9046,-4.1314,-4.1308,-4.1388,-4.1492,-4.146,-4.336,-4.4916,-4.4909,-4.4914,-4.4044,-4.1795,-4.3336,-4.393,-4.1722,-4.2475,-4.1441,-3.7192,-4.4502,-4.9536,-4.9538,-4.9655,-4.9698,-4.9669,-4.9669,-4.9698,-4.9785,-5.1379,-5.2078,-5.173,-5.5807,-5.843,-5.9686,-6.2102,-6.3738,-6.4669,-6.5156,-6.5658,-6.6095,-6.6592,-6.6964,-6.7331,-6.7868,-6.9209,-7.0948,-7.243,-7.4846,-7.7619,-7.8963,-8.074,-8.2658,0.0,0.0,0.0,0.0,0.0,0.0,0.0,0.0,0.0,0.0,0.0,0.0,0.0,1.6413,1.6393,1.5986,1.535,1.4993,1.5021,1.4177,1.3652,1.3644,1.3248,1.3193,1.347,1.2751,1.2011,1.1328,0.9786,0.8457,0.7164,0.5315,0.3646,0.2548,0.2544,0.0477,-0.3032,-0.6076,-0.7601,-0.8177,-0.8634,-0.8988,-0.914,-1.0579,-1.2019,-1.3341,-1.3029,-1.4249,-1.6269,-1.7754,-1.8712,-1.958,-2.0816,-2.1247,-2.1402,-2.2096,-2.597,-2.9992,-2.999,-3.0036,-2.9974,-2.9965,-3.3206,-3.6354,-3.6431,-3.7287,-3.8768,-4.0848,-4.0707,-4.0308,-4.0312,-4.1544,-4.2473,-4.2497,-4.2554,-4.2267,-4.144,-4.0159,-3.9119,-3.8287,-3.9728,-4.0767,-4.057,-4.3463,-4.663,-4.9457,-4.9677,-4.9679,-4.9669,-4.9669,-5.0046,-5.0888,-5.1135,-5.1765,-5.2914,-5.6302,-5.8532,-5.9756,-6.2362,-6.4081,-6.491,-6.557,-6.6095,-6.6558,-6.7063,-6.7312,-6.7428,-6.7879,-6.9376,-7.1357,-7.2321,-7.4545,-7.7308,-7.8774,-8.0312,-8.1955,0.0,0.0,0.0,1.423,0.0,1.4983,1.536,1.5737,1.6007,1.6083,0.0,0.0,0.0,0.0,1.6484,1.5824,1.4741,1.4188,1.4382,1.3619,1.3158,1.3415,1.3014,1.2953,1.334,1.2289,1.1344,1.0582,0.9106,0.7427,0.5733,0.4125,0.2558,0.1194,0.1328,-0.0962,-0.5101,-0.6975,-0.8031,-0.8539,-0.8825,-0.9083,-0.9284,-1.12,-1.2899,-1.4468,-1.4551,-1.5921,-1.7615,-1.8084,-1.9025,-2.0172,-2.0903,-2.1189,-2.1639,-2.4105,-2.6974,-2.9534,-2.9949,-3.0036,-3.0016,-2.995,-3.2196,-3.4581,-3.6039,-3.638,-3.7111,-3.9667,-4.0233,-4.0016,-3.9188,-3.9878,-4.0619,-4.0977,-4.067,-4.0308,-3.9778,-3.7791,-3.6578,-3.6871,-3.8517,-4.0404,-4.2296,-4.3679,-4.5702,-4.842,-4.9301,-4.9571,-4.9473,-4.9577,-5.0169,-5.1259,-5.0976,-5.1583,-5.328,-5.6378,-5.8583,-5.9687,-6.2716,-6.4545,-6.5303,-6.5834,-6.6354,-6.6812,-6.7312,-6.7557,-6.7719,-6.8162,-6.9513,-7.1462,-7.2298,-7.4404,-7.7196,-7.8613,-8.0158,-8.1711,1.3528,1.3836,1.423,1.4624,1.5,1.536,1.5754,1.6131,1.6297,1.5873,0.0,0.0,0.0,0.0,0.0,1.5144,1.4068,1.3433,1.3698,1.3273,1.3181,1.3333,1.3025,1.2877,1.3104,1.2118,1.1185,1.0206,0.8736,0.6751,0.4582,0.2637,0.1157,-0.0,-0.1294,-0.2613,-0.3968,-0.5083,-0.6331,-0.7724,-0.8755,-0.934,-0.9954,-1.2407,-1.3702,-1.444,-1.6691,-1.7526,-1.764,-1.8924,-2.016,-2.1072,-2.1191,-2.1244,-2.2147,-2.694,-2.8346,-2.8593,0.0,0.0,0.0,-2.9971,-2.9989,-3.1135,-3.5258,-3.6284,-3.6579,-3.7632,-3.9628,-4.0441,-3.8303,-3.838,-3.9162,-4.0286,-3.9471,-3.8212,-3.6604,-3.6428,-3.6789,-3.7825,-3.9015,-4.0256,-4.1772,-4.5285,-4.7141,-4.6502,-4.8459,-4.9473,-4.9009,-4.9509,-5.0114,-5.0775,-5.0831,-5.1463,-5.268,-5.6183,-5.8416,-5.9531,-6.3056,-6.5033,-6.5746,-6.6009,-6.6354,-6.6896,-6.7312,-6.7719,-6.8162,-6.8551,-6.9573,-7.0976,-7.2335,-7.4652,-7.7405,-7.868,-8.0363,-8.2076,1.3939,1.4247,1.4641,1.5,1.5394,1.5771,1.6148,1.6524,1.6867,0.0,0.0,0.0,1.77,1.6651,1.5545,1.4378,1.3471,1.3009,1.3285,1.2825,1.2698,1.294,1.2986,1.2715,1.2128,1.1194,1.0099,0.8961,0.747,0.5833,0.4167,0.2479,0.1138,-0.0,-0.1273,-0.3034,-0.52,-0.612,-0.7343,-0.8762,-0.9171,-0.9939,-1.1065,-1.2705,-1.383,-1.4813,-1.7229,-1.7861,-1.7566,-1.789,-1.8211,-1.88,-2.0615,-2.121,-2.2118,-2.694,-2.8288,-2.8522,-2.9697,0.0,0.0,0.0,0.0,0.0,-3.1504,-3.3009,-3.4599,-3.643,-3.7317,-3.7764,-3.7657,-3.8176,-3.8656,-3.8715,-3.843,-3.7749,-3.6621,-3.6418,-3.6684,-3.7577,-3.884,-4.0482,-4.2393,-4.4729,-4.6606,-4.7971,-4.9107,-4.9669,-4.9473,-5.0543,-5.119,-5.1441,-5.2349,-5.2665,-5.2652,-5.5939,-5.8066,-5.8746,-6.2372,-6.4509,-6.5273,-6.6204,-6.698,-6.7557,-6.7765,-6.8275,-6.8816,-6.9008,-7.03,-7.2085,-7.2901,-7.5033,-7.7783,-7.885,-7.9998,-8.1379,1.4316,1.4641,1.5018,1.5394,1.5771,1.6148,1.6524,1.6901,1.7227,0.0,0.0,0.0,1.7448,1.608,1.4768,1.3815,1.2949,1.2518,1.2677,1.2461,1.2522,1.2748,1.2985,1.2666,1.1569,1.059,0.9593,0.8381,0.6352,0.4589,0.3243,0.1791,0.045,-0.0796,-0.2046,-0.3654,-0.5639,-0.6604,-0.8037,-0.9463,-0.9939,-1.0724,-1.1678,-1.3546,-1.4641,-1.546,-1.7325,-1.7972,-1.7806,-1.764,-1.821,-1.9279,-2.0759,-2.1166,-2.2166,-2.694,-2.825,-2.8569,-2.9717,-3.0013,-2.9994,-2.9994,0.0,0.0,-3.1077,-3.2297,-3.3581,-3.4824,-3.6111,-3.7042,-3.7273,-3.7795,-3.812,-3.7531,-3.7445,-3.7242,-3.6814,-3.6488,-3.6754,-3.7585,-3.8868,-4.0743,-4.3372,-4.501,-4.6754,-4.8924,-4.9465,-4.9803,-5.0154,-5.0571,-5.1166,-5.1733,-5.2452,-5.2759,-5.2837,-5.5932,-5.8076,-5.9127,-6.2574,-6.4814,-6.5749,-6.6441,-6.7229,-6.7959,-6.8004,-6.8551,-6.934,-6.9525,-7.0629,-7.2228,-7.3141,-7.5303,-7.8019,-7.8982,-8.0202,-8.1818,0.0,1.5069,1.5446,1.5805,1.6199,1.6576,1.6918,1.7295,1.7535,0.0,1.7746,1.7546,1.6566,1.5248,1.4117,1.3284,1.2529,1.2091,1.2091,1.2318,1.2544,1.2759,1.3007,1.2535,1.1318,1.0346,0.9248,0.7858,0.5324,0.3357,0.2124,0.0672,-0.0673,-0.1906,-0.3024,-0.4247,-0.5477,-0.6807,-0.8256,-0.9926,-1.0949,-1.1561,-1.2234,-1.4619,-1.5806,-1.6267,-1.7232,-1.783,-1.8181,-1.7818,-1.9166,-2.1003,-2.1176,-2.1579,-2.2846,-2.7068,-2.8339,-2.8569,-2.9717,-3.0013,-2.9994,-2.9994,-2.9994,0.0,-3.2398,-3.2801,-3.2918,-3.3004,-3.5306,-3.7157,-3.6603,-3.7071,-3.7318,-3.6597,-3.6521,-3.6698,-3.701,-3.6734,-3.6835,-3.7889,-3.8994,-4.1004,-4.4347,-4.5587,-4.7197,-4.9571,-4.9756,-5.0109,-5.0812,-5.0408,-5.0763,-5.1976,-5.2004,-5.2437,-5.3184,-5.6113,-5.8335,-5.9949,-6.3176,-6.531,-6.6576,-6.6829,-6.7394,-6.8162,-6.8162,-6.8781,-6.967,-6.9991,-7.0768,-7.1902,-7.3164,-7.5538,-7.8362,-7.9251,-8.0755,-8.267,1.5035,1.5651,1.6148,1.6233,1.6798,1.7278,1.7346,1.7689,1.7929,1.7929,1.7674,1.6894,1.5296,1.4638,1.376,1.2158,1.2253,1.2339,1.2339,1.2565,1.2716,1.2759,1.3179,1.2464,1.0286,1.0214,0.8982,0.6684,0.4916,0.3245,0.1903,0.056,-0.0673,-0.1906,-0.3024,-0.4247,-0.5472,-0.6614,-0.8678,-1.1041,-1.1378,-1.2141,-1.3426,-1.4976,-1.629,-1.7232,-1.7479,-1.7596,-1.783,-1.8674,-1.9359,-1.991,-2.0844,-2.3858,-2.7124,-2.7986,-2.8261,-2.8542,-2.9737,-3.0034,-2.9951,-3.0015,-2.9994,0.0,-3.0495,-3.0599,-3.0867,-3.1693,-3.2376,-3.3115,-3.3819,-3.4261,-3.4579,-3.509,-3.5355,-3.5692,-3.6508,-3.681,-3.7262,-3.7914,-3.8994,-4.1004,-4.4347,-4.5309,-4.6754,-4.9542,-5.0162,-5.0801,-5.1353,-5.1873,-5.2405,-5.3184,-5.3395,-5.3576,-5.371,-5.6541,-5.8089,-5.8432,-6.2451,-6.4638,-6.5135,-6.6814,-6.7845,-6.8397,-6.874,-6.9266,-6.9885,-7.0272,-7.1437,-7.3137,-7.3849,-7.6134,-7.9128,-7.9599,-8.0855,-8.2807,1.5429,1.5959,1.6405,1.6593,1.709,1.7535,1.7723,1.7912,1.8031,1.8031,1.7794,1.7381,1.6699,1.5704,1.4589,1.3481,1.2961,1.2628,1.2425,1.263,1.2759,1.2759,1.2708,1.17,0.9823,0.9298,0.814,0.6047,0.3918,0.2574,0.1791,-0.0,-0.1458,-0.2466,-0.3916,-0.5027,-0.6144,-0.755,-0.9051,-1.0416,-1.1769,-1.3264,-1.4738,-1.6053,-1.6891,-1.7479,-1.7479,-1.7479,-1.7701,-1.892,-2.034,-2.1735,-2.2343,-2.513,-2.832,-2.8295,-2.8349,-2.8455,-2.9465,-2.9656,-2.9679,-2.9784,-2.9889,0.0,0.0,-3.0681,-3.1094,-3.2196,-3.2398,-3.2499,-3.2878,-3.3055,-3.3453,-3.4288,-3.4581,-3.509,-3.5883,-3.6513,-3.6985,-3.7538,-3.8592,-4.0593,-4.4013,-4.501,-4.6717,-4.9513,-5.0307,-5.0946,-5.1585,-5.2223,-5.2862,-5.35,-5.3815,-5.42,-5.4857,-5.6898,-5.8769,-6.029,-6.3115,-6.5033,-6.6268,-6.7422,-6.8275,-6.874,-6.9192,-6.9705,-7.0202,-7.0615,-7.195,-7.3856,-7.4179,-7.64,-7.9442,-7.9764,-8.1045,-8.3004,1.584,1.6199,1.6576,1.6953,1.7329,1.7689,1.7997,1.81,1.8168,1.8237,1.8096,1.8041,1.7991,1.6638,1.5481,1.476,1.3815,1.3039,1.2661,1.2823,1.2932,1.2824,1.2122,1.1097,0.9661,0.8553,0.726,0.5935,0.3134,0.1791,0.1791,-0.0672,-0.213,-0.2914,-0.4599,-0.5725,-0.6629,-0.8338,-0.9509,-1.0345,-1.24,-1.4013,-1.5332,-1.6644,-1.7244,-1.7479,-1.7479,-1.762,-1.7762,-1.8803,-2.0989,-2.3356,-2.4364,-2.6198,-2.8005,-2.8199,-2.8369,-2.8554,-2.9086,-2.9258,-2.9303,-2.9448,-2.9679,-2.9973,0.0,0.0,0.0,-3.2174,-3.2398,-3.2376,-3.2151,-3.205,-3.2353,-3.3277,-3.3773,-3.4288,-3.5211,-3.5883,-3.6463,-3.7014,-3.8464,-4.0585,-4.3552,-4.5056,-4.6985,-4.9716,-5.0254,-5.0919,-5.1759,-5.25,-5.314,-5.378,-5.4094,-5.4921,-5.6389,-5.7777,-5.9922,-6.2673,-6.4153,-6.5799,-6.7673,-6.8014,-6.8586,-6.9192,-6.9525,-7.0026,-7.065,-7.1093,-7.2452,-7.4242,-7.4332,-7.6491,-7.9636,-7.9915,-8.1231,-8.3126,1.6268,1.6593,1.697,1.7346,1.7723,1.798,1.7951,1.8305,1.8648,1.9007,1.8734,1.7889,1.6433,1.5917,1.5179,1.3921,1.3803,1.3656,1.3424,1.3347,1.327,1.306,1.22,1.1263,1.0265,0.8716,0.7371,0.6274,0.3245,0.1791,0.1791,-0.0672,-0.1908,-0.202,-0.4205,-0.537,-0.5829,-0.802,-1.0477,-1.2956,-1.3306,-1.3565,-1.4023,-1.5332,-1.6526,-1.7479,-1.7479,-1.7754,-1.827,-1.8387,-1.9442,-2.1584,-2.6275,-2.738,-2.7176,-2.8064,-2.8574,-2.8878,-2.8827,-2.8727,-2.8834,-2.9132,-2.9132,-2.9237,-2.9343,0.0,-2.9428,-2.9533,0.0,-2.9533,-2.9533,0.0,0.0,-3.0927,-3.1949,-3.2978,-3.3993,-3.5017,-3.5914,-3.6456,-3.9265,-4.1802,-4.3382,-4.5917,-4.8263,-5.0411,-4.9972,-5.0569,-5.2763,-5.348,-5.4199,-5.5083,-5.5397,-5.6462,-5.8393,-5.9791,-6.1433,-6.304,-6.4941,-6.6314,-6.7152,-6.7964,-6.8781,-6.9525,-6.9742,-7.0305,-7.1051,-7.1896,-7.308,-7.4395,-7.4395,-7.6554,-7.98,-8.0137,-8.1353,-8.3269,1.6336,1.6816,1.7295,1.7449,1.7792,1.8031,1.8031,1.8357,1.8802,1.9418,1.9329,1.9046,1.8514,1.7933,1.7037,1.584,1.5303,1.4652,1.3802,1.3713,1.3612,1.3319,1.1775,1.0543,0.9754,0.7962,0.6265,0.47,0.2798,0.1456,0.0672,-0.1009,-0.2018,-0.2692,-0.4552,-0.5728,-0.6541,-0.8476,-1.0016,-1.1256,-1.2065,-1.2875,-1.3904,-1.5935,-1.7009,-1.7503,-1.766,-1.79,-1.8224,-1.8931,-2.0372,-2.2326,-2.5138,-2.6734,-2.7512,-2.8007,-2.8377,-2.8629,-2.8739,-2.8727,-2.8727,-2.8834,-2.9026,-2.9026,-2.894,-2.9026,-2.9132,-2.9132,0.0,0.0,0.0,0.0,0.0,0.0,-3.0721,-3.1746,-3.33,-3.419,-3.4993,-3.5843,-3.7692,-4.0256,-4.3614,-4.6192,-4.8409,-5.0173,-4.9933,-5.0588,-5.2528,-5.395,-5.4907,-5.5306,-5.611,-5.7486,-5.9531,-6.0674,-6.2451,-6.4623,-6.5902,-6.703,-6.7869,-6.8524,-6.9192,-6.9813,-7.0132,-7.0865,-7.1896,-7.2481,-7.3733,-7.5348,-7.5823,-7.7584,-7.9989,-8.0751,-8.2282,-8.4349,1.6644,1.709,1.7501,1.7603,1.786,1.81,1.8323,1.8579,1.9025,1.9795,1.9898,1.9945,2.0029,1.9402,1.8519,1.7301,1.6531,1.5545,1.4061,1.4037,1.3876,1.3153,1.1292,0.9892,0.9176,0.7326,0.5601,0.425,0.2574,0.1344,0.0448,-0.1121,-0.2354,-0.325,-0.48,-0.6111,-0.7164,-0.8828,-1.0025,-1.0859,-1.1823,-1.3306,-1.4976,-1.6773,-1.7479,-1.7515,-1.7781,-1.7925,-1.8227,-1.9429,-2.0934,-2.2503,-2.4006,-2.5775,-2.7401,-2.7644,-2.8052,-2.841,-2.8418,-2.8514,-2.8514,-2.8621,-2.8727,-2.8814,-2.8621,-2.8727,-2.892,-2.892,-2.892,0.0,0.0,0.0,-2.8708,-2.9303,0.0,-3.103,-3.26,-3.3598,-3.4507,-3.5332,-3.6899,-3.9728,-4.3948,-4.5695,-4.741,-4.9606,-4.954,-5.0398,-5.2653,-5.4568,-5.5708,-5.5886,-5.7064,-5.8837,-6.1027,-6.1777,-6.3606,-6.6412,-6.6975,-6.7722,-6.8663,-6.9043,-6.956,-7.0062,-7.0478,-7.138,-7.2662,-7.3198,-7.4358,-7.6056,-7.7364,-7.8761,-8.021,-8.1181,-8.3,-8.5199,1.7432,1.7449,1.7586,1.7963,1.8031,1.8288,1.9025,1.9144,1.9418,2.0172,2.0275,2.0046,1.9461,1.9415,1.8682,1.6946,1.7029,1.6369,1.4389,1.4516,1.3919,1.2211,1.0937,0.973,0.8569,0.7043,0.6158,0.5708,0.3134,0.1791,0.1679,-0.0672,-0.2466,-0.3586,-0.4742,-0.621,-0.7635,-0.8846,-1.1012,-1.3536,-1.3665,-1.5095,-1.7361,-1.7479,-1.7479,-1.7515,-1.7781,-1.8046,-1.8521,-1.9837,-2.0442,-2.1096,-2.3908,-2.5082,-2.5709,-2.6992,-2.7725,-2.8081,-2.7968,-2.796,-2.796,-2.8301,-2.8301,-2.8301,-2.8281,-2.8301,-2.8301,-2.8301,-2.8301,-2.8301,-2.8281,-2.8067,-2.8067,-2.8281,-2.9911,0.0,0.0,-3.34,-3.4823,-3.4823,-3.7917,-4.1183,-4.433,-4.4144,-4.5367,-4.8705,-4.8452,-4.9805,-5.3603,-5.5317,-5.6569,-5.751,-5.8486,-6.047,-6.3541,-6.3635,-6.5127,-6.8049,-6.8049,-6.8397,-6.9078,-6.9414,-6.9885,-7.0514,-7.0883,-7.1773,-7.3052,-7.3968,-7.4993,-7.6166,-7.886,-8.01,-8.0369,-8.1181,-8.3095,-8.538,1.7792,1.7843,1.7894,1.8014,1.8031,1.8288,1.9059,1.9384,1.9898,2.0908,2.1028,2.1173,2.1509,2.0767,1.979,1.8769,1.788,1.6727,1.5458,1.5068,1.4265,1.2754,1.1341,0.9843,0.8251,0.6932,0.5262,0.3134,0.2239,0.1008,-0.056,-0.1458,-0.2466,-0.3698,-0.4976,-0.6336,-0.7641,-0.9093,-1.0664,-1.2586,-1.4262,-1.5935,-1.7479,-1.7479,-1.7587,-1.7781,-1.8058,-1.8324,-1.8802,-2.0631,-2.1474,-2.2253,-2.4311,-2.5605,-2.6452,-2.6716,-2.7271,-2.7807,-2.7986,-2.7948,-2.8057,-2.8404,-2.8404,-2.8327,-2.8145,-2.8067,-2.796,-2.7745,-2.7745,-2.7745,-2.796,-2.7745,-2.7745,-2.8174,-2.9282,-3.0411,0.0,-3.34,-3.5088,-3.5785,-3.839,-4.0875,-4.2814,-4.3888,-4.5543,-4.8056,-4.8594,-5.0227,-5.3473,-5.5581,-5.7051,-5.7849,-5.9356,-6.1371,-6.37,-6.4348,-6.5808,-6.8083,-6.8586,-6.8967,-6.9414,-6.9705,-7.0166,-7.0883,-7.1045,-7.2155,-7.3931,-7.4409,-7.5775,-7.7829,-7.94,-8.0469,-8.1242,-8.2079,-8.3934,-8.635,1.7997,1.8031,1.8031,1.8031,1.8151,1.8442,1.9076,1.9727,2.0446,2.1302,2.1645,2.2055,2.2689,2.1702,2.0524,1.9788,1.8452,1.7124,1.5728,1.5401,1.4374,1.2202,1.1381,0.9853,0.7725,0.6791,0.5081,0.2709,0.2133,0.0784,-0.1121,-0.157,-0.2688,-0.4254,-0.5322,-0.6686,-0.8341,-0.9806,-1.1269,-1.2586,-1.5213,-1.6762,-1.7479,-1.7479,-1.7648,-1.7913,-1.8191,-1.8704,-1.9437,-2.1148,-2.2219,-2.3021,-2.4504,-2.5591,-2.6355,-2.643,-2.6936,-2.7549,-2.8014,-2.7939,-2.7936,-2.8267,-2.8172,-2.809,-2.7803,-2.7745,-2.7638,-2.7638,-2.753,-2.7745,-2.8281,-2.796,-2.7745,-2.8388,-2.9387,-3.0721,0.0,-3.3918,-3.5304,-3.6531,-3.8079,-3.98,-4.1619,-4.3075,-4.5126,-4.7795,-4.8758,-5.0593,-5.3627,-5.5713,-5.7281,-5.8227,-6.0214,-6.2199,-6.4165,-6.516,-6.6609,-6.8431,-6.8892,-6.9266,-6.9742,-6.9991,-7.0443,-7.111,-7.1593,-7.2844,-7.4555,-7.497,-7.6521,-7.8787,-7.9744,-8.0677,-8.1673,-8.2608,-8.4722,-8.7499,1.8031,1.8049,1.8066,1.8066,1.8374,1.8751,1.9144,2.0172,2.1045,2.1422,2.2124,2.2758,2.3151,2.2006,2.0938,1.9983,1.896,1.7359,1.5229,1.5521,1.4312,1.0964,1.111,0.9932,0.7163,0.6594,0.5622,0.4125,0.2596,0.1121,-0.0112,-0.1234,-0.3136,-0.5377,-0.5672,-0.7158,-0.9525,-1.1009,-1.2466,-1.4023,-1.6526,-1.7479,-1.7479,-1.7479,-1.766,-1.7925,-1.8191,-1.9063,-2.0322,-2.163,-2.2529,-2.3323,-2.4553,-2.5143,-2.5525,-2.6092,-2.6749,-2.74,-2.8032,-2.7958,-2.766,-2.7955,-2.7763,-2.7352,-2.7441,-2.7422,-2.7422,-2.7745,-2.7853,-2.8174,-2.892,-2.8495,-2.8067,-2.8688,-3.0099,-3.2028,-3.4409,-3.4847,-3.5449,-3.7012,-3.7284,-3.8295,-4.0745,-4.1904,-4.4082,-4.772,-4.8992,-5.0884,-5.3884,-5.5674,-5.7315,-5.8831,-6.0897,-6.302,-6.516,-6.6152,-6.7467,-6.9153,-6.9153,-6.9414,-6.9956,-7.0376,-7.0852,-7.1376,-7.2527,-7.3676,-7.4824,-7.5556,-7.7121,-7.8946,-7.9902,-8.0896,-8.1867,-8.2682,-8.5354,-8.8759,1.8031,1.8254,1.8442,1.8442,1.8768,1.9144,1.9538,2.0549,2.1508,2.2158,2.2912,2.3631,2.4316,2.2451,2.11,2.0764,1.8738,1.7037,1.6214,1.5931,1.4488,1.1477,1.129,0.9932,0.7163,0.6788,0.5338,0.2864,0.2171,0.0794,-0.1346,-0.1683,-0.3155,-0.5581,-0.5697,-0.7205,-0.9683,-1.1063,-1.3066,-1.5213,-1.6879,-1.7479,-1.7479,-1.7479,-1.7781,-1.8191,-1.8263,-1.858,-1.9337,-2.1379,-2.2173,-2.2726,-2.4499,-2.5539,-2.6182,-2.6299,-2.7035,-2.771,-2.8247,-2.8044,-2.7844,-2.807,-2.7884,-2.7491,-2.7172,-2.7098,-2.7098,-2.7008,-2.7422,-2.8048,-2.8986,-2.8368,-2.8368,-3.0057,-3.1278,-3.26,-3.404,-3.4865,-3.5857,-3.706,-3.844,-3.9449,-3.9904,-4.2526,-4.4829,-4.6251,-4.8858,-5.1509,-5.442,-5.553,-5.7047,-5.9327,-6.1313,-6.3237,-6.516,-6.6492,-6.7866,-6.9452,-6.9633,-7.0026,-7.075,-7.139,-7.2076,-7.2563,-7.3614,-7.4639,-7.5592,-7.5898,-7.7476,-7.9719,-8.0124,-8.1326,-8.2972,-8.4383,-8.6116,-8.8042,1.9048,1.947,1.971,1.9551,1.992,2.0131,2.0189,2.0908,2.1679,2.2449,2.3203,2.3836,2.4264,2.2432,2.113,2.113,1.8711,1.6982,1.6518,1.5654,1.4195,1.167,1.0926,0.9551,0.7546,0.7035,0.542,0.2663,0.1727,0.0228,-0.1795,-0.1809,-0.3186,-0.5618,-0.5752,-0.7267,-0.9737,-1.1679,-1.3784,-1.5688,-1.6997,-1.7479,0.0,-1.7479,-1.7744,-1.8106,-1.8106,-1.8717,-1.9575,-2.1341,-2.2267,-2.2901,-2.4377,-2.5463,-2.5999,-2.5999,-2.6555,-2.7303,-2.7712,-2.7625,-2.7422,-2.7537,-2.7343,-2.7086,-2.6846,-2.6791,-2.6899,-2.7225,-2.7745,-2.8368,-2.9618,-2.9217,-2.9384,-3.1144,-3.1913,-3.2801,-3.4497,-3.5183,-3.6159,-3.7629,-3.8736,-3.9649,-4.0112,-4.3513,-4.5825,-4.6329,-4.9156,-5.182,-5.4176,-5.5101,-5.6838,-5.9687,-6.131,-6.3219,-6.5426,-6.6693,-6.8102,-6.9742,-7.0167,-7.0839,-7.1519,-7.2346,-7.3038,-7.365,-7.4514,-7.5322,-7.6045,-7.6925,-7.837,-8.021,-8.1192,-8.2282,-8.3403,-8.512,-8.6711,-8.8232,2.0529,2.1047,2.1278,2.088,2.1139,2.1427,2.1122,2.1405,2.1884,2.2705,2.334,2.3819,2.3819,2.226,2.113,2.113,1.8855,1.7149,1.624,1.5215,1.3689,1.1516,1.0335,0.9201,0.7872,0.7301,0.5745,0.3049,0.139,-0.0228,-0.1795,-0.1825,-0.3219,-0.5639,-0.5814,-0.7454,-1.0235,-1.2636,-1.45,-1.5935,-1.7009,-1.7479,-1.7491,-1.7527,-1.7696,-1.7937,-1.7962,-1.901,-2.0407,-2.1382,-2.2407,-2.3429,-2.4401,-2.5141,-2.5605,-2.5605,-2.6066,-2.6491,-2.697,-2.688,-2.6902,-2.6849,-2.6637,-2.6537,-2.6591,-2.6573,-2.6899,-2.796,-2.8388,-2.9046,-3.0662,-3.0726,-3.1021,-3.2119,-3.2416,-3.3198,-3.5338,-3.5836,-3.6597,-3.8445,-3.9093,0.0,-4.0906,-4.4239,-4.6605,-4.7032,-4.9431,-5.179,-5.3867,-5.4668,-5.6684,-6.0042,-6.1299,-6.3186,-6.5808,-6.6942,-6.8258,-6.9813,-7.0771,-7.162,-7.2269,-7.3272,-7.4,-7.4613,-7.5416,-7.5933,-7.6387,-7.8112,-7.9473,-8.0651,-8.2468,-8.318,-8.3462,-8.5276,-8.7042,-8.8695,2.1047,2.1484,2.1551,2.0934,2.1374,2.1924,2.2287,2.2569,2.298,2.3408,2.4145,2.4624,2.4624,2.2542,2.113,2.113,1.8855,1.7232,1.648,1.53,1.3746,1.1687,1.0514,0.9201,0.7872,0.7373,0.5806,0.3049,0.1523,-0.0115,-0.1795,-0.1825,-0.3238,-0.5735,-0.5843,-0.8564,-1.3021,-1.3536,-1.5095,-1.7244,-1.7361,-1.7479,-1.7503,-1.772,-1.7974,-1.8251,-1.8469,-1.9212,-2.0407,-2.1382,-2.2552,-2.3653,-2.464,-2.5497,-2.5984,-2.5968,-2.647,-2.697,-2.7039,-2.719,-2.7239,-2.692,-2.6608,-2.6421,-2.6555,-2.6772,-2.706,-2.7726,-2.9006,-3.0391,-3.1505,-3.2944,-3.3675,-3.279,-3.3952,-3.5165,-3.5876,-3.7076,-3.8396,-3.9373,-4.1203,-4.2163,-4.1304,-4.3572,-4.5504,-4.6673,-4.8876,-5.1528,-5.473,-5.5008,-5.687,-6.0769,-6.1815,-6.3452,-6.5734,-6.7467,-6.8752,-6.9599,-7.1228,-7.2233,-7.2698,-7.4312,-7.516,-7.5416,-7.6381,-7.6935,-7.7194,-7.8333,-7.9829,-8.157,-8.275,-8.318,-8.3425,-8.5392,-8.6755,-8.7966,2.2609,2.2964,2.3055,2.2348,2.2465,2.2822,2.3116,2.3288,2.346,2.3665,2.399,2.423,2.423,2.2401,2.113,2.113,1.8739,1.702,1.6537,1.449,1.2808,1.1736,0.9802,0.8477,0.7872,0.7643,0.6094,0.2968,0.0595,-0.106,-0.1843,-0.2573,-0.39,-0.5945,-0.736,-0.9734,-1.2706,-1.3426,-1.4738,-1.6537,-1.7387,-1.7684,-1.7732,-1.8143,-1.8469,-1.8722,-1.8843,-2.0068,-2.1679,-2.1853,-2.2352,-2.3106,-2.461,-2.5349,-2.5594,-2.5594,-2.5839,-2.5961,-2.5961,-2.6164,-2.6388,-2.6011,-2.5863,-2.5761,-2.5922,-2.6445,-2.7206,-2.8064,-2.9647,-3.1169,-3.262,-3.371,-3.429,-3.4139,-3.4865,-3.5748,-3.6449,-3.769,-3.8922,-4.0128,-4.1701,-4.2669,-4.2595,-4.3825,-4.4911,-4.6083,-4.8606,-5.1528,-5.4663,-5.4976,-5.6963,-6.0956,-6.1574,-6.3242,-6.6407,-6.7809,-6.9275,-7.0945,-7.2609,-7.3627,-7.3993,-7.5422,-7.6061,-7.6254,-7.6846,-7.7474,-7.8075,-7.9596,-8.1057,-8.2505,-8.3032,-8.344,-8.402,-8.5541,-8.6944,-8.8346,2.3885,2.417,2.4135,2.3447,2.3373,2.3432,2.3548,2.3614,2.3734,2.3922,2.3922,2.3905,2.3905,2.2292,2.113,2.113,1.8622,1.6903,1.6537,1.3775,1.2097,1.1736,0.9201,0.7872,0.7872,0.7899,0.6241,0.3003,-0.0361,-0.1913,-0.1877,-0.3224,-0.4821,-0.6404,-0.8793,-1.0664,-1.2234,-1.3306,-1.4619,-1.6065,-1.7398,-1.7913,-1.8022,-1.8565,-1.8927,-1.9169,-1.9289,-2.0771,-2.2794,-2.2438,-2.2567,-2.3083,-2.4719,-2.5167,-2.5103,-2.5103,-2.5103,-2.5103,-2.5103,-2.5384,-2.5555,-2.5109,-2.5127,-2.5218,-2.5247,-2.6202,-2.7394,-2.8668,-3.037,-3.2148,-3.3682,-3.4378,-3.4854,-3.5621,-3.5962,-3.6494,-3.756,-3.8383,-3.9455,-4.1106,-4.1982,-4.2874,-4.408,-4.4427,-4.5177,-4.6367,-4.8661,-5.1439,-5.4473,-5.5189,-5.7212,-6.0988,-6.1306,-6.3138,-6.6709,-6.8036,-6.9687,-7.1723,-7.3784,-7.4849,-7.5218,-7.6148,-7.6818,-7.7121,-7.7348,-7.8123,-7.9338,-8.0899,-8.214,-8.318,-8.318,-8.3722,-8.4599,-8.5653,-8.7208,-8.8885,2.4007,2.4029,2.3757,2.2738,2.2835,2.3082,2.3135,2.3443,2.3922,2.4624,2.471,2.471,2.471,2.2589,2.113,2.113,1.8622,1.6903,1.6537,1.3775,1.2097,1.1736,0.9201,0.7872,0.7872,0.7899,0.6241,0.3003,-0.0361,-0.1902,-0.1846,-0.3208,-0.5207,-0.7718,-0.9201,-1.114,-1.3545,-1.3665,-1.5095,-1.7385,-1.7768,-1.8022,-1.8312,-1.8843,-1.9205,-1.9495,-1.9989,-2.0994,-2.2097,-2.2979,-2.4157,-2.5329,-2.5454,-2.5373,-2.5103,-2.5103,-2.5103,-2.5103,-2.5103,-2.5562,-2.5852,-2.5159,-2.4961,-2.5094,-2.5315,-2.6417,-2.7936,-2.9133,-3.1657,-3.3704,-3.436,-3.5758,-3.6851,-3.6832,-3.7801,-3.8671,-3.9389,-3.9937,-4.0804,-4.225,-4.2891,-4.3759,-4.4781,-4.5367,-4.679,-4.9208,-4.9251,-5.0921,-5.4792,-5.609,-5.8085,-6.0988,-6.216,-6.3486,-6.5237,-6.8117,-6.9799,-7.0213,-7.3506,-7.5182,-7.5415,-7.6344,-7.7304,-7.819,-7.8353,-7.951,-8.1255,-8.1403,-8.214,-8.318,-8.318,-8.3781,-8.4679,-8.5711,-8.7259,-8.9053,2.3473,2.3511,2.3615,2.3238,2.3296,2.3444,2.3737,2.3905,2.4196,2.4744,2.4812,2.4812,2.4812,2.262,2.1016,2.0902,1.8273,1.6549,1.6312,1.3536,1.1856,1.1736,0.9201,0.7877,0.7888,0.7905,0.6521,0.3537,-0.0122,-0.1945,-0.1922,-0.4122,-0.6472,-0.9086,-0.9572,-1.1261,-1.3674,-1.3918,-1.5413,-1.7768,-1.836,-1.8662,-1.8843,-1.9531,-1.9857,-2.0136,-2.1182,-2.2141,-2.3215,-2.4295,-2.4922,-2.5267,-2.5502,-2.5548,-2.5389,-2.5167,-2.5103,-2.5103,-2.5103,-2.5189,-2.5133,-2.5069,-2.473,-2.4825,-2.605,-2.7344,-2.8668,-3.0122,-3.2399,-3.4469,-3.5255,-3.6567,-3.7471,-3.7471,-3.85,-3.9285,-3.9404,-4.0305,-4.1359,-4.2435,-4.379,-4.4969,-4.5967,-4.6881,-4.8368,-5.0757,-5.064,-5.2001,-5.5374,-5.6927,-5.896,-6.1483,-6.2867,-6.4421,-6.639,-6.9164,-7.0991,-7.1728,-7.4604,-7.6294,-7.6832,-7.7421,-7.8263,-7.926,-7.9863,-8.0702,-8.1514,-8.2116,-8.2705,-8.318,-8.318,-8.4079,-8.5446,-8.5898,-8.7612,-8.9702,2.3596,2.3836,2.4032,2.3872,2.3817,2.387,2.4184,2.423,2.4367,2.4761,2.4812,2.4812,2.4812,2.262,2.1016,2.0687,1.8156,1.6183,1.5591,1.3177,1.1495,1.1125,0.9079,0.7877,0.7899,0.7158,0.5798,0.3943,-0.0493,-0.2587,-0.2819,-0.5255,-0.7702,-0.9822,-1.0229,-1.1704,-1.3889,-1.4465,-1.6021,-1.8058,-1.8782,-1.912,-1.9265,-2.0002,-2.0327,-2.0549,-2.1833,-2.2996,-2.4074,-2.5158,-2.5604,-2.5489,-2.5707,-2.5643,-2.5437,-2.5183,-2.5103,-2.5135,-2.523,-2.5087,-2.4928,-2.5071,-2.4738,-2.4811,-2.6508,-2.7696,-2.9107,-3.1277,-3.3353,-3.4971,-3.6033,-3.7221,-3.8067,-3.8019,-3.8895,-3.9685,-3.9623,-4.0562,-4.1593,-4.2798,-4.4673,-4.6274,-4.7501,-4.8793,-5.0406,-5.2527,-5.2863,-5.4016,-5.6364,-5.7895,-5.9841,-6.2081,-6.3523,-6.5093,-6.6761,-6.9713,-7.1739,-7.2797,-7.557,-7.7377,-7.8274,-7.8821,-7.9453,-8.0204,-8.1166,-8.1686,-8.1883,-8.2621,-8.3024,-8.3217,-8.344,-8.4525,-8.6026,-8.6308,-8.8027,-9.0198,2.4774,2.5026,2.5121,2.4473,2.4296,2.4275,2.4218,2.423,2.4367,2.4761,2.4812,2.4812,2.4812,2.262,2.1016,2.0687,1.8156,1.5817,1.4262,1.2577,1.1133,0.9923,0.8599,0.7877,0.7899,0.5295,0.394,0.3943,-0.1354,-0.4157,-0.458,-0.6736,-0.8474,-0.9829,-1.144,-1.2865,-1.4221,-1.5669,-1.7145,-1.8336,-1.8867,-1.9229,-1.9519,-2.0074,-2.0436,-2.0804,-2.1897,-2.2996,-2.4074,-2.5158,-2.6019,-2.6613,-2.6247,-2.5675,-2.5119,-2.5103,-2.5103,-2.5183,-2.5532,-2.5628,-2.5548,-2.5199,-2.5103,-2.5359,-2.6304,-2.7498,-2.9354,-3.2809,-3.4431,-3.5571,-3.6652,-3.7838,-3.8597,-3.854,-3.934,-4.0111,-4.0439,-4.0789,-4.1647,-4.3636,-4.5411,-4.7267,-4.9421,-5.1333,-5.3054,-5.4885,-5.6121,-5.7147,-5.824,-5.9154,-6.0668,-6.2825,-6.4243,-6.509,-6.5425,-6.9232,-7.1757,-7.283,-7.6015,-7.8073,-7.9208,-8.0377,-8.0975,-8.1048,-8.2012,-8.2471,-8.2696,-8.2843,-8.3024,-8.3254,-8.4072,-8.5068,-8.6179,-8.7001,-8.8607,-9.0402,2.5119,2.4832,2.4609,2.4361,2.4244,2.426,2.4196,2.447,2.4675,2.4812,2.4812,2.4812,2.4812,2.2394,2.0673,2.043,1.7806,1.5591,1.3904,1.2457,1.1133,0.9802,0.8599,0.7883,0.7905,0.5295,0.2092,-0.1357,-0.3081,-0.479,-0.6472,-0.7521,-0.8694,-0.9985,-1.1619,-1.3065,-1.4328,-1.5919,-1.7508,-1.8867,-1.9671,-2.0182,-2.0453,-2.1084,-2.1283,-2.122,-2.3133,-2.3816,-2.4224,-2.6115,-2.654,-2.6295,-2.6184,-2.5834,-2.5469,-2.5469,-2.5469,-2.5548,-2.5882,-2.5818,-2.5723,-2.6088,-2.6254,-2.6881,-2.8481,-3.0428,-3.2272,-3.3706,-3.4658,-3.5571,-3.6652,-3.7838,-3.8597,-3.8653,-3.9651,-4.0525,-4.0488,-4.1904,-4.3381,-4.4807,-4.757,-4.9852,-5.1391,-5.3481,-5.518,-5.6339,-5.7401,-5.8154,-5.8518,-6.0366,-6.1977,-6.3316,-6.4906,-6.6068,-6.6601,-6.9865,-7.2149,-7.3604,-7.6442,-7.8734,-8.0414,-8.1387,-8.1819,-8.1819,-8.2397,-8.2633,-8.2696,-8.3001,-8.3121,-8.3254,-8.4072,-8.5068,-8.6179,-8.7001,-8.8607,-9.0402,2.5732,2.5509,2.5277,2.4988,2.4945,2.4738,2.4511,2.4658,2.4812,2.4812,2.4812,2.4812,2.4812,2.2281,2.043,2.02,1.7689,1.5235,1.3057,1.2217,1.0891,0.9201,0.8355,0.7883,0.791,0.5298,0.1354,-0.3956,-0.5183,-0.6548,-0.806,-0.8629,-0.9324,-1.0141,-1.2296,-1.3762,-1.4537,-1.6794,-1.8337,-1.9265,-1.9964,-2.0307,-2.0712,-2.1258,-2.122,-2.1346,-2.3529,-2.4074,-2.4224,-2.6383,-2.6724,-2.6168,-2.6311,-2.6025,-2.5643,-2.5643,-2.5643,-2.5739,-2.6215,-2.6184,-2.6136,-2.6565,-2.7173,-2.8184,-3.0204,-3.225,-3.3749,-3.3974,-3.481,-3.5813,-3.7018,-3.7953,-3.8666,-3.916,-4.0105,-4.0795,-4.0893,-4.2721,-4.4415,-4.5528,-4.877,-5.152,-5.2763,-5.5226,-5.7081,-5.8117,-5.9128,-5.9977,-6.028,-6.1542,-6.299,-6.4341,-6.578,-6.6993,-6.7861,-7.0878,-7.3223,-7.4876,-7.7912,-8.0034,-8.1387,-8.1966,-8.2186,-8.2186,-8.2571,-8.2696,-8.2696,-8.3061,-8.3366,-8.3737,-8.4518,-8.5514,-8.6665,-8.7449,-8.8871,-9.044,2.6713,2.7013,2.7013,2.6187,2.5966,2.5743,2.4931,2.4812,2.4812,2.4812,2.4812,2.4812,2.4812,2.204,2.0186,2.0186,1.7689,1.4867,1.1856,1.1736,1.0528,0.7994,0.7872,0.7883,0.791,0.5298,0.1354,-0.3956,-0.7296,-0.8964,-0.9062,-0.9699,-1.0154,-1.0551,-1.3378,-1.4738,-1.5012,-1.7953,-1.9253,-1.9519,-1.9796,-2.0074,-2.0327,-2.0707,-2.0804,-2.1081,-2.3106,-2.3924,-2.421,-2.6501,-2.6708,-2.6199,-2.6533,-2.6184,-2.5643,-2.5691,-2.5707,-2.585,-2.6533,-2.6708,-2.6708,-2.6839,-2.796,-2.9492,-3.1501,-3.2922,-3.377,-3.4086,-3.5141,-3.633,-3.761,-3.816,-3.8965,-4.0218,-4.0477,-4.0769,-4.1679,-4.3196,-4.4783,-4.611,-4.9444,-5.2335,-5.3903,-5.6617,-5.8802,-5.9975,-6.118,-6.2242,-6.2858,-6.2737,-6.3616,-6.5846,-6.6778,-6.7809,-6.9048,-7.232,-7.4765,-7.6623,-8.0037,-8.1751,-8.1995,-8.2157,-8.2223,-8.2325,-8.2608,-8.2696,-8.2758,-8.3136,-8.37,-8.448,-8.5335,-8.6393,-8.7412,-8.8234,-8.9324,-9.0517,2.767,2.7426,2.7021,2.6199,2.6033,2.5775,2.4889,2.4812,2.4812,2.4812,2.4812,2.4812,2.4812,2.204,2.0186,2.0186,1.7443,1.4629,1.1848,1.1736,1.0528,0.7994,0.7872,0.7883,0.791,0.5298,0.1352,-0.3943,-0.7485,-0.9175,-0.9068,-1.0029,-1.1041,-1.2106,-1.3967,-1.5475,-1.6647,-1.8594,-1.9531,-1.9808,-2.0343,-2.0749,-2.0983,-2.1471,-2.1358,-2.1346,-2.3529,-2.4224,-2.4181,-2.6222,-2.6501,-2.6152,-2.6247,-2.5977,-2.5739,-2.6279,-2.6438,-2.6517,-2.6962,-2.7073,-2.7338,-2.836,-3.0191,-3.2007,-3.3105,-3.377,-3.4175,-3.406,-3.4911,-3.596,-3.7496,-3.8315,-3.8972,-3.9975,-4.0318,-4.0898,-4.2471,-4.4109,-4.6273,-4.9023,-5.1798,-5.4292,-5.6647,-5.8288,-5.9683,-6.0697,-6.2077,-6.2904,-6.289,-6.3654,-6.495,-6.6612,-6.7045,-6.8316,-7.0595,-7.2764,-7.5787,-7.9489,-8.0859,-8.2147,-8.3038,-8.248,-8.2582,-8.3226,-8.2829,-8.2758,-8.288,-8.3789,-8.422,-8.4555,-8.6087,-8.6974,-8.7412,-8.8351,-8.9465,-9.0517,2.7673,2.7606,2.7242,2.6199,2.6244,2.5992,2.5,2.4812,2.4812,2.4812,2.4812,2.459,2.3888,2.1813,2.0085,1.9279,1.6985,1.451,1.1848,1.1736,1.0528,0.7994,0.7877,0.7894,0.791,0.6421,0.2583,-0.3937,-0.751,-0.9237,-0.9154,-1.0128,-1.1301,-1.28,-1.4205,-1.5744,-1.7293,-1.8876,-1.97,-2.0074,-2.049,-2.0698,-2.0943,-2.122,-2.1484,-2.1897,-2.3679,-2.436,-2.4858,-2.6448,-2.6676,-2.6422,-2.6581,-2.639,-2.6215,-2.6756,-2.6803,-2.6756,-2.7105,-2.72,-2.7716,-2.9657,-3.1518,-3.3109,-3.4351,-3.4519,-3.4482,-3.4906,-3.5402,-3.6205,-3.7534,-3.8208,-3.8832,-3.9843,-4.0463,-4.1386,-4.2866,-4.5064,-4.739,-4.993,-5.2718,-5.5389,-5.7757,-5.9234,-6.0599,-6.188,-6.294,-6.3576,-6.3779,-6.4655,-6.5757,-6.7024,-6.748,-6.9252,-7.2371,-7.5189,-7.8099,-8.0959,-8.1396,-8.2038,-8.2847,-8.2406,-8.2537,-8.3033,-8.2818,-8.2819,-8.2941,-8.3975,-8.4629,-8.5075,-8.652,-8.7407,-8.7935,-8.8558,-8.9465,-9.0555,2.7357,2.7614,2.7458,2.6263,2.6371,2.6273,2.4965,2.4812,2.4812,2.4812,2.4812,2.4239,2.2717,2.1472,1.9984,1.8131,1.6644,1.4629,1.1848,1.1736,1.0528,0.7994,0.7888,0.7654,0.7286,0.6931,0.3209,-0.3951,-0.7536,-0.9305,-0.9282,-1.0194,-1.1504,-1.321,-1.439,-1.5924,-1.7697,-1.897,-1.9796,-2.0231,-2.0303,-2.0472,-2.0665,-2.0665,-2.1358,-2.2448,-2.3529,-2.4617,-2.5697,-2.6737,-2.6914,-2.6724,-2.7026,-2.6914,-2.674,-2.7089,-2.6994,-2.6819,-2.7121,-2.7467,-2.8362,-3.0678,-3.2207,-3.3554,-3.536,-3.5061,-3.4748,-3.5914,-3.6185,-3.6475,-3.7676,-3.8224,-3.8851,-3.9928,-4.0906,-4.2054,-4.3489,-4.5907,-4.8297,-5.0329,-5.3248,-5.5914,-5.8235,-5.9705,-6.133,-6.3036,-6.3611,-6.4081,-6.4702,-6.5525,-6.6368,-6.7368,-6.8093,-7.0277,-7.4229,-7.8025,-8.0506,-8.1579,-8.1647,-8.1892,-8.237,-8.226,-8.2426,-8.2839,-8.2744,-8.293,-8.3372,-8.4235,-8.5038,-8.5855,-8.6952,-8.778,-8.8533,-8.8708,-8.9591,-9.0784,2.7357,2.7614,2.7458,2.6263,2.6371,2.6273,2.4965,2.4812,2.4812,2.4812,2.4812,2.4351,2.3087,2.1601,2.0113,1.8493,1.7114,1.4976,1.1848,1.1736,1.0528,0.7994,0.7888,0.678,0.4555,0.2342,-0.062,-0.4264,-0.7653,-0.9319,-0.9429,-1.0353,-1.2003,-1.452,-1.4782,-1.6364,-1.8911,-1.9496,-1.9869,-1.9989,-2.0436,-2.0629,-2.0665,-2.0665,-2.1358,-2.2448,-2.3529,-2.4617,-2.5651,-2.6456,-2.6724,-2.6676,-2.674,-2.6724,-2.674,-2.7089,-2.7169,-2.7137,-2.7185,-2.8871,-3.0807,-3.1194,-3.3194,-3.5088,-3.5565,-3.5295,-3.5134,-3.5981,-3.6226,-3.6616,-3.7715,-3.855,-3.9393,-4.0281,-4.1301,-4.2808,-4.5403,-4.6854,-4.9121,-5.2893,-5.4526,-5.6388,-5.9114,-6.0116,-6.133,-6.3036,-6.3611,-6.4081,-6.4702,-6.6022,-6.7168,-6.8171,-6.8539,-7.096,-7.5846,-7.871,-8.0644,-8.1579,-8.1751,-8.2318,-8.3214,-8.2517,-8.3116,-8.4589,-8.3287,-8.3658,-8.5223,-8.5372,-8.5892,-8.6733,-8.7832,-8.8324,-8.8533,-8.8879,-8.9982,-9.1548,2.7357,2.7821,2.7842,2.6302,2.6559,2.6532,2.5,2.4812,2.4812,2.4812,2.4812,2.4016,2.1941,2.1259,1.9984,1.7584,1.7009,1.5451,1.2217,1.1976,1.077,0.7994,0.7888,0.5937,0.1867,0.0624,-0.1384,-0.4334,-0.7384,-0.9163,-0.9459,-1.0122,-1.2033,-1.4912,-1.4912,-1.6608,-1.9531,-1.9784,-2.005,-2.0327,-2.0569,-2.0665,-2.0665,-2.0665,-2.176,-2.3243,-2.3665,-2.5022,-2.6501,-2.6877,-2.6962,-2.6962,-2.6962,-2.6962,-2.6994,-2.7153,-2.72,-2.7334,-2.8114,-2.977,-3.1433,-3.2218,-3.4007,-3.5746,-3.6025,-3.5648,-3.5635,-3.677,-3.6584,-3.6673,-3.7773,-3.8572,-3.9096,-3.9554,-4.1234,-4.3125,-4.5062,-4.7424,-5.0029,-5.3122,-5.5363,-5.7413,-5.943,-6.0689,-6.1937,-6.342,-6.38,-6.4268,-6.5033,-6.639,-6.748,-6.8339,-7.1199,-7.3865,-7.6197,-7.9323,-8.1081,-8.1579,-8.1818,-8.2172,-8.2737,-8.2398,-8.2849,-8.3804,-8.3596,-8.3978,-8.5,-8.5892,-8.6486,-8.6957,-8.8078,-8.8495,-8.8495,-8.8879,-9.0108,-9.1701,2.7262,2.7708,2.7663,2.6218,2.6529,2.6426,2.5017,2.4812,2.4812,2.4812,2.459,2.344,2.1031,2.0673,1.955,1.6973,1.6984,1.5688,1.2587,1.2344,1.0966,0.7994,0.7915,0.5364,0.0127,-0.1268,-0.2809,-0.4268,-0.7336,-0.8972,-0.9508,-0.9877,-1.1769,-1.4912,-1.4772,-1.6692,-1.9796,-1.9857,-2.0158,-2.0581,-2.0641,-2.0665,-2.0665,-2.0943,-2.2297,-2.3924,-2.421,-2.5577,-2.72,-2.72,-2.72,-2.72,-2.72,-2.72,-2.72,-2.72,-2.7467,-2.7981,-2.902,-3.029,-3.1707,-3.3126,-3.4777,-3.6013,-3.6274,-3.5853,-3.5911,-3.7269,-3.6874,-3.6688,-3.7761,-3.8421,-3.897,-3.9407,-4.1565,-4.3742,-4.5163,-4.8345,-5.1214,-5.3183,-5.6076,-5.835,-5.971,-6.1294,-6.2678,-6.38,-6.3988,-6.4551,-6.5568,-6.6801,-6.8059,-6.9256,-7.3802,-7.6303,-7.6559,-7.9828,-8.1478,-8.1647,-8.1885,-8.2055,-8.2186,-8.2343,-8.2692,-8.3287,-8.3843,-8.4545,-8.5335,-8.6375,-8.6932,-8.7217,-8.8153,-8.8533,-8.8592,-8.8879,-9.0108,-9.1701,2.7262,2.7033,2.6584,2.6058,2.5798,2.5379,2.4872,2.4812,2.4812,2.4812,2.3792,2.262,2.1244,2.0113,1.8855,1.7469,1.7373,1.6122,1.2966,1.2724,1.1208,0.8,0.7878,0.5456,0.0129,-0.529,-0.6752,-0.4327,-0.7626,-0.9407,-0.9649,-0.9655,-1.1637,-1.4912,-1.4633,-1.6326,-1.9519,-1.9772,-2.005,-2.0327,-2.0569,-2.0665,-2.0804,-2.176,-2.2859,-2.4074,-2.5158,-2.6249,-2.72,-2.72,-2.72,-2.72,-2.72,-2.72,-2.72,-2.72,-2.8114,-2.9151,-2.9265,-3.029,-3.1707,-3.3485,-3.4901,-3.5928,-3.611,-3.5854,-3.5823,-3.6837,-3.6645,-3.6688,-3.7761,-3.8421,-3.9407,-4.1106,-4.3084,-4.5191,-4.7606,-5.0164,-5.2577,-5.4613,-5.6787,-5.8763,-6.0365,-6.1873,-6.3068,-6.38,-6.4393,-6.518,-6.6329,-6.7602,-6.9514,-7.1999,-7.4753,-7.663,-7.746,-8.0226,-8.1683,-8.1885,-8.2055,-8.2186,-8.2186,-8.2343,-8.3281,-8.4875,-8.4324,-8.5547,-8.775,-8.7081,-8.739,-8.8219,-8.8436,-8.8592,-8.8803,-8.8936,-9.0108,-9.1701,2.7614,2.7319,2.6937,2.6541,2.6129,2.5611,2.4906,2.4812,2.4812,2.4812,2.3776,2.2507,2.1244,1.9998,1.8855,1.7853,1.6771,1.5278,1.3251,1.2004,1.0447,0.8106,0.6366,0.5279,0.4844,-0.3922,-0.8055,-0.6938,-0.8275,-0.8961,-0.9389,-0.9389,-1.1226,-1.4633,-1.4493,-1.6398,-1.9736,-1.9845,-2.0134,-2.0533,-2.0629,-2.0665,-2.0804,-2.1897,-2.2996,-2.4088,-2.5158,-2.6249,-2.72,-2.72,-2.7343,-2.7534,-2.7534,-2.7534,-2.7486,-2.7264,-2.8246,-2.9474,-2.9988,-3.1064,-3.2594,-3.4227,-3.5227,-3.5897,-3.651,-3.6522,-3.6467,-3.7291,-3.7049,-3.712,-3.808,-3.8526,-3.9511,-4.1543,-4.3409,-4.5524,-4.875,-5.113,-5.3401,-5.5633,-5.7757,-5.9425,-6.049,-6.207,-6.326,-6.3894,-6.4817,-6.5765,-6.6699,-6.8808,-7.094,-7.3037,-7.5686,-7.7284,-7.7646,-8.0226,-8.1683,-8.1885,-8.2121,-8.2545,-8.3153,-8.3245,-8.4062,-8.5323,-8.5596,-8.6351,-8.7304,-8.7527,-8.791,-8.8293,-8.8473,-8.865,-8.8803,-8.8936,-9.0108,-9.1701,2.7431,2.7162,2.6782,2.6386,2.5937,2.5459,2.4923,2.4812,2.4812,2.4812,2.3424,2.2223,2.1291,1.9883,1.8784,1.8228,1.6508,1.4988,1.368,1.1404,0.9478,0.8183,0.5444,0.4441,0.5447,-0.2914,-0.7744,-0.8628,-0.8611,-0.8734,-0.9117,-0.9157,-1.1031,-1.4463,-1.4454,-1.6552,-2.0002,-1.9917,-2.0195,-2.0665,-2.0665,-2.0665,-2.0804,-2.231,-2.327,-2.4102,-2.5682,-2.6687,-2.7391,-2.7486,-2.7693,-2.7884,-2.7884,-2.782,-2.7709,-2.7566,-2.8677,-3.0072,-3.0556,-3.2076,-3.3841,-3.5098,-3.5707,-3.6196,-3.6578,-3.667,-3.6882,-3.7244,-3.7176,-3.7358,-3.821,-3.9044,-4.0284,-4.2356,-4.4327,-4.6668,-4.9831,-5.2012,-5.4196,-5.6531,-5.8448,-5.9996,-6.0902,-6.249,-6.3548,-6.3894,-6.5264,-6.6535,-6.7668,-6.9961,-7.1883,-7.3443,-7.6188,-7.7752,-7.808,-8.0515,-8.1818,-8.1989,-8.2121,-8.261,-8.3291,-8.3741,-8.4484,-8.5423,-8.6388,-8.6969,-8.7267,-8.7886,-8.8232,-8.8414,-8.8533,-8.8708,-8.8879,-8.8936,-8.9957,-9.1357,2.6724,2.6256,2.5852,2.545,2.5103,2.4812,2.4812,2.4812,2.4812,2.483,2.2835,2.1511,2.1525,1.9559,1.8396,1.8662,1.7152,1.5583,1.4474,1.1087,0.8811,0.8196,0.5402,0.265,-0.0,-0.2819,-0.5778,-0.8628,-0.86,-0.8717,-0.9117,-0.925,-1.1326,-1.4806,-1.4672,-1.6789,-2.0255,-2.0002,-2.0195,-2.0665,-2.0665,-2.0665,-2.0943,-2.3133,-2.3952,-2.4266,-2.6784,-2.7725,-2.7788,-2.8106,-2.8217,-2.8233,-2.8233,-2.8011,-2.7804,-2.8122,-2.9713,-3.1231,-3.0935,-3.3085,-3.536,-3.5579,-3.6303,-3.6794,-3.6195,-3.6418,-3.6702,-3.6374,-3.6712,-3.7358,-3.821,-4.0049,-4.1902,-4.383,-4.6349,-4.8885,-5.1296,-5.3031,-5.4927,-5.75,-5.8825,-6.0183,-6.1891,-6.3132,-6.3894,-6.3894,-6.5542,-6.7364,-6.941,-7.1127,-7.2422,-7.3477,-7.6188,-7.808,-7.8983,-8.0911,-8.1952,-8.2186,-8.2186,-8.2251,-8.2444,-8.3482,-8.4484,-8.5485,-8.6425,-8.7304,-8.8084,-8.8232,-8.8414,-8.8533,-8.8708,-8.8879,-8.8992,-8.8992,-8.9616,-9.0631,2.7182,2.6801,2.6386,2.5955,2.5278,2.4812,2.4812,2.4812,2.4479,2.3664,2.236,2.116,2.0351,1.9076,1.8396,1.8662,1.6245,1.3646,1.1226,1.0054,0.925,0.8568,0.5741,0.2809,-0.0,-0.2819,-0.5778,-0.8628,-0.86,-0.859,-0.8717,-0.9024,-1.108,-1.4388,-1.4663,-1.6789,-2.0267,-2.0195,-2.0352,-2.0665,-2.0665,-2.0665,-2.0943,-2.3133,-2.4078,-2.4687,-2.6861,-2.7884,-2.809,-2.8186,-2.8392,-2.8599,-2.8599,-2.8535,-2.8702,-2.9506,-3.0898,-3.2337,-3.3219,-3.5041,-3.6343,-3.5703,-3.5951,-3.6556,-3.6937,-3.7233,-3.7451,-3.7267,-3.7613,-3.8331,-3.9145,-4.0717,-4.2673,-4.5221,-4.7447,-4.996,-5.2903,-5.4552,-5.6244,-5.8468,-5.9669,-6.0913,-6.2418,-6.3357,-6.4114,-6.4393,-6.6552,-6.8818,-7.0917,-7.2355,-7.3477,-7.4534,-7.7209,-7.8771,-7.9222,-8.1018,-8.1952,-8.2186,-8.2186,-8.2904,-8.4294,-8.4616,-8.5694,-8.7316,-8.7601,-8.7861,-8.8084,-8.8232,-8.8414,-8.8533,-8.8708,-8.8879,-8.8992,-8.8992,-8.9616,-9.0555,2.7396,2.6798,2.6254,2.57,2.5128,2.4812,2.4812,2.4812,2.4401,2.3278,2.2311,2.127,2.008,1.9161,1.8674,1.8819,1.6126,1.3076,1.0319,0.9436,0.88,0.8407,0.5719,0.2989,-0.0,-0.2836,-0.5676,-0.8628,-0.8649,-0.866,-0.866,-0.9832,-1.1811,-1.4476,-1.5576,-1.7695,-2.0424,-2.0327,-2.0424,-2.0665,-2.0665,-2.0665,-2.0955,-2.3255,-2.4232,-2.4844,-2.72,-2.8265,-2.8456,-2.8599,-2.8789,-2.898,-2.898,-2.9292,-2.9847,-3.0598,-3.2115,-3.3671,-3.4724,-3.6098,-3.7015,-3.6427,-3.6503,-3.6741,-3.709,-3.7574,-3.7953,-3.7563,-3.8067,-3.9022,-4.0084,-4.1828,-4.4037,-4.6851,-4.9104,-5.1491,-5.4328,-5.556,-5.7052,-5.9477,-6.0235,-6.1231,-6.281,-6.3548,-6.4528,-6.5857,-6.7478,-6.9401,-7.1707,-7.2886,-7.4058,-7.5412,-7.7776,-7.9222,-7.9804,-8.123,-8.2055,-8.2186,-8.2251,-8.3107,-8.4653,-8.5012,-8.609,-8.7601,-8.7935,-8.8084,-8.8084,-8.8293,-8.8414,-8.8533,-8.8766,-8.8936,-8.9047,-8.9227,-8.9725,-9.0558,2.7525,2.6673,2.5685,2.4965,2.4812,2.4812,2.4812,2.4847,2.4407,2.3336,2.2526,2.1534,2.0465,1.9663,1.9072,1.8944,1.6343,1.3613,1.0871,0.9244,0.8224,0.7825,0.5848,0.3328,0.0135,-0.2866,-0.5733,-0.8644,-0.8731,-0.8769,-0.8911,-1.1199,-1.3284,-1.4831,-1.7062,-1.9014,-2.0653,-2.0412,-2.0448,-2.0665,-2.0665,-2.0804,-2.1106,-2.3583,-2.4552,-2.5068,-2.7819,-2.8789,-2.8869,-2.9186,-2.9298,-2.9298,-2.9298,-3.0036,-3.1202,-3.1546,-3.3193,-3.5028,-3.5661,-3.6515,-3.7207,-3.7493,-3.744,-3.7265,-3.6969,-3.7663,-3.8275,-3.7422,-3.8295,-3.9783,-4.1182,-4.3322,-4.5851,-4.8524,-5.0867,-5.3218,-5.5705,-5.6366,-5.7654,-6.0235,-6.0715,-6.1491,-6.31,-6.377,-6.5232,-6.7754,-6.8316,-6.9592,-7.1993,-7.3012,-7.4423,-7.6262,-7.8107,-7.9536,-8.0623,-8.1647,-8.2186,-8.2186,-8.2417,-8.3024,-8.4025,-8.5064,-8.6029,-8.6969,-8.775,-8.8084,-8.8146,-8.8414,-8.8495,-8.8495,-8.8879,-8.8992,-8.9047,-8.9516,-9.0007,-9.06,2.7584,2.6686,2.5882,2.5221,2.4923,2.4923,2.5128,2.5164,2.4464,2.221,2.2125,2.153,1.9287,1.9042,1.8688,1.7507,1.4903,1.2616,1.1028,1.0399,0.9092,0.6953,0.8354,0.6371,0.0139,-0.306,-0.5953,-0.8633,-0.8769,-0.8769,-0.8769,-1.0587,-1.2513,-1.4831,-1.6511,-1.86,-2.0665,-2.0605,-2.0617,-2.0665,-2.0665,-2.122,-2.2199,-2.3859,-2.525,-2.6364,-2.8193,-2.8948,-2.9202,-2.9266,-2.9298,-2.9298,-2.9298,-3.0201,-3.1668,-3.2856,-3.4421,-3.6068,-3.7951,-3.8037,-3.7783,-3.8304,-3.7942,-3.7473,-3.7865,-3.8241,-3.8482,-3.8648,-3.9527,-4.0616,-4.2031,-4.4694,-4.7392,-4.9294,-5.2122,-5.4496,-5.5857,-5.7289,-5.89,-6.0459,-6.1649,-6.2714,-6.3705,-6.5101,-6.6527,-6.7911,-6.8784,-7.0272,-7.2767,-7.3501,-7.4877,-7.732,-7.8588,-7.9727,-8.084,-8.1715,-8.2186,-8.2186,-8.3043,-8.3871,-8.4875,-8.5879,-8.6882,-8.7824,-8.801,-8.8084,-8.8146,-8.8414,-8.8495,-8.8495,-8.8879,-8.8992,-8.9047,-8.9516,-9.0007,-9.0681,2.8381,2.7106,2.5771,2.5441,2.5238,2.5017,2.5221,2.519,2.43,2.1936,2.202,2.138,1.9096,1.9,1.8337,1.6216,1.4121,1.235,1.1173,1.0022,0.8836,0.7336,0.6884,0.4901,0.1144,-0.271,-0.6078,-0.8899,-0.8932,-0.8943,-0.8943,-1.1351,-1.3269,-1.4973,-1.7225,-1.9127,-2.0665,-2.0665,-2.0665,-2.0665,-2.0665,-2.1433,-2.2684,-2.4219,-2.5649,-2.6959,-2.8459,-2.9139,-2.9329,-2.9488,-2.9441,-2.9298,-2.9298,-3.0818,-3.2752,-3.343,-3.5256,-3.7287,-3.854,-3.8359,-3.7911,-3.8304,-3.792,-3.7616,-3.8096,-3.863,-3.8989,-3.9368,-4.0587,-4.2189,-4.3914,-4.6401,-4.8865,-5.1193,-5.3655,-5.5698,-5.6798,-5.8408,-5.9904,-6.0989,-6.2063,-6.3164,-6.4207,-6.5692,-6.7089,-6.8092,-6.9132,-7.0556,-7.2683,-7.3525,-7.5097,-7.7649,-7.8806,-8.0032,-8.1474,-8.1952,-8.2251,-8.2316,-8.3318,-8.4257,-8.5133,-8.6201,-8.7205,-8.8084,-8.8084,-8.8146,-8.8171,-8.8414,-8.8592,-8.865,-8.8879,-8.8992,-8.9064,-8.9773,-9.0488,-9.1264,2.91,2.7257,2.5679,2.5789,2.5459,2.5238,2.5308,2.5121,2.4251,2.223,2.1944,2.1202,1.9267,1.8723,1.7521,1.5319,1.3637,1.2255,1.1331,0.9642,0.8434,0.7874,0.4204,0.2337,0.2337,-0.233,-0.6191,-0.931,-0.9101,-0.9133,-0.9133,-1.2201,-1.4115,-1.4982,-1.783,-1.968,-2.0527,-2.0527,-2.0527,-2.0678,-2.0992,-2.1837,-2.3187,-2.4792,-2.6222,-2.7514,-2.8947,-2.9425,-2.952,-2.9806,-2.9679,-2.9377,-2.9665,-3.1559,-3.3688,-3.3909,-3.5975,-3.8096,-3.8399,-3.8061,-3.774,-3.808,-3.7745,-3.7616,-3.8335,-3.8953,-3.9499,-4.0021,-4.1792,-4.3851,-4.5818,-4.7987,-5.0327,-5.3242,-5.511,-5.6616,-5.8054,-5.9439,-6.0633,-6.152,-6.2383,-6.3452,-6.4702,-6.622,-6.7435,-6.8305,-6.9413,-7.0737,-7.2587,-7.3447,-7.5223,-7.7956,-7.8903,-8.0292,-8.2186,-8.2186,-8.2251,-8.2407,-8.3593,-8.4469,-8.5197,-8.6326,-8.7267,-8.8084,-8.8084,-8.8208,-8.8293,-8.8436,-8.8592,-8.8803,-8.8936,-8.8992,-8.9119,-9.0053,-9.1052,-9.1888,2.8047,2.6735,2.5789,2.6026,2.5569,2.5453,2.6046,2.5631,2.4614,2.2674,2.2384,2.1547,1.9291,1.7032,1.5433,1.5063,1.2814,1.1469,1.1348,1.0999,0.9341,0.6228,0.3639,0.2337,0.2337,-0.233,-0.6221,-0.9297,-0.9139,-0.9133,-0.9133,-1.1678,-1.3161,-1.414,-1.6583,-1.8422,-1.968,-1.968,-2.0098,-2.0828,-2.2027,-2.326,-2.4456,-2.6164,-2.7565,-2.8711,-2.952,-2.9933,-3.0187,-3.0235,-3.0029,-2.9888,-3.1304,-3.2614,-3.3927,-3.4816,-3.623,-3.7618,-3.789,-3.7571,-3.7335,-3.7993,-3.7745,-3.7736,-3.893,-3.919,-3.9616,-4.0837,-4.2861,-4.4895,-4.6506,-4.9258,-5.2104,-5.4547,-5.5973,-5.7416,-5.896,-6.002,-6.0833,-6.152,-6.2841,-6.4175,-6.5213,-6.6832,-6.7969,-6.8339,-6.9883,-7.1604,-7.3583,-7.4026,-7.576,-7.9045,-7.9458,-8.0476,-8.2186,-8.2186,-8.2251,-8.2407,-8.4147,-8.5086,-8.5386,-8.6388,-8.7267,-8.8084,-8.8084,-8.8208,-8.8293,-8.8436,-8.8592,-8.8803,-8.8936,-8.8992,-8.9119,-9.0053,-9.1052,-9.1888,2.8457,2.7011,2.6026,2.6354,2.5898,2.5622,2.5927,2.4981,2.3789,2.2377,2.1732,2.0859,1.9291,1.6661,1.5119,1.5231,1.2842,1.1355,1.1511,1.1502,0.9792,0.5956,0.2786,-0.0588,-0.4085,-0.4514,-0.6242,-0.9264,-0.9242,-0.9231,-0.9231,-1.1646,-1.3097,-1.4006,-1.6301,-1.8142,-1.9529,-1.9529,-1.9959,-2.0828,-2.2205,-2.3534,-2.4974,-2.6565,-2.7983,-2.9457,-3.0156,-3.0362,-3.0346,-3.0553,-3.0267,-3.0114,-3.1515,-3.2932,-3.4297,-3.5645,-3.6958,-3.7909,-3.8101,-3.7678,-3.7185,-3.7645,-3.7791,-3.8096,-3.9072,-3.9544,-4.0455,-4.2787,-4.448,-4.6434,-4.8931,-5.147,-5.3759,-5.5496,-5.71,-5.8491,-5.9512,-6.0493,-6.154,-6.2712,-6.3516,-6.4431,-6.5898,-6.7345,-6.8416,-6.8942,-7.0344,-7.1751,-7.3198,-7.3945,-7.5673,-7.8548,-7.9394,-8.0476,-8.2186,-8.2251,-8.2444,-8.2571,-8.3903,-8.4842,-8.5423,-8.687,-8.775,-8.8084,-8.8208,-8.8293,-8.8414,-8.8592,-8.8766,-8.8879,-8.8992,-8.9295,-8.9821,-9.0279,-9.1048,-9.1888]},{"header":{"parameterUnit":"m.s-1","parameterCategory":1,"la1":30.6,"la2":28.766,"lo1":-90.7593,"lo2":-88.6598,"dy":0.0162,"dx":0.0183,"nx":116,"ny":114,"refTime":"2024-03-24T06:00:00:Z","depth":0,"parameterNumber":3,"parameterNumberName":"V-component_of_WINDS"},"data":[0.0,0.0,0.0,0.0,0.0,0.0,0.0,0.0,0.0,0.0,0.0,0.0,0.0,0.0,0.0,0.0,0.0,0.0,0.0,0.0,0.0,0.0,0.0,0.0,0.0,0.0,0.0,0.0,0.0,0.0,0.0,0.0,0.0,0.0,0.0,0.0,0.0,0.0,0.0,0.0,0.0,0.0,0.0,0.0,0.0,0.0,0.0,0.0,0.0,0.0,0.0,0.0,0.0,0.0,0.0,0.0,0.0,0.0,0.0,0.0,0.0,0.0,0.0,0.0,0.0,0.0,0.0,0.0,0.0,0.0,0.0,0.0,0.0,0.0,0.0,0.0,0.0,0.0,0.0,0.0,0.0,0.0,0.0,0.0,0.0,0.0,0.0,0.0,0.0,0.0,0.0,0.0,0.0,0.0,0.0,0.0,0.0,0.0,0.0,0.0,0.0,0.0,0.0,0.0,0.0,0.0,0.0,0.0,0.0,0.0,0.0,0.0,0.0,0.0,0.0,0.0,0.0,0.0,0.0,0.0,0.0,0.0,0.0,0.0,0.0,0.0,0.0,0.0,0.0,0.0,0.0,0.0,0.0,0.0,0.0,0.0,0.0,0.0,0.0,0.0,0.0,0.0,0.0,0.0,0.0,0.0,0.0,0.0,0.0,0.0,0.0,0.0,0.0,0.0,0.0,0.0,0.0,0.0,0.0,0.0,0.0,0.0,0.0,0.0,0.0,0.0,0.0,0.0,0.0,0.0,0.0,0.0,0.0,0.0,0.0,0.0,0.0,0.0,0.0,0.0,0.0,0.0,0.0,0.0,0.0,0.0,0.0,0.0,0.0,0.0,0.0,0.0,0.0,0.0,0.0,0.0,0.0,0.0,0.0,0.0,0.0,0.0,0.0,0.0,0.0,0.0,0.0,0.0,0.0,0.0,0.0,0.0,0.0,0.0,0.0,0.0,0.0,0.0,0.0,0.0,0.0,0.0,0.0,0.0,0.0,0.0,0.0,0.0,0.0,0.0,0.0,0.0,0.0,0.0,0.0,0.0,0.0,0.0,0.0,0.0,0.0,0.0,0.0,0.0,0.0,0.0,0.0,0.0,0.0,0.0,0.0,0.0,0.0,0.0,0.0,0.0,0.0,0.0,0.0,0.0,0.0,0.0,0.0,0.0,0.0,0.0,0.0,0.0,0.0,0.0,0.0,0.0,0.0,0.0,0.0,0.0,0.0,0.0,0.0,0.0,0.0,0.0,0.0,0.0,0.0,0.0,0.0,0.0,0.0,0.0,0.0,0.0,0.0,0.0,0.0,0.0,0.0,0.0,0.0,0.0,0.0,0.0,0.0,0.0,0.0,0.0,0.0,0.0,0.0,0.0,0.0,0.0,0.0,0.0,0.0,0.0,0.0,0.0,0.0,0.0,0.0,0.0,0.0,0.0,0.0,0.0,0.0,0.0,0.0,0.0,0.0,0.0,0.0,0.0,0.0,0.0,0.0,0.0,0.0,0.0,0.0,0.0,0.0,0.0,0.0,0.0,0.0,0.0,0.0,0.0,0.0,0.0,0.0,0.0,0.0,0.0,0.0,0.0,0.0,0.0,0.0,0.0,0.0,0.0,0.0,0.0,0.0,0.0,0.0,0.0,0.0,0.0,0.0,0.0,0.0,0.0,0.0,0.0,0.0,0.0,0.0,0.0,0.0,0.0,0.0,0.0,0.0,0.0,0.0,0.0,0.0,0.0,0.0,0.0,0.0,0.0,0.0,0.0,0.0,0.0,0.0,0.0,0.0,0.0,0.0,0.0,0.0,0.0,0.0,0.0,0.0,0.0,0.0,0.0,0.0,0.0,0.0,0.0,0.0,0.0,0.0,0.0,0.0,0.0,0.0,0.0,0.0,0.0,0.0,0.0,0.0,0.0,0.0,0.0,0.0,0.0,0.0,0.0,0.0,0.0,0.0,0.0,0.0,0.0,0.0,0.0,0.0,0.0,0.0,0.0,0.0,0.0,0.0,0.0,0.0,0.0,0.0,0.0,0.0,0.0,0.0,0.0,0.0,0.0,0.0,0.0,0.0,0.0,0.0,0.0,0.0,0.0,0.0,0.0,0.0,0.0,0.0,0.0,0.0,0.0,0.0,0.0,0.0,0.0,0.0,0.0,0.0,0.0,0.0,0.0,0.0,0.0,0.0,0.0,0.0,0.0,0.0,0.0,0.0,0.0,0.0,0.0,0.0,0.0,0.0,0.0,0.0,0.0,0.0,0.0,0.0,0.0,0.0,0.0,0.0,0.0,0.0,0.0,0.0,0.0,0.0,0.0,0.0,0.0,0.0,0.0,0.0,0.0,0.0,0.0,0.0,0.0,0.0,0.0,0.0,0.0,0.0,0.0,0.0,0.0,0.0,0.0,0.0,0.0,0.0,0.0,0.0,0.0,0.0,0.0,0.0,0.0,0.0,0.0,0.0,0.0,0.0,0.0,0.0,0.0,0.0,0.0,0.0,0.0,0.0,0.0,0.0,0.0,0.0,0.0,0.0,0.0,0.0,0.0,0.0,0.0,0.0,0.0,0.0,0.0,0.0,0.0,0.0,0.0,0.0,0.0,0.0,0.0,0.0,0.0,0.0,0.0,0.0,0.0,0.0,0.0,0.0,0.0,0.0,0.0,0.0,0.0,0.0,0.0,0.0,0.0,0.0,0.0,0.0,0.0,0.0,0.0,0.0,0.0,0.0,0.0,0.0,0.0,0.0,0.0,0.0,0.0,0.0,0.0,0.0,0.0,0.0,0.0,0.0,0.0,0.0,0.0,0.0,0.0,0.0,0.0,0.0,0.0,0.0,0.0,0.0,0.0,0.0,0.0,0.0,0.0,0.0,0.0,0.0,0.0,0.0,0.0,0.0,0.0,0.0,0.0,0.0,0.0,0.0,0.0,0.0,0.0,0.0,0.0,0.0,0.0,0.0,0.0,0.0,0.0,0.0,0.0,0.0,0.0,0.0,0.0,0.0,0.0,0.0,0.0,0.0,0.0,0.0,0.0,0.0,0.0,0.0,0.0,0.0,0.0,0.0,0.0,0.0,0.0,0.0,0.0,0.0,0.0,0.0,0.0,0.0,0.0,0.0,0.0,0.0,0.0,0.0,0.0,0.0,0.0,0.0,0.0,0.0,0.0,0.0,0.0,0.0,0.0,0.0,0.0,0.0,0.0,0.0,0.0,0.0,0.0,0.0,0.0,0.0,0.0,0.0,0.0,0.0,0.0,0.0,0.0,0.0,0.0,0.0,0.0,0.0,0.0,0.0,0.0,0.0,0.0,0.0,0.0,0.0,0.0,0.0,0.0,0.0,0.0,0.0,0.0,0.0,0.0,0.0,0.0,0.0,0.0,0.0,0.0,0.0,0.0,0.0,0.0,0.0,0.0,0.0,0.0,0.0,0.0,0.0,0.0,0.0,0.0,0.0,0.0,0.0,0.0,0.0,0.0,0.0,0.0,0.0,0.0,0.0,0.0,0.0,0.0,0.0,0.0,0.0,0.0,0.0,0.0,0.0,0.0,0.0,0.0,0.0,0.0,0.0,0.0,0.0,0.0,0.0,0.0,0.0,0.0,0.0,0.0,0.0,0.0,0.0,0.0,0.0,0.0,0.0,0.0,0.0,0.0,0.0,0.0,0.0,0.0,0.0,0.0,0.0,0.0,0.0,0.0,0.0,0.0,0.0,0.0,0.0,0.0,0.0,0.0,0.0,0.0,0.0,0.0,0.0,0.0,0.0,0.0,0.0,0.0,0.0,0.0,0.0,0.0,0.0,0.0,0.0,0.0,0.0,0.0,0.0,0.0,0.0,0.0,0.0,0.0,0.0,0.0,0.0,0.0,0.0,0.0,0.0,0.0,0.0,0.0,0.0,0.0,0.0,0.0,0.0,0.0,0.0,0.0,0.0,0.0,0.0,0.0,0.0,0.0,0.0,0.0,0.0,0.0,0.0,0.0,0.0,0.0,0.0,0.0,0.0,0.0,0.0,0.0,0.0,0.0,0.0,0.0,0.0,0.0,0.0,0.0,0.0,0.0,0.0,0.0,0.0,0.0,0.0,0.0,0.0,0.0,0.0,0.0,0.0,0.0,0.0,0.0,0.0,0.0,0.0,0.0,0.0,0.0,0.0,0.0,0.0,0.0,0.0,0.0,0.0,0.0,0.0,0.0,0.0,0.0,0.0,0.0,0.0,0.0,0.0,0.0,0.0,0.0,0.0,0.0,0.0,0.0,0.0,0.0,0.0,0.0,0.0,0.0,0.0,0.0,0.0,0.0,0.0,0.0,0.0,0.0,0.0,0.0,0.0,0.0,0.0,0.0,0.0,0.0,0.0,0.0,0.0,0.0,0.0,0.0,0.0,0.0,0.0,0.0,0.0,0.0,0.0,0.0,0.0,0.0,0.0,0.0,0.0,0.0,0.0,0.0,0.0,0.0,0.0,0.0,0.0,0.0,0.0,0.0,0.0,0.0,0.0,0.0,0.0,0.0,0.0,0.0,0.0,0.0,0.0,0.0,0.0,0.0,0.0,0.0,0.0,0.0,0.0,0.0,0.0,0.0,0.0,0.0,0.0,0.0,0.0,0.0,0.0,0.0,0.0,0.0,0.0,0.0,0.0,0.0,0.0,0.0,0.0,0.0,0.0,0.0,0.0,0.0,0.0,0.0,0.0,0.0,0.0,0.0,0.0,0.0,0.0,0.0,0.0,0.0,0.0,0.0,0.0,0.0,0.0,0.0,0.0,0.0,0.0,0.0,0.0,0.0,0.0,0.0,0.0,0.0,0.0,0.0,0.0,0.0,0.0,0.0,0.0,0.0,0.0,0.0,0.0,0.0,0.0,0.0,0.0,0.0,0.0,0.0,0.0,0.0,0.0,0.0,0.0,0.0,0.0,0.0,0.0,0.0,0.0,0.0,0.0,0.0,0.0,0.0,0.0,0.0,0.0,0.0,0.0,0.0,0.0,0.0,0.0,0.0,0.0,0.0,0.0,0.0,0.0,0.0,0.0,0.0,0.0,0.0,0.0,0.0,0.0,0.0,0.0,0.0,0.0,0.0,0.0,0.0,0.0,0.0,0.0,0.0,0.0,0.0,0.0,0.0,0.0,0.0,0.0,0.0,0.0,0.0,0.0,0.0,0.0,0.0,0.0,0.0,0.0,0.0,0.0,0.0,0.0,0.0,0.0,0.0,0.0,0.0,0.0,0.0,0.0,0.0,0.0,0.0,0.0,0.0,0.0,0.0,0.0,0.0,0.0,0.0,0.0,0.0,0.0,0.0,0.0,0.0,0.0,0.0,0.0,0.0,0.0,0.0,0.0,0.0,0.0,0.0,0.0,0.0,0.0,0.0,0.0,0.0,0.0,0.0,0.0,0.0,0.0,0.0,0.0,0.0,0.0,0.0,0.0,0.0,0.0,0.0,0.0,0.0,0.0,0.0,0.0,0.0,0.0,0.0,0.0,0.0,0.0,0.0,0.0,0.0,0.0,0.0,0.0,0.0,0.0,0.0,0.0,0.0,0.0,0.0,0.0,0.0,0.0,0.0,0.0,0.0,0.0,0.0,0.0,0.0,0.0,0.0,0.0,0.0,0.0,0.0,0.0,0.0,0.0,0.0,0.0,0.0,0.0,0.0,0.0,0.0,0.0,0.0,0.0,0.0,0.0,0.0,0.0,0.0,0.0,0.0,0.0,0.0,0.0,0.0,0.0,0.0,0.0,0.0,0.0,0.0,0.0,0.0,0.0,0.0,0.0,0.0,0.0,0.0,0.0,0.0,0.0,0.0,0.0,0.0,0.0,0.0,0.0,0.0,0.0,0.0,0.0,0.0,0.0,0.0,0.0,0.0,0.0,0.0,0.0,0.0,0.0,0.0,0.0,0.0,0.0,0.0,0.0,0.0,0.0,0.0,0.0,0.0,0.0,0.0,0.0,0.0,0.0,0.0,0.0,0.0,0.0,0.0,0.0,0.0,0.0,0.0,0.0,0.0,0.0,0.0,0.0,0.0,0.0,0.0,0.0,0.0,0.0,0.0,0.0,0.0,0.0,0.0,0.0,0.0,0.0,0.0,0.0,0.0,0.0,0.0,0.0,0.0,-4.0598,-4.1172,0.0,0.0,0.0,0.0,0.0,0.0,0.0,0.0,0.0,0.0,0.0,0.0,0.0,0.0,0.0,0.0,0.0,0.0,0.0,0.0,0.0,0.0,0.0,-2.1482,-2.0834,-2.0792,-2.1706,-2.2426,-2.2769,-2.349,-2.4083,-2.4462,-2.4836,-2.5226,-2.5634,-2.6646,-2.7537,-2.836,-2.9196,-2.9948,-3.0603,-3.124,-3.1178,-3.0557,0.0,0.0,0.0,0.0,0.0,0.0,0.0,0.0,0.0,0.0,0.0,0.0,0.0,0.0,0.0,0.0,0.0,0.0,0.0,0.0,0.0,0.0,0.0,0.0,0.0,0.0,0.0,0.0,0.0,0.0,0.0,0.0,0.0,0.0,0.0,0.0,0.0,0.0,0.0,0.0,0.0,0.0,0.0,0.0,0.0,0.0,0.0,0.0,0.0,0.0,0.0,0.0,0.0,0.0,0.0,0.0,0.0,0.0,0.0,0.0,0.0,0.0,0.0,0.0,0.0,0.0,0.0,0.0,0.0,0.0,-4.2178,-4.2214,0.0,0.0,0.0,0.0,0.0,0.0,0.0,0.0,0.0,0.0,0.0,0.0,0.0,0.0,0.0,0.0,0.0,0.0,0.0,0.0,0.0,-2.2685,-2.1937,-2.1709,-2.1646,-2.172,-2.2892,-2.3664,-2.3783,-2.4327,-2.4725,-2.4873,-2.5486,-2.5949,-2.6245,-2.8058,-2.9038,-2.91,-3.0478,-3.1631,-3.2574,-3.3349,-3.2792,-3.1208,-3.1824,0.0,0.0,0.0,0.0,0.0,0.0,0.0,0.0,0.0,0.0,0.0,0.0,0.0,0.0,0.0,0.0,0.0,0.0,0.0,0.0,0.0,0.0,0.0,0.0,0.0,0.0,0.0,0.0,0.0,0.0,0.0,0.0,0.0,0.0,0.0,0.0,0.0,0.0,0.0,0.0,0.0,0.0,0.0,0.0,0.0,0.0,0.0,0.0,0.0,0.0,0.0,0.0,0.0,0.0,0.0,0.0,0.0,0.0,0.0,0.0,0.0,0.0,0.0,-4.2615,-4.3433,-4.3962,-4.4708,-4.5398,-4.5776,-4.4478,-4.3808,-4.3659,-4.3284,0.0,0.0,0.0,0.0,0.0,0.0,0.0,0.0,0.0,0.0,0.0,0.0,0.0,0.0,0.0,0.0,0.0,0.0,0.0,-2.2816,-2.2489,-2.2459,-2.2646,-2.3102,-2.3964,-2.4696,-2.5263,-2.5356,-2.5689,-2.6371,-2.6499,-2.7237,-2.8698,-2.853,-2.915,-3.0685,-3.1405,-3.2671,-3.4354,-3.4499,-3.4746,-3.5061,-3.4506,-3.4305,-3.427,0.0,0.0,0.0,0.0,0.0,0.0,0.0,0.0,0.0,0.0,0.0,0.0,0.0,0.0,0.0,0.0,0.0,0.0,0.0,0.0,0.0,0.0,0.0,0.0,0.0,0.0,0.0,0.0,0.0,0.0,0.0,0.0,0.0,0.0,0.0,0.0,0.0,0.0,0.0,0.0,0.0,-3.843,-3.986,0.0,0.0,0.0,0.0,0.0,0.0,0.0,0.0,0.0,0.0,0.0,0.0,0.0,-4.3959,-4.5213,-4.3797,-4.3422,-4.3929,-4.4573,-4.5092,-4.5645,-4.7112,-4.7858,-4.7868,-4.7909,0.0,-4.5823,-4.5186,0.0,0.0,0.0,0.0,0.0,0.0,0.0,0.0,0.0,0.0,0.0,0.0,0.0,0.0,0.0,0.0,0.0,0.0,0.0,0.0,0.0,-2.3067,-2.3668,-2.4388,-2.5731,-2.6344,-2.579,-2.668,-2.7002,-2.6475,-2.7463,-2.8375,-2.9112,-2.9984,-3.129,-3.3019,-3.4133,-3.5369,-3.6672,-3.742,-3.7916,-3.8187,-3.7888,-3.6636,-3.4718,-3.4187,0.0,0.0,0.0,0.0,0.0,0.0,0.0,0.0,0.0,0.0,0.0,0.0,0.0,0.0,0.0,0.0,0.0,0.0,0.0,0.0,0.0,0.0,0.0,0.0,0.0,0.0,0.0,0.0,0.0,0.0,0.0,0.0,0.0,0.0,0.0,0.0,0.0,0.0,0.0,-3.7989,-3.8638,-4.0204,-4.0819,-4.1285,0.0,0.0,0.0,0.0,0.0,0.0,0.0,0.0,0.0,-4.5738,-4.5874,-4.6092,-4.665,-4.6154,-4.5905,-4.5722,-4.6494,-4.7118,-4.7676,-4.856,-4.9358,-4.9939,-4.9902,-4.9336,-4.8595,-4.6728,-4.5407,-4.4279,0.0,0.0,0.0,0.0,-3.5344,-3.4218,0.0,0.0,0.0,0.0,0.0,0.0,0.0,0.0,0.0,0.0,0.0,0.0,-2.3271,-2.4188,-2.5299,-2.6542,-2.7702,-2.8058,-2.7256,-2.7875,-2.7912,-2.7045,-2.8535,-2.9425,-2.9538,-3.1635,-3.3555,-3.53,-3.6791,-3.8125,-3.9344,-4.0425,-4.1035,-4.1204,-4.0832,-3.8899,-3.581,-3.516,-3.4806,-3.4639,0.0,0.0,0.0,0.0,0.0,0.0,0.0,0.0,0.0,0.0,0.0,0.0,0.0,0.0,0.0,0.0,0.0,0.0,0.0,0.0,0.0,0.0,0.0,0.0,0.0,0.0,0.0,0.0,0.0,0.0,0.0,0.0,0.0,0.0,0.0,0.0,0.0,-3.8621,-3.9276,-4.0569,-4.1559,-4.1959,0.0,0.0,0.0,0.0,0.0,0.0,-4.3545,-4.4294,-4.5723,-4.8229,-4.8302,-4.8408,-4.8621,-4.8309,-4.7958,-4.7461,-4.8258,-4.8864,-4.9519,-5.036,-5.109,-5.1868,-5.1728,-5.1488,-5.1102,-4.8534,-4.6356,-4.4519,-4.1707,-4.0117,-3.9071,-3.7166,-3.6225,-3.557,0.0,0.0,0.0,0.0,0.0,0.0,0.0,0.0,0.0,0.0,0.0,-2.2853,-2.4837,-2.6235,-2.7897,-3.0055,-2.964,-2.9653,-3.0613,-2.8648,-2.7876,-2.8805,-2.9696,-3.0344,-3.0822,-3.3239,-3.537,-3.7153,-3.8516,-4.0251,-4.2294,-4.2915,-4.3639,-4.4282,-4.2828,-4.0899,-3.8667,-3.7259,-3.6478,-3.6035,-3.5393,0.0,0.0,0.0,0.0,0.0,0.0,0.0,0.0,0.0,0.0,0.0,0.0,0.0,0.0,0.0,0.0,0.0,0.0,0.0,0.0,0.0,0.0,0.0,0.0,0.0,0.0,0.0,0.0,0.0,0.0,0.0,0.0,0.0,0.0,0.0,0.0,0.0,0.0,-4.151,-4.2196,0.0,0.0,0.0,0.0,-4.2713,-4.3019,-4.3974,-4.602,-4.7585,-4.9281,-5.1251,-5.118,-5.1206,-5.1722,-5.0007,-4.9286,-4.9534,-4.9793,-5.0311,-5.1369,-5.2793,-5.3449,-5.3522,-5.4032,-5.3692,-5.2695,-5.0818,-4.8592,-4.6257,-4.3622,-4.157,-3.999,-3.8362,-3.6998,-3.5771,0.0,0.0,0.0,0.0,0.0,0.0,-2.5271,-2.4495,-2.3815,-2.3458,-2.3785,-2.4671,-2.6322,-2.796,-2.9672,-3.1512,-3.1635,-3.1358,-3.0791,-3.0137,-2.9846,-2.9971,-3.0251,-3.1303,-3.3241,-3.4964,-3.6762,-3.8723,-4.0372,-4.2174,-4.3905,-4.4575,-4.5297,-4.5974,-4.5432,-4.4485,-4.3098,-3.9648,-3.7848,-3.724,-3.6536,-3.601,0.0,0.0,0.0,0.0,0.0,0.0,0.0,0.0,0.0,0.0,0.0,0.0,0.0,0.0,0.0,0.0,0.0,0.0,0.0,0.0,0.0,0.0,0.0,0.0,0.0,0.0,0.0,0.0,0.0,0.0,0.0,0.0,0.0,0.0,0.0,0.0,0.0,-4.4185,-4.5604,0.0,-4.5794,-4.4874,-4.4716,-4.5672,-4.6126,-4.7318,-4.9427,-5.0759,-5.2282,-5.3994,-5.5641,-5.6156,-5.5579,-5.4933,-5.3937,-5.2641,-5.2465,-5.2356,-5.2453,-5.3643,-5.4105,-5.4129,-5.4025,-5.3755,-5.3394,-5.286,-5.0618,-4.7568,-4.4603,-4.2543,-4.0957,-3.905,-3.7061,-3.5248,0.0,0.0,0.0,0.0,0.0,0.0,-2.5168,-2.411,-2.3373,-2.3534,-2.4356,-2.5764,-2.7906,-3.0047,-3.1951,-3.3487,-3.3436,-3.27,-3.1323,-3.076,-3.0238,-2.9697,-3.0543,-3.2366,-3.5241,-3.6693,-3.847,-4.0583,-4.2294,-4.3919,-4.5467,-4.6133,-4.6853,-4.753,-4.7293,-4.6921,-4.621,-4.2726,-4.0527,-3.9242,-3.7706,-3.6962,-3.6455,0.0,0.0,0.0,0.0,0.0,0.0,0.0,0.0,0.0,0.0,0.0,0.0,0.0,0.0,0.0,0.0,0.0,0.0,0.0,0.0,0.0,0.0,0.0,0.0,0.0,0.0,0.0,0.0,0.0,0.0,0.0,0.0,0.0,0.0,-4.3407,-4.5326,-4.6914,-4.8239,-4.8866,-4.8638,-4.7763,-4.7709,-4.8835,-4.961,-5.0876,-5.2977,-5.3892,-5.4953,-5.6316,-5.829,-5.8827,-5.7979,-5.7423,-5.6389,-5.4886,-5.364,-5.3229,-5.3253,-5.4081,-5.4397,-5.4397,-5.4098,-5.3972,-5.3972,-5.3822,-5.2387,-4.9863,-4.6308,-4.3813,-4.1914,-3.9523,-3.7367,-3.558,0.0,0.0,0.0,0.0,0.0,0.0,-2.5115,-2.346,-2.2712,-2.4041,-2.444,-2.5985,-2.9632,-3.2505,-3.4697,-3.618,-3.4904,-3.354,-3.2302,-3.0375,-2.892,-2.82,-3.0653,-3.3517,-3.658,-3.8414,-4.047,-4.274,-4.4082,-4.5501,-4.702,-4.7623,-4.8308,-4.8984,-4.8274,-4.797,-4.7868,-4.638,-4.4485,-4.2219,-3.9093,-3.8235,-3.8654,0.0,0.0,0.0,0.0,0.0,0.0,0.0,0.0,0.0,0.0,0.0,0.0,0.0,0.0,0.0,0.0,0.0,0.0,0.0,0.0,0.0,0.0,0.0,0.0,0.0,0.0,0.0,0.0,0.0,0.0,0.0,0.0,0.0,-4.3525,-4.5611,-4.7802,-4.966,-5.0006,-5.0191,-5.0463,-4.9883,-5.0272,-5.2217,-5.3367,-5.4671,-5.6308,-5.6828,-5.7435,-5.8348,-5.9074,-5.9262,-5.8802,-5.6963,-5.5966,-5.6005,-5.3544,-5.2836,-5.3798,-5.4248,-5.4397,-5.4397,-5.4397,-5.4397,-5.4397,-5.3972,-5.3822,-5.3299,-4.8653,-4.5229,-4.2703,-4.0125,-3.8281,-3.6621,0.0,0.0,0.0,0.0,0.0,-2.5031,-2.4915,-2.3813,-2.3371,-2.436,-2.5958,-2.7917,-3.0247,-3.3152,-3.5283,-3.6215,-3.4421,-3.308,-3.2706,-3.0177,-2.8995,-2.9832,-3.2369,-3.5,-3.7693,-3.9788,-4.1614,-4.3367,-4.4732,-4.593,-4.6844,-4.7564,-4.8308,-4.8984,-4.8692,-4.8529,-4.8461,-4.7396,-4.6562,-4.5689,-4.2382,-4.051,-3.9631,0.0,0.0,0.0,0.0,0.0,0.0,0.0,0.0,0.0,0.0,0.0,0.0,0.0,0.0,0.0,0.0,0.0,0.0,0.0,0.0,0.0,0.0,0.0,0.0,0.0,0.0,0.0,0.0,0.0,0.0,0.0,-4.4471,-4.5252,-4.5679,-4.9157,-5.2164,-5.379,-5.5044,-5.5879,-5.5897,-5.4962,-5.47,-5.5688,-5.69,-5.788,-5.8372,-5.935,-6.012,-6.038,-6.1483,-6.2043,-6.2193,-5.9612,-5.8091,-5.7503,-5.4694,-5.3341,-5.3293,-5.3804,-5.3972,-5.3972,-5.3972,-5.3972,-5.3972,-5.3822,-5.3822,-5.3322,-4.9072,-4.6581,-4.523,-4.1045,-3.7981,-3.5572,0.0,0.0,0.0,0.0,0.0,-2.4847,-2.4678,-2.3833,-2.3529,-2.4477,-2.6828,-2.9097,-3.0974,-3.3835,-3.5697,-3.5835,-3.4042,-3.249,-3.1558,-2.9834,-2.9627,-3.1453,-3.4037,-3.656,-3.899,-4.1155,-4.2833,-4.3986,-4.5185,-4.6075,-4.6819,-4.7564,-4.8477,-4.9458,-4.9029,-4.9001,-4.9207,-4.8308,-4.7943,-4.7646,-4.5345,-4.3519,-4.2126,-4.0796,-4.0391,-4.0544,-4.0217,-4.07,-4.1471,-4.1622,0.0,0.0,0.0,0.0,0.0,0.0,0.0,0.0,0.0,0.0,0.0,0.0,0.0,0.0,0.0,0.0,0.0,0.0,0.0,0.0,0.0,0.0,0.0,0.0,-4.6578,-4.8236,-4.9722,-5.2487,-5.517,-5.7445,-5.8133,-5.8719,-5.9186,-5.8126,-5.7663,-5.8291,-5.9469,-6.0179,-6.0406,-6.0762,-6.1116,-6.1542,-6.1913,-6.2332,-6.2848,-6.0579,-5.9043,-5.8149,-5.5717,-5.4008,-5.3389,-5.3678,-5.3822,-5.3822,-5.3822,-5.3822,-5.3822,-5.3672,-5.3521,-5.3195,0.0,0.0,0.0,0.0,-3.7069,-3.491,0.0,0.0,0.0,0.0,0.0,-2.4632,-2.4505,-2.3725,-2.3507,-2.4598,-2.7236,-2.9664,-3.1389,-3.4145,-3.5663,-3.5007,-3.3455,-3.1662,-2.9593,-2.9523,-3.0589,-3.3083,-3.5736,-3.8167,-4.0256,-4.2543,-4.4012,-4.4688,-4.5534,-4.6278,-4.6921,-4.7699,-4.8781,-5.0067,-4.9424,-4.9434,-4.9981,-4.9308,-4.8879,-4.8684,-4.8015,-4.6776,-4.5127,-4.316,-4.3216,-4.4125,-4.2922,-4.3265,-4.4113,-4.3254,0.0,0.0,0.0,0.0,0.0,0.0,0.0,0.0,0.0,0.0,0.0,0.0,0.0,0.0,0.0,0.0,0.0,0.0,0.0,0.0,0.0,0.0,0.0,0.0,-4.8807,-5.1827,-5.4634,-5.5786,-5.7456,-6.0411,-5.9968,-5.9818,-6.0918,-5.9971,-5.9608,-6.0266,-6.1237,-6.1845,-6.2087,-6.1292,0.0,0.0,0.0,-6.1451,-6.2251,-6.0496,-5.9265,-5.8366,-5.631,-5.4793,-5.3822,-5.3822,-5.3822,-5.3822,-5.3822,-5.3822,-5.3672,-5.337,-5.3091,-5.2764,-5.0478,-4.823,-4.5495,-3.9098,-3.6011,-3.4804,0.0,0.0,0.0,0.0,0.0,-2.4623,-2.4459,-2.4155,-2.4324,-2.5325,-2.7591,-2.9308,-2.9903,-3.211,-3.349,-3.3352,-3.1386,-2.9971,-2.942,-2.9828,-3.1393,-3.4218,-3.716,-3.9408,-4.0933,-4.3809,-4.5331,-4.55,-4.6819,-4.7564,-4.7699,-4.8443,-4.9255,-5.0101,-4.9839,-5.0082,-5.0755,-5.0259,-5.0059,-5.0026,-4.9893,-4.8322,-4.6006,-4.4968,-4.4365,-4.403,-4.3729,-4.4303,-4.5173,-4.5249,-4.5334,-4.5529,-4.6041,-4.592,0.0,0.0,0.0,0.0,0.0,0.0,0.0,0.0,0.0,0.0,0.0,0.0,0.0,0.0,0.0,0.0,0.0,0.0,0.0,-4.8873,-5.096,-5.369,-5.7709,-5.9776,-6.1135,-6.1791,-6.1202,-6.1369,-6.2682,-6.1523,-6.0984,-6.1642,-6.2106,-6.2349,-6.2116,-6.2142,-6.2458,-6.2877,-6.288,-6.3204,-6.3593,-6.1775,-6.0102,-5.8366,-5.6717,0.0,-5.3822,-5.3822,-5.3822,-5.3822,-5.3822,-5.3672,-5.337,-5.3219,-5.2787,-5.1916,-4.8575,-4.5537,-4.2553,-3.8524,-3.6059,-3.4245,0.0,0.0,0.0,0.0,0.0,-2.4613,-2.4357,-2.4229,-2.4454,-2.5206,-2.6949,-2.8294,-2.8728,-3.0099,-3.0868,-3.0484,-2.9238,-2.8762,-2.942,-3.0987,-3.308,-3.5644,-3.8546,-4.0646,-4.1711,-4.435,-4.5534,-4.5128,-4.7022,-4.7733,-4.7361,-4.8477,-4.939,-5.0101,-5.0038,-5.0349,-5.0859,-5.076,-5.056,-5.0357,-5.0757,-5.0159,-4.8857,-4.8186,-4.7747,-4.7283,-4.7005,-4.7173,-4.7442,-4.7212,-4.7292,-4.7475,-4.7325,-4.7236,-4.7052,0.0,0.0,0.0,0.0,0.0,0.0,0.0,0.0,0.0,0.0,0.0,0.0,0.0,0.0,-4.3746,-4.4199,0.0,-4.9262,-5.138,-5.3881,-5.6496,-5.9352,-6.1185,-6.2108,-6.2005,-6.1786,-6.1838,-6.1957,-6.1126,-6.0902,-6.1804,-6.1816,-6.2322,-6.326,-6.2633,-6.2826,-6.4009,-6.3216,-6.3121,-6.3936,-6.2417,-6.0484,-5.8366,-5.7655,-5.6118,-5.3822,-5.3822,-5.3822,-5.3822,-5.3521,-5.3394,-5.3243,-5.2787,-5.2302,-5.138,-4.7671,-4.4766,-4.2241,-3.9244,-3.6537,-3.3998,0.0,0.0,0.0,0.0,0.0,-2.4547,-2.4247,-2.419,-2.4368,-2.4824,-2.6128,-2.7133,-2.7512,-2.8238,-2.8422,-2.7812,-2.7707,-2.8375,-3.0041,-3.2383,-3.483,-3.7313,-3.9986,-4.1745,-4.2489,-4.4621,-4.5399,-4.479,-4.6752,-4.7462,-4.7022,-4.8376,-4.9458,-5.0304,-5.0439,-5.0818,-5.1296,-5.1497,-5.1363,-5.1054,-5.1891,-5.2227,-5.2194,-5.173,-5.1396,-5.1028,-5.0255,-4.982,-4.9492,-4.8781,-4.8796,-4.8971,-4.8403,-4.847,-4.8532,-4.7432,-4.6898,0.0,0.0,0.0,0.0,0.0,0.0,0.0,0.0,-4.4032,-4.3951,-4.4724,-4.5517,-4.6302,-4.705,-5.0255,-5.3065,-5.3686,-5.6452,-5.8931,-6.0284,-6.1617,-6.2233,-6.1783,-6.1886,-6.1828,-6.132,-6.0668,-6.0611,-6.1608,-6.1467,-6.2203,-6.4041,-6.3029,-6.3196,-6.4636,-6.329,-6.2936,-6.3806,-6.2699,-6.0889,-5.8366,-5.8366,-5.6649,-5.3822,-5.3672,-5.3672,-5.3822,-5.3219,-5.3068,-5.3068,-5.2177,-5.178,-5.1121,-4.7506,-4.4824,-4.2642,-3.983,-3.6787,-3.3728,0.0,0.0,0.0,0.0,0.0,0.0,-2.4228,-2.419,-2.4368,-2.4824,-2.5682,-2.6141,-2.5964,-2.6606,-2.7012,-2.6871,-2.7731,-2.9523,-3.232,-3.3673,-3.596,-3.9546,-4.1305,-4.2523,-4.3267,-4.4891,-4.5669,-4.5568,-4.6481,-4.7225,-4.78,-4.8612,-4.9763,-5.1116,-5.1758,-5.2503,-5.3213,-5.3719,-5.378,-5.3636,-5.4372,-5.4567,-5.4422,-5.4573,-5.3807,-5.257,-5.1128,-5.0135,-4.9478,-4.9264,-4.9184,-4.9305,-5.0016,-5.0435,-5.0343,-4.8683,-4.7895,-4.7176,-4.5301,-4.4213,-4.3788,-4.4435,-4.4384,-4.448,0.0,-4.6026,-4.6364,-4.7927,-4.8375,-4.8875,-4.9978,-5.1882,-5.3886,-5.5631,-5.7553,-5.9378,-6.0788,-6.2245,-6.2793,-6.1815,-6.1471,-6.1901,-6.3286,-6.1686,-6.0956,-6.2027,-6.232,-6.252,-6.2813,-6.3407,-6.3796,-6.3619,-6.3794,-6.3692,-6.3413,-6.299,-6.1301,-5.8366,-5.8082,-5.6359,-5.3822,-5.337,-5.3521,-5.3822,-5.3068,-5.2612,-5.2612,-5.187,-5.1262,-5.0654,-4.7692,-4.498,-4.2251,-3.901,-3.5911,-3.3163,0.0,0.0,0.0,0.0,0.0,0.0,0.0,-2.419,-2.4261,-2.4454,-2.4798,-2.4954,-2.4787,-2.501,-2.5337,-2.5721,-2.7113,-2.9236,-3.2227,-3.4416,-3.6966,-3.9968,-4.1784,-4.2943,-4.3403,-4.4729,-4.5512,-4.5703,-4.6703,-4.7452,-4.7936,-4.8646,-4.9323,-4.9965,-5.115,-5.1794,-5.2167,-5.3753,-5.4289,-5.4109,-5.5425,-5.5626,-5.5185,-5.5257,-5.4152,-5.2438,-5.162,-5.0454,0.0,-4.8678,-4.9043,-4.9649,-4.9268,-4.9746,-5.011,-4.8239,-4.7785,-4.774,-4.7056,-4.6319,-4.598,-4.7118,-4.7569,-4.7979,-4.8707,-4.939,-5.012,-5.1038,-5.1784,-5.2543,-5.3647,-5.5479,-5.7086,-5.8018,-5.9397,-6.0687,-6.175,-6.233,-6.2359,-6.1501,-6.0917,-6.0984,-6.197,-6.1195,-6.1075,-6.2028,-6.2377,-6.2983,-6.3968,-6.3727,-6.3709,-6.4051,-6.3608,-6.3464,-6.3413,-6.262,-6.1356,-5.9627,-5.794,-5.6384,-5.5115,-5.3822,-5.3219,-5.3068,-5.3094,-5.2774,-5.2333,-5.2322,-5.1764,-5.0599,-4.7147,-4.4377,-4.18,-3.8761,-3.574,-3.2988,0.0,0.0,0.0,0.0,0.0,0.0,0.0,0.0,-2.4151,-2.4151,-2.4334,-2.4461,-2.4365,-2.4543,-2.4866,-2.5346,-2.664,-2.8724,-3.1882,-3.4453,-3.7111,-3.9861,-4.1842,-4.3113,-4.3458,-4.4767,-4.5524,-4.5836,-4.67,-4.7444,-4.8082,-4.8504,-4.8855,-4.9328,-5.0845,-5.1457,-5.1494,-5.3889,-5.4561,-5.425,-5.5905,-5.6048,-5.5277,-5.4905,-5.3549,-5.1794,-5.1309,-4.9965,-4.8207,-4.7583,-4.8191,-4.9071,-4.8304,-4.8861,-4.9557,-4.7818,-4.7559,-4.7874,-4.8066,-4.8069,-4.8293,-4.9412,-5.0389,-5.1147,-5.1299,-5.2255,-5.3269,-5.3885,-5.4698,-5.5666,-5.6641,-5.8333,-5.9598,-5.953,-6.0698,-6.1733,-6.2066,-6.1965,-6.1616,-6.0887,-5.9774,-5.9286,-5.9811,-6.0072,-6.058,-6.1557,-6.214,-6.2978,-6.4125,-6.3362,-6.3265,-6.3808,-6.2993,-6.2664,-6.2765,-6.1942,-6.1056,-5.9931,-5.7681,-5.6264,-5.5532,-5.3798,-5.2987,-5.3,-5.3092,-5.3016,-5.2553,-5.2581,-5.1891,-5.0508,-4.6285,-4.3421,-4.1511,-3.76,-3.4907,-3.2974,0.0,0.0,0.0,0.0,0.0,0.0,0.0,0.0,0.0,-2.3996,-2.4689,-2.5142,-2.5078,-2.5768,-2.6218,-2.6186,-2.6652,-2.8399,-3.1882,-3.3666,-3.6098,-3.956,-4.1568,-4.2952,-4.364,-4.4983,-4.5784,-4.6084,-4.6148,-4.6953,-4.8472,-4.8082,-4.8624,-4.9914,-5.1558,-5.2266,-5.2435,-5.4702,-5.5103,-5.4424,-5.6119,-5.6131,-5.4967,-5.3661,-5.2097,-5.0599,-4.9999,-4.8196,-4.6098,-4.6052,-4.6472,-4.7093,-4.7633,-4.852,-4.9122,-4.7995,-4.7568,-4.7416,-4.7336,-4.8561,-4.9907,-5.0352,-5.1629,-5.2843,-5.2918,-5.3905,-5.5121,-5.6235,-5.6831,-5.7441,-5.8536,-5.9613,-6.015,-5.9598,-6.105,-6.1914,-6.1251,-6.1152,-6.0854,-6.0125,-5.7711,-5.6573,-5.759,-5.864,-5.956,-6.0266,-6.1396,-6.2122,-6.218,-6.2485,-6.2486,-6.2136,-6.1883,-6.1369,-6.0933,-6.0933,-6.0104,-5.8418,-5.6794,-5.5508,-5.4397,-5.3195,-5.3047,-5.3826,-5.3078,-5.3046,-5.3376,-5.2081,-5.1404,-5.0508,-4.4722,-4.2365,-4.1116,-3.4995,-3.2911,-3.2933,0.0,0.0,0.0,0.0,0.0,0.0,0.0,0.0,0.0,0.0,0.0,0.0,0.0,0.0,0.0,0.0,-2.633,-2.8025,-3.0741,-3.3847,-3.6615,-3.8936,-4.138,-4.2894,-4.3325,-4.3325,-4.3846,-4.4836,-4.4924,-4.5821,-4.738,-4.7807,-4.8379,-4.9163,-5.0773,-5.1459,-5.1691,-5.3484,-5.4024,-5.3788,-5.3822,-5.328,-5.2323,-5.072,-4.8872,-4.7002,0.0,-4.5658,-4.4839,-4.4361,-4.471,-4.5333,-4.5506,-4.6252,-4.7036,-4.6667,-4.731,-4.8382,-4.9475,-5.1025,-5.2857,-5.4948,-5.6256,-5.7084,-5.7099,-5.8381,-5.9331,-5.8354,-5.7434,-5.6904,-5.7293,-5.6767,-5.6745,-5.8032,-5.9698,-6.0986,-6.1715,-6.1815,-6.0986,-5.88,-5.7367,-5.6144,-5.5221,-5.6383,-5.7944,-5.9742,-6.0877,-6.1739,-6.2456,-6.2188,-6.1901,-6.1826,-6.0766,-6.0309,-6.0297,-5.9369,-5.8914,-5.8695,-5.6791,-5.4867,-5.2764,-5.2612,-5.2894,-5.3256,-5.3295,-5.3105,-5.2785,-5.2614,-5.1851,-5.0145,-4.6418,-4.3505,-4.0739,-3.6234,-3.3671,-3.2079,0.0,0.0,0.0,0.0,0.0,0.0,0.0,0.0,0.0,0.0,0.0,0.0,0.0,0.0,0.0,0.0,0.0,-2.7415,-2.9253,-3.242,-3.4871,-3.6377,-3.8766,-4.0144,-4.0333,-4.0358,-4.1021,-4.2312,-4.3019,-4.3979,-4.5281,-4.6075,-4.6632,-4.7052,-4.8523,-4.9328,-4.9791,-5.1186,-5.1589,-5.1206,-5.0759,-5.0154,-4.9436,-4.7731,-4.6374,0.0,-4.4335,-4.4012,-4.3949,-4.3542,-4.3892,-4.4448,-4.4551,-4.5166,-4.6007,-4.6706,-4.8147,-4.9905,-5.1871,-5.3824,-5.5902,-5.827,-5.9702,-6.0294,-5.9773,-6.0472,-6.0589,-5.8454,-5.6862,-5.5777,-5.5539,-5.4878,-5.4651,-5.5581,-5.7272,-5.8866,-6.0026,-5.9993,-5.9429,-5.8303,-5.6815,-5.5405,-5.4414,-5.4865,-5.6149,-5.8341,-5.9655,-6.0634,-6.1171,-6.1012,-6.0869,-6.0892,-5.9738,-5.9155,-5.927,-5.8213,-5.7459,-5.7309,-5.6031,-5.4304,-5.2024,-5.2154,-5.255,-5.3069,-5.2921,-5.281,-5.263,-5.2282,-5.139,-4.9849,-4.6689,-4.3431,-4.0335,-3.6632,-3.3605,-3.1245,0.0,0.0,0.0,0.0,0.0,0.0,0.0,0.0,0.0,0.0,0.0,0.0,0.0,0.0,0.0,0.0,0.0,0.0,-2.759,-2.9654,-3.1321,-3.2297,-3.4228,-3.5254,-3.5254,-3.6504,-3.764,-3.8686,-4.0405,-4.1576,-4.2265,-4.2949,-4.3454,-4.3836,-4.5069,-4.6102,-4.6884,-4.8044,-4.7988,-4.709,-4.7133,-4.6934,-4.6458,-4.4858,-4.4635,-4.5059,-4.3762,-4.3321,-4.3428,-4.3701,-4.414,-4.461,-4.4889,-4.535,-4.6124,-4.815,-5.0009,-5.1947,-5.4491,-5.6883,-5.8971,-6.0355,-6.1707,-6.2357,-6.0829,-6.0028,-5.9005,-5.6813,-5.5257,-5.4107,-5.337,-5.3801,-5.3811,-5.2694,-5.4343,-5.6017,-5.6846,-5.6415,-5.6746,-5.8767,-5.6124,-5.4453,-5.5093,-5.4074,-5.425,-5.6194,-5.7744,-5.8752,-5.8867,-5.9415,-5.973,-5.973,-5.8704,-5.8063,-5.796,-5.7223,-5.602,-5.4107,-5.4672,-5.3924,-5.2024,-5.1562,-5.2115,-5.3353,-5.2081,-5.2159,-5.2702,-5.1054,-5.004,-4.9276,-4.5703,-4.2535,-3.9584,-3.6063,-3.2815,-3.0146,0.0,0.0,0.0,0.0,0.0,0.0,0.0,0.0,0.0,0.0,0.0,0.0,0.0,0.0,0.0,0.0,0.0,0.0,-2.7165,-2.9891,-3.1576,-3.1621,-3.3706,-3.4835,-3.4835,-3.4888,-3.5203,-3.5753,-3.7085,-3.8028,-3.8722,-4.0193,-4.1359,-4.2391,-4.345,-4.4457,-4.5286,-4.5598,-4.5581,-4.5249,-4.4188,-4.4034,-4.4366,-4.3137,-4.3268,-4.4032,-4.3506,-4.3965,-4.4814,-4.4878,-4.5782,-4.6923,-4.7214,-4.7548,-4.8139,-4.9986,-5.2148,-5.4498,-5.7042,-5.9862,-6.2257,-6.3142,-6.3367,-6.2909,-6.083,-5.9297,-5.7618,-5.4967,-5.287,-5.1258,-5.0503,-5.022,-5.0892,-5.319,-5.5626,-5.8071,-6.0423,-6.1086,-6.1035,-6.0307,-5.7997,-5.6213,-5.5659,-5.4152,-5.3664,-5.4894,-5.6445,-5.7916,-5.9056,-5.9521,-5.9606,-5.9329,-5.8043,-5.733,-5.7363,-5.6638,-5.5262,-5.3421,-5.4107,-5.3389,-5.1585,-5.1431,-5.1441,-5.1538,-5.1603,-5.1145,-5.0558,-5.042,-4.9511,-4.7991,-4.6846,-4.3242,-3.8855,-3.7365,-3.3858,-2.9755,0.0,0.0,0.0,0.0,0.0,0.0,0.0,0.0,0.0,0.0,0.0,0.0,0.0,0.0,0.0,0.0,0.0,0.0,0.0,-2.9242,-3.0312,-2.997,-3.1154,-3.1731,-3.1633,-3.1394,-3.1743,-3.2687,-3.4088,-3.5109,-3.5754,-3.7932,-3.9276,-3.9852,-4.1025,-4.1974,-4.28,-4.2707,-4.2544,0.0,0.0,-4.1697,-4.2263,-4.2174,-4.2698,-4.3577,-4.4044,-4.5276,-4.6815,-4.7353,-4.7935,-4.8603,-4.9276,-4.9869,-5.0868,-5.3749,-5.5828,-5.7892,-6.1181,-6.3367,-6.4792,-6.5178,-6.4324,-6.2746,-6.0417,-5.807,-5.5618,-5.2944,-5.0859,-4.9246,-4.8461,-4.819,-4.8999,-5.1665,-5.3717,-5.6183,-5.9761,-6.0506,-6.0985,-6.1574,-5.9666,-5.7934,-5.7078,-5.5556,-5.4711,-5.4973,-5.5906,-5.7023,-5.8337,-5.905,-5.9205,-5.8829,-5.7661,-5.6888,-5.6236,-5.6288,-5.519,-5.3225,-5.4131,-5.336,-5.1431,-5.1171,-5.1086,-5.0905,-5.0815,-5.027,-4.9698,-4.9639,-4.8752,-4.7297,-4.6575,-4.293,-3.7975,-3.7276,-3.3634,-2.9041,0.0,0.0,0.0,0.0,0.0,0.0,0.0,0.0,0.0,0.0,0.0,0.0,0.0,0.0,0.0,0.0,0.0,0.0,0.0,0.0,-2.8651,-2.8166,-2.8139,-2.8073,-2.79,-2.79,-2.8609,-3.0124,-3.1691,-3.2751,-3.3248,-3.5901,-3.7076,-3.7104,-3.8333,-3.9353,-4.0129,-3.9989,-3.9764,-3.9526,-3.9789,-4.0199,-4.0781,0.0,-4.2697,-4.3718,-4.5239,-4.7015,-4.8821,-5.0024,-5.032,-5.0356,-5.1486,-5.2654,-5.4354,-5.8276,-6.0047,-6.1618,-6.5402,-6.6627,-6.6758,-6.6459,-6.4588,-6.2142,-5.959,-5.6357,-5.3193,-5.0872,-4.9097,-4.7736,-4.7013,-4.7229,-4.8048,-4.9777,-5.1024,-5.3235,-5.7608,-5.8063,-5.9185,-6.2574,-6.094,-5.9348,-5.8639,-5.7303,-5.6251,-5.5593,-5.5708,-5.6245,-5.7306,-5.8466,-5.8829,-5.8071,-5.7404,-5.642,-5.5203,-5.6275,-5.5688,-5.3323,-5.45,-5.3798,-5.1431,-5.0906,-5.0612,-5.0657,-4.9804,-4.9528,-4.934,-4.8588,-4.7725,-4.6736,-4.5489,-4.2029,-3.726,-3.6443,-3.3013,-2.8474,0.0,0.0,0.0,0.0,0.0,0.0,0.0,0.0,0.0,0.0,-2.9672,-2.9067,0.0,0.0,0.0,0.0,0.0,0.0,0.0,0.0,0.0,-2.8453,-2.8428,-2.8622,-2.8998,-2.9034,-2.9384,-3.0124,-3.0999,-3.1491,-3.1633,-3.3732,-3.5007,-3.5685,-3.6858,-3.7859,-3.8617,-3.9229,-3.9482,-3.9481,-4.0131,-4.0818,-4.1542,-4.1937,-4.3201,0.0,-4.7249,-4.8428,-4.9114,-5.0265,-5.2005,-5.3918,-5.5178,-5.7057,-5.9215,-6.1417,-6.3099,-6.4608,-6.6307,-6.765,-6.8145,-6.6362,-6.3841,-6.1042,-5.83,-5.4248,-5.0654,-4.9045,-4.7722,-4.6767,-4.6398,-4.6811,-4.8216,-5.1566,-5.314,-5.5487,-5.9926,-6.0769,-6.1653,-6.3284,-6.1724,-6.0215,-5.9175,-5.7494,-5.6119,-5.5508,-5.5506,-5.6237,-5.7605,-5.872,-5.8578,-5.7275,-5.6628,-5.608,-5.5752,-5.6458,-5.5893,-5.4008,-5.4672,-5.3798,-5.1431,-5.0545,-4.9784,-4.9197,-4.8801,-4.808,-4.7464,-4.7651,-4.7069,-4.5891,-4.525,-4.1674,-3.6913,-3.6345,-3.3013,-2.8474,0.0,0.0,0.0,0.0,0.0,0.0,0.0,-2.7699,-2.8615,-3.11,-3.0916,-3.0376,-2.9968,-2.9392,-2.9044,0.0,0.0,0.0,0.0,0.0,0.0,-2.8761,-2.8761,-2.9003,-2.9548,-2.9548,-3.0205,-3.154,0.0,-3.2431,-3.3211,-3.462,-3.554,-3.6106,-3.7133,-3.7812,-3.8246,-3.9043,-3.9405,-3.9478,-4.0673,-4.1434,-4.2012,-4.3167,-4.4901,0.0,-4.8126,-4.9036,-4.9809,-5.1009,-5.2954,-5.5022,-5.6082,-5.847,-6.1369,-6.3829,-6.529,-6.6435,-6.8234,-6.8635,-6.8034,-6.6144,-6.2698,-5.9096,-5.6487,-5.2468,-4.9017,-4.7868,-4.7026,-4.635,-4.6217,-4.6551,-4.7752,-5.0827,-5.19,-5.4063,-5.8987,-6.0055,-6.099,-6.2815,-6.1884,-6.0586,-5.9213,-5.7774,-5.6532,-5.5536,-5.6063,-5.6852,-5.7803,-5.8007,-5.7661,-5.6628,-5.6134,-5.6024,-5.5909,-5.6798,-5.6226,-5.4156,-5.4721,-5.3473,-5.0633,-5.0075,-4.9263,-4.8294,-4.8033,-4.7567,-4.7051,-4.7093,-4.6535,-4.5649,-4.4434,-4.1115,-3.6658,-3.5983,-3.2573,-2.8271,0.0,0.0,0.0,0.0,0.0,0.0,0.0,-2.8297,-2.9212,-3.188,-3.2024,-3.1644,-3.1012,-3.0086,-2.945,0.0,0.0,0.0,0.0,0.0,0.0,0.0,-2.9089,-2.9415,-3.0119,0.0,0.0,-3.3203,-3.314,0.0,0.0,0.0,0.0,0.0,-3.7745,-3.8282,-3.85,-3.9297,-3.9731,0.0,0.0,-4.2268,-4.2878,0.0,0.0,0.0,0.0,-4.9529,-5.0451,-5.1535,-5.3213,-5.4937,-5.5545,-5.8537,-6.2354,-6.4977,-6.641,-6.7561,-6.9552,-6.9089,-6.7567,-6.579,-6.1768,-5.7567,-5.5049,-5.1326,-4.8038,-4.7114,-4.6507,-4.6105,-4.6055,-4.6169,-4.7067,-4.9385,-4.9957,-5.1806,-5.6854,-5.8293,-5.9619,-6.197,-6.2098,-6.1278,-5.9435,-5.8379,-5.7253,-5.5641,-5.6528,-5.737,-5.7837,-5.7267,-5.6628,-5.6132,-5.5893,-5.5857,-5.6092,-5.7007,-5.6431,-5.4328,-5.477,-5.3322,-5.0143,-4.9575,-4.8756,-4.7635,-4.7421,-4.7196,-4.6885,-4.6393,-4.6044,-4.5343,-4.3662,-4.0577,-3.7075,-3.5967,-3.2661,-2.8587,0.0,0.0,0.0,0.0,0.0,0.0,0.0,-2.824,-2.9357,-3.2598,-3.2292,-3.1786,-3.1712,-3.0946,-3.0166,0.0,0.0,0.0,0.0,0.0,0.0,0.0,0.0,0.0,0.0,0.0,0.0,-3.4454,-3.4248,0.0,0.0,0.0,0.0,0.0,0.0,-3.8608,-3.9333,-4.0093,0.0,0.0,0.0,0.0,0.0,0.0,0.0,0.0,0.0,-5.0243,-5.0625,-5.1117,-5.2453,-5.393,-5.3949,-5.791,-6.2781,-6.3745,-6.5895,-6.81,-6.8545,-6.8338,-6.748,-6.5389,-6.153,-5.7516,-5.484,-5.1157,-4.79,-4.6613,-4.6084,-4.5752,-4.5528,-4.5465,-4.6203,-4.8399,-4.8729,-5.0293,-5.4677,-5.7015,-5.8952,-6.1138,-6.2568,-6.2545,-6.0156,-5.9889,-5.8637,-5.5697,-5.6048,-5.6969,-5.8103,-5.6963,-5.6105,-5.6132,-5.5524,-5.5674,-5.6719,-5.6824,-5.6252,-5.4918,-5.4967,-5.3322,-5.0121,-4.9245,-4.8453,-4.7613,-4.6754,-4.6451,-4.6409,-4.5922,-4.5433,-4.4942,-4.3565,-4.1268,-3.86,-3.6404,-3.3345,-3.0326,0.0,0.0,0.0,0.0,0.0,0.0,-2.7942,-2.8611,-2.9895,-3.2701,-3.2753,-3.2507,-3.2507,-3.1801,-3.082,-2.9518,0.0,0.0,0.0,0.0,0.0,0.0,0.0,0.0,0.0,0.0,-3.3397,-3.5572,-3.5363,0.0,0.0,0.0,0.0,0.0,0.0,-3.8645,-3.9441,-4.0202,0.0,0.0,0.0,0.0,0.0,0.0,0.0,0.0,0.0,0.0,-5.0721,-5.1062,-5.1676,-5.2284,-5.2169,-5.4491,-5.7882,-6.0866,-6.3455,-6.565,-6.7052,-6.7138,-6.6366,-6.4271,-6.0257,-5.6124,-5.3443,-5.0092,-4.7216,-4.621,-4.5768,-4.5528,-4.5423,-4.5001,-4.5152,-4.6529,-4.6389,-4.7308,-5.0852,-5.2477,-5.4666,-5.8527,-5.991,-6.0393,-6.0083,-6.0018,-5.9103,-5.6819,-5.5647,-5.5618,-5.6834,-5.6367,-5.5868,-5.5472,-5.5546,-5.5987,-5.6798,-5.7137,-5.6843,-5.5729,-5.4646,-5.2821,-5.0098,-4.8706,-4.7613,-4.6811,-4.6509,-4.6347,-4.6185,-4.5535,-4.5209,-4.4882,-4.3214,-4.1249,-3.9049,-3.6469,-3.352,-3.0474,0.0,0.0,0.0,0.0,0.0,-2.6057,-2.7884,-2.8666,-2.9986,-3.2655,-3.2767,-3.273,-3.2953,-3.2061,-3.1005,-2.9853,-2.9556,0.0,0.0,0.0,0.0,0.0,0.0,0.0,0.0,0.0,-3.4365,-3.6399,-3.6362,-3.7015,0.0,0.0,-3.8038,-3.8174,0.0,0.0,0.0,0.0,0.0,0.0,0.0,0.0,0.0,0.0,0.0,0.0,0.0,0.0,0.0,0.0,0.0,-5.1206,-5.1123,-5.1915,-5.3623,-5.7543,-6.0628,-6.3148,-6.4859,-6.5534,-6.5143,-6.2889,-5.9127,-5.5245,-5.2113,-4.9144,-4.6743,-4.5788,-4.5441,-4.5318,-4.5318,-4.4507,-4.429,-4.5326,-4.4756,-4.5202,-4.8282,-4.9442,-5.1643,-5.584,-5.7152,-5.8032,-5.8791,-5.8784,-5.8178,-5.6976,-5.5472,-5.491,-5.5815,-5.5736,-5.5604,-5.5099,-5.5621,-5.6196,-5.6798,-5.7233,-5.7074,-5.6168,-5.4621,-5.2518,-5.0076,-4.8706,-4.7293,-4.6347,-4.6347,-4.6347,-4.6185,-4.5372,-4.5046,-4.4882,-4.3068,-4.1453,-3.9778,-3.6355,-3.3603,-3.1147,0.0,0.0,0.0,0.0,0.0,0.0,-2.7734,-2.8086,-2.9275,-3.2581,-3.2284,-3.2098,-3.2915,-3.1541,-3.0634,-3.0597,-2.9853,0.0,0.0,0.0,0.0,0.0,0.0,0.0,0.0,0.0,-3.507,-3.6894,-3.7202,-3.7904,-3.8862,-3.8437,-3.8174,-3.8174,0.0,0.0,0.0,0.0,0.0,0.0,0.0,0.0,-4.8281,0.0,0.0,0.0,0.0,0.0,0.0,0.0,0.0,0.0,0.0,-5.0952,-5.1432,-5.3861,-5.7634,-6.1212,-6.2015,-6.3491,-6.4142,-6.1338,-5.837,-5.5051,-5.12,-4.8569,-4.6639,-4.5455,-4.5177,-4.5177,-4.5049,-4.4088,-4.3784,-4.517,-4.4458,-4.4654,-4.7542,-4.9219,-5.0985,-5.3159,-5.4761,-5.5849,-5.6026,-5.5575,-5.5618,-5.6025,-5.5572,-5.5128,-5.5072,-5.5099,-5.5099,-5.5099,-5.5621,-5.6196,-5.6798,-5.6954,-5.679,-5.6168,-5.4992,-5.2869,-5.0076,-4.9201,-4.7954,-4.6347,-4.6347,-4.6347,-4.6185,-4.5372,-4.5046,-4.4882,-4.3068,-4.2137,-4.1245,-3.6302,-3.3908,-3.2684,0.0,0.0,0.0,0.0,0.0,0.0,0.0,-2.7771,-2.8866,-3.1058,-3.1154,-3.1281,-3.2098,-3.1727,-3.1206,-3.0671,-2.9853,0.0,0.0,0.0,0.0,0.0,0.0,0.0,0.0,-3.5008,-3.5988,-3.7653,-3.7553,-3.7934,-3.8803,-3.8405,-3.8174,-3.821,-3.8753,-3.9654,0.0,0.0,0.0,0.0,0.0,-4.7365,-4.8569,0.0,0.0,0.0,0.0,0.0,0.0,0.0,0.0,0.0,0.0,0.0,0.0,-5.1408,-5.3987,-5.6884,-5.7903,-5.8977,-5.9307,-5.7152,-5.4942,-5.2497,-4.9552,-4.7648,-4.6232,-4.5402,-4.5123,-4.5015,-4.5049,-4.3881,-4.3382,-4.4755,-4.3849,-4.3552,-4.5428,-4.7132,-4.9597,-5.353,-5.7004,-5.9243,-5.9677,-5.7038,-5.551,-5.6052,-5.5181,-5.4735,-5.5072,-5.5099,-5.5099,-5.5099,-5.5282,-5.583,-5.6798,-5.6842,-5.6996,-5.6921,-5.43,-5.2155,-5.033,-4.7891,-4.6371,-4.5892,-4.5892,-4.6057,-4.6185,-4.5372,-4.5046,-4.4882,-4.3068,-4.2137,-4.1245,-3.6286,-3.3892,-3.2684,0.0,0.0,0.0,0.0,0.0,0.0,0.0,-2.7139,-2.8254,-2.9927,-3.015,-3.0597,-3.1652,-3.1244,-3.082,-3.0634,-3.015,0.0,0.0,0.0,0.0,0.0,0.0,0.0,-3.5442,-3.5851,-3.6721,-3.8051,-3.8256,-3.87,-3.9282,-3.9134,-3.9079,-3.9079,-3.9586,-4.0413,0.0,0.0,0.0,0.0,-4.6807,-4.7964,-4.911,0.0,0.0,0.0,0.0,0.0,0.0,0.0,0.0,0.0,0.0,0.0,0.0,0.0,-5.1471,-5.3376,-5.4652,-5.5951,-5.6483,-5.4391,-5.2701,-5.0868,-4.8312,-4.6738,-4.5726,-4.5226,-4.5049,-4.494,-4.4886,-4.3879,-4.3457,-4.4561,-4.3724,-4.3433,-4.4711,-4.6456,-4.9316,-5.3982,-5.6983,-5.8851,-5.9479,-5.6904,-5.534,-5.571,-5.4997,-5.4707,-5.5072,-5.5099,-5.5099,-5.5099,-5.5308,-5.5961,-5.7111,-5.6764,-5.6954,-5.7523,-5.4151,-5.2061,-5.1141,-4.7848,-4.6225,-4.589,-4.5761,-4.585,0.0,-4.5311,-4.5046,-4.4882,-4.3068,-4.2231,-4.1451,-3.5995,-3.3969,-3.2847,0.0,0.0,0.0,0.0,0.0,0.0,0.0,-2.6396,-2.7474,-2.9109,-2.937,-2.9965,-3.1467,-3.0411,-2.9853,-3.0559,0.0,0.0,0.0,0.0,0.0,0.0,0.0,0.0,-3.5578,-3.6373,-3.7268,-3.8203,-3.9283,-3.9946,-4.0087,-4.0336,-4.0456,-4.0528,-4.0564,-4.1212,-4.2362,-4.4475,-4.5817,-4.6706,-4.7777,-4.8862,0.0,0.0,0.0,0.0,0.0,0.0,0.0,0.0,0.0,0.0,0.0,0.0,0.0,0.0,0.0,0.0,0.0,-5.4131,-5.5027,-5.2545,-5.1153,-4.9806,-4.7403,-4.6012,0.0,-4.5049,-4.4886,-4.472,-4.4643,-4.4037,-4.3816,-4.4461,-4.4,-4.3943,-4.503,-4.7149,-5.0147,-5.4449,-5.5394,-5.5922,-5.6491,-5.568,-5.5099,-5.5099,-5.5099,-5.5099,-5.5099,-5.5099,-5.5125,-5.5151,-5.5621,-5.6379,-5.7529,-5.6591,-5.6737,-5.7876,-5.4375,-5.2617,-5.2315,-4.8962,-4.6975,-4.6209,-4.5711,-4.5623,-4.5546,-4.517,-4.5025,-4.4718,-4.3068,-4.2383,-4.1621,-3.5719,-3.3746,-3.3085,0.0,0.0,0.0,0.0,0.0,0.0,0.0,0.0,0.0,0.0,-2.8998,-2.9556,-2.9927,-3.0788,-3.1145,0.0,0.0,0.0,0.0,0.0,0.0,0.0,0.0,0.0,-3.6522,-3.682,-3.7667,-3.9074,-3.9147,-3.9423,-3.9952,-3.9756,-3.9948,-4.0528,-4.1356,-4.243,-4.3695,-4.5043,-4.6098,-4.699,-4.807,-4.9162,0.0,0.0,0.0,0.0,-5.1133,-5.1154,0.0,0.0,0.0,0.0,0.0,0.0,0.0,0.0,-5.0063,-4.9604,-5.0268,0.0,-5.0775,-4.8764,-4.7966,-4.7346,0.0,-4.526,-4.4886,-4.4831,-4.472,-4.4643,-4.4643,-4.4037,-4.3751,-4.4329,-4.3929,-4.3789,-4.4264,-4.8853,-5.3446,-5.6485,-5.7656,-5.7978,-5.7281,-5.5922,-5.5099,-5.5099,-5.5099,-5.5099,-5.5099,-5.5099,-5.5282,-5.57,-5.5438,-5.5621,-5.6327,-5.6034,-5.6418,-5.728,-5.3861,-5.2134,-5.1745,-4.7749,-4.589,-4.5699,-4.4878,-4.4865,-4.5205,-4.4664,-4.4255,-4.3876,-4.2902,-4.2027,-4.0713,-3.5467,-3.3594,-3.2788,0.0,0.0,0.0,0.0,0.0,0.0,0.0,0.0,0.0,0.0,0.0,0.0,0.0,0.0,0.0,0.0,0.0,0.0,0.0,0.0,0.0,0.0,-3.4741,-3.5749,-3.7393,-3.748,-3.8141,-3.9462,-3.9748,-4.0093,-4.0498,-4.0846,-4.1216,-4.1651,-4.2443,-4.3509,-4.4705,-4.5836,-4.6786,-4.7642,-4.871,0.0,0.0,0.0,0.0,0.0,-5.1224,-5.1209,0.0,-5.1109,-5.1023,-5.0851,0.0,0.0,0.0,0.0,-4.9786,-4.9412,-4.9196,-4.9005,-4.8547,-4.7232,-4.6635,-4.6161,-4.5302,-4.494,-4.4776,-4.4776,-4.4609,-4.4485,-4.4591,-4.4128,-4.3872,-4.4236,-4.3998,-4.4433,-4.6282,-5.0216,-5.4359,-5.8234,-5.8694,-5.8696,-5.8692,-5.7131,-5.5604,-5.4707,-5.468,-5.4576,-5.4341,-5.455,-5.4811,-5.5125,-5.5125,-5.5491,-5.6301,-5.5804,-5.5982,-5.6964,-5.3587,-5.1849,-5.1464,-4.7613,-4.5613,-4.5209,-4.4523,-4.4556,-4.4898,-4.4643,-4.4319,-4.4205,-4.2902,-4.2084,-4.1009,-3.5654,-3.3639,-3.2877,0.0,0.0,0.0,0.0,0.0,0.0,0.0,0.0,0.0,0.0,0.0,0.0,0.0,0.0,0.0,0.0,0.0,0.0,0.0,0.0,0.0,-3.5885,-3.5899,-3.6571,-3.8091,-3.8128,-3.8639,-3.9664,-4.0592,-4.1193,-4.1599,-4.2522,-4.3067,-4.325,-4.3858,-4.4591,-4.5438,-4.666,-4.7604,-4.837,-4.9408,0.0,0.0,0.0,0.0,0.0,0.0,0.0,0.0,-5.1014,-5.0918,-5.0752,-5.0275,0.0,0.0,0.0,0.0,0.0,-4.8712,-4.8178,-4.7644,-4.7023,-4.642,-4.5822,-4.5294,-4.5158,-4.5082,-4.4924,-4.4733,-4.4624,-4.4627,-4.4432,-4.4204,-4.4203,-4.4297,-4.5746,-4.9524,-5.1558,-5.4391,-5.9099,-5.8884,-5.8663,-5.951,-5.8016,-5.6224,-5.4367,-5.4131,-5.387,-5.3426,-5.3818,-5.4079,-5.4079,-5.4576,-5.5334,-5.6405,-5.5543,-5.5674,-5.6798,-5.3434,-5.1826,-5.1464,-4.7764,-4.5724,-4.4977,-4.4468,-4.4505,-4.4865,-4.446,-4.4421,-4.4534,-4.2991,-4.2307,-4.1398,-3.5995,-3.3858,-3.3055,0.0,0.0,0.0,0.0,0.0,0.0,0.0,0.0,0.0,0.0,0.0,0.0,0.0,0.0,0.0,0.0,0.0,0.0,0.0,0.0,0.0,-3.678,-3.6745,-3.7193,-3.8165,-3.8203,-3.8952,-4.0514,-4.0523,-4.1445,-4.3229,-4.3246,-4.3721,-4.4662,-4.57,-4.5954,-4.5715,-4.735,-4.821,-4.864,-4.9695,0.0,0.0,0.0,0.0,0.0,0.0,0.0,0.0,-5.0932,-5.0808,-5.0566,-5.0206,0.0,0.0,0.0,0.0,0.0,-4.8748,-4.8299,-4.7761,-4.7666,-4.7046,-4.6358,-4.5862,-4.618,-4.6278,-4.5428,-4.574,-4.5939,-4.514,-4.5079,-4.4915,-4.3977,-4.5223,-4.7792,-5.1654,-5.368,-5.553,-5.7318,-5.8658,-5.8713,-5.714,-5.661,-5.5767,-5.4341,-5.3792,-5.3478,-5.34,-5.3478,-5.353,-5.353,-5.3609,-5.3949,-5.4602,-5.4942,-5.5674,-5.6798,-5.3393,-5.2024,-5.2201,-4.7942,-4.5984,-4.5704,-4.4285,-4.404,-4.4351,-4.3957,-4.3656,-4.3176,-4.2315,-4.1376,-4.0326,-3.6694,-3.4545,-3.2788,0.0,0.0,0.0,0.0,0.0,0.0,0.0,0.0,0.0,0.0,0.0,0.0,0.0,0.0,0.0,0.0,0.0,0.0,0.0,-3.5491,-3.631,-3.6758,-3.7601,-3.8313,-3.8927,-3.9352,-3.9951,-4.0727,-4.1675,-4.2654,-4.3667,-4.4343,-4.5001,-4.5577,-4.6285,-4.6763,-4.7116,-4.8013,-4.8748,-4.9326,0.0,0.0,0.0,0.0,0.0,0.0,0.0,0.0,0.0,0.0,-5.0972,-5.0268,-4.9846,0.0,0.0,0.0,0.0,0.0,-4.8109,-4.7895,-4.7709,-4.7748,-4.7261,-4.6725,-4.6452,-4.6219,-4.6018,-4.6018,-4.5824,-4.5499,-4.5144,-4.5176,-4.5395,-4.5677,-4.7435,-4.9651,-5.2162,-5.3478,-5.5041,-5.7428,-5.8414,-5.8407,-5.7238,-5.7064,-5.5925,-5.3529,-5.3009,-5.2825,-5.2433,-5.269,-5.2896,-5.2896,-5.3264,-5.3658,-5.4155,-5.4184,-5.4602,-5.5386,-5.2628,-5.1117,-5.0465,-4.6879,-4.4945,-4.4525,-4.3569,-4.3607,-4.4317,-4.3954,-4.3758,-4.3652,-4.2239,-4.1264,-4.005,-3.557,-3.2297,-2.9703,0.0,0.0,0.0,0.0,0.0,0.0,0.0,0.0,0.0,0.0,0.0,0.0,0.0,0.0,0.0,0.0,0.0,0.0,0.0,-3.5625,-3.6407,-3.6525,-3.809,-3.9194,-3.9738,-4.0259,-4.0857,-4.1563,-4.2749,-4.3667,-4.4288,-4.5551,-4.6285,-4.653,-4.7052,-4.7641,-4.8294,-4.8737,-4.9314,-4.9999,0.0,0.0,0.0,0.0,0.0,0.0,0.0,0.0,0.0,0.0,0.0,0.0,0.0,0.0,0.0,-4.8383,-4.8267,-4.8148,-4.7601,-4.7629,-4.7814,-4.7796,-4.7512,-4.714,-4.7056,-4.6424,-4.6019,-4.6324,-4.5699,-4.5169,-4.5183,-4.5403,-4.6162,-4.797,-4.9787,-5.1542,-5.3026,-5.3788,-5.5331,-5.8261,-5.8438,-5.8203,-5.7724,-5.7517,-5.6032,-5.2795,-5.2358,-5.2045,-5.1622,-5.2056,-5.2286,-5.2286,-5.2686,-5.3207,-5.3853,-5.3316,-5.3581,-5.421,-5.1875,-5.022,-4.9101,-4.5969,-4.4294,-4.3589,-4.3067,-4.3284,-4.4019,-4.369,-4.3699,-4.3706,-4.2231,-4.0838,-3.9138,-3.4198,-3.0381,-2.7682,0.0,0.0,0.0,0.0,0.0,0.0,0.0,0.0,0.0,0.0,0.0,-2.8441,0.0,0.0,0.0,0.0,0.0,0.0,0.0,-3.534,-3.625,-3.6297,-3.7919,-3.9254,-4.0225,-4.0067,-4.1243,-4.3849,-4.2976,-4.3734,-4.5946,-4.687,-4.7416,-4.7727,-4.884,-4.9001,-4.8602,-4.9386,-5.0035,-5.0567,-5.0665,0.0,0.0,0.0,0.0,0.0,0.0,0.0,0.0,0.0,0.0,0.0,0.0,0.0,-4.8711,-4.8306,-4.8187,-4.8134,-4.77,-4.8014,-4.8365,-4.8128,-4.7954,-4.7774,-4.7619,-4.7528,-4.7177,-4.6224,-4.5906,-4.5769,-4.5556,-4.6191,-4.7643,-5.0105,-5.1718,-5.3552,-5.5816,-5.6578,-5.759,-5.939,-5.935,-5.8783,-5.778,-5.7005,-5.5342,-5.2765,-5.1988,-5.1648,-5.1596,-5.1622,-5.1622,-5.1622,-5.1675,-5.2082,-5.2596,-5.2596,-5.3054,-5.4184,-5.1498,-5.0149,-4.9829,-4.6252,-4.4582,-4.4438,-4.3026,-4.2679,-4.3106,-4.3089,-4.2902,-4.2519,-4.1514,-3.9751,-3.7186,-3.3328,-3.0904,-2.9118,0.0,0.0,0.0,0.0,0.0,0.0,0.0,0.0,0.0,0.0,0.0,-2.8984,-2.941,-3.0342,-3.1276,0.0,0.0,0.0,-3.3876,-3.5255,-3.6047,-3.6172,-3.7741,-3.927,-4.0651,-4.1235,-4.2384,-4.4109,-4.5244,-4.645,-4.7645,-4.8155,-4.8441,-4.858,-4.9356,-4.9542,-4.9375,-5.0007,-5.0406,-5.0625,-5.084,-5.1035,0.0,0.0,0.0,0.0,0.0,0.0,0.0,0.0,-5.0698,-4.9589,-4.9177,-4.8781,-4.8458,-4.8265,-4.8279,-4.8258,-4.7642,-4.8083,-4.8543,-4.7946,-4.8118,-4.8529,-4.8904,-4.8362,-4.7826,-4.8067,-4.7461,-4.6795,-4.6567,-4.713,-4.8488,-5.1072,-5.2822,-5.4623,-5.6665,-5.7158,-5.7652,-5.8666,-5.8892,-5.8205,-5.6381,-5.6113,-5.4781,-5.1636,-5.1492,-5.1393,-5.1138,-5.1393,-5.1596,-5.1596,-5.1596,-5.1773,-5.2003,-5.2003,-5.1814,-5.1665,-5.0248,-4.9436,-4.8984,-4.5299,-4.3665,-4.3545,-4.2415,-4.2352,-4.2919,-4.2604,-4.2584,-4.2543,-4.0366,-3.8634,-3.6885,-3.3375,-3.1037,-2.922,0.0,0.0,0.0,0.0,0.0,0.0,0.0,0.0,-2.8017,0.0,0.0,0.0,0.0,-3.0659,-3.1667,0.0,0.0,0.0,-3.378,-3.5082,-3.5903,-3.6,-3.7562,-3.9021,-4.0404,-4.1699,-4.3028,-4.4358,-4.629,-4.7667,-4.8342,-4.8516,-4.8866,-4.9283,-4.9637,-4.991,-5.0087,-5.0427,-5.0664,-5.0794,-5.1011,-5.1156,0.0,0.0,0.0,0.0,0.0,0.0,0.0,0.0,-5.0703,-4.9416,-4.8949,-4.8569,-4.8341,-4.848,-4.8472,-4.838,-4.812,-4.8416,-4.8655,-4.8078,-4.8337,-4.8815,-4.9393,-4.8686,-4.8073,-4.879,-4.8215,-4.757,-4.7286,-4.8237,-4.9735,-5.1725,-5.3693,-5.562,-5.71,-5.7303,-5.7565,-5.8232,-5.8344,-5.7599,-5.54,-5.5233,-5.3992,-5.076,-5.0851,-5.096,-5.0883,-5.1138,-5.1393,-5.1596,-5.1596,-5.1596,-5.1596,-5.1596,-5.1071,-5.015,-4.9364,-4.8714,-4.7846,-4.4595,-4.3097,-4.2979,-4.1909,-4.1855,-4.2446,-4.214,-4.207,-4.2008,-3.9493,-3.806,-3.7045,-3.354,-3.1204,-2.922,0.0,0.0,0.0,0.0,0.0,0.0,-2.7748,-2.7853,-2.7701,-2.7701,-2.7882,0.0,0.0,0.0,0.0,0.0,-3.3086,0.0,-3.3364,-3.4914,-3.582,-3.582,-3.7341,-3.8572,-3.9369,-4.1172,-4.302,-4.4912,-4.5725,-4.6675,-4.7793,-4.783,-4.8521,-4.9803,-4.9803,-5.0111,-5.0625,-5.0625,-5.0815,-5.1115,-5.1197,-5.1239,-5.1322,0.0,0.0,0.0,0.0,0.0,0.0,0.0,-5.1158,-4.9416,-4.8949,-4.8569,-4.8451,-4.9017,-4.8822,-4.8493,-4.9273,-4.909,-4.8712,-4.8754,-4.8644,-4.856,-4.879,-4.8285,-4.7985,-4.8138,-4.8049,-4.7852,-4.7582,-4.961,-5.1582,-5.1959,-5.442,-5.6607,-5.7216,-5.7303,-5.7536,-5.8203,-5.8019,-5.6964,-5.4845,-5.4228,-5.2897,-5.0069,-4.9845,-5.0198,-5.0706,-5.0732,-5.1085,-5.1596,-5.1596,-5.1596,-5.1596,-5.1596,-5.1048,-5.0062,-4.896,-4.7977,-4.6808,-4.4183,-4.3097,-4.2958,-4.1573,-4.111,-4.1549,-4.1696,-4.117,-4.0311,-3.9086,-3.8145,-3.708,-3.381,-3.1395,-2.9248,0.0,0.0,0.0,0.0,0.0,0.0,-2.7648,-2.773,-2.776,-2.7911,-2.8924,0.0,0.0,0.0,0.0,0.0,0.0,-3.3274,-3.3178,-3.4852,-3.582,-3.582,-3.7341,-3.8572,-3.9369,-4.0826,-4.3024,-4.603,-4.7079,-4.7729,-4.8084,-4.8721,-4.9273,-4.9841,-5.0647,-5.1178,-5.1491,-5.2334,-5.2768,-5.2887,-5.3029,-5.304,-5.3005,0.0,0.0,0.0,0.0,0.0,0.0,0.0,0.0,0.0,-4.9305,-4.9228,-4.9212,-4.9887,-4.9675,-4.9336,-4.9431,-4.9137,-4.8714,-4.8639,-4.842,-4.8199,-4.7961,-4.8184,-4.87,-4.9356,-4.9458,-4.9521,-4.9498,-5.0584,-5.1903,-5.3114,-5.472,-5.602,-5.7129,-5.7303,-5.7191,-5.702,-5.7042,-5.6102,-5.3552,-5.3385,-5.2069,-4.891,-4.9409,-4.9806,-4.9666,-5.0026,-5.0654,-5.157,-5.119,-5.119,-5.1596,-5.1596,-5.0766,-4.896,-4.8682,-4.7977,-4.6808,-4.4183,-4.3097,-4.2958,-4.1573,-4.111,-4.157,-4.1735,-4.1113,-3.9915,-3.8975,-3.8145,-3.708,-3.4487,-3.19,-2.9248,0.0,0.0,0.0,0.0,0.0,0.0,-2.7596,-2.776,-2.7988,-2.8422,-2.9302,-3.0238,0.0,0.0,0.0,-3.305,-3.3593,-3.3804,-3.3713,-3.5322,-3.629,-3.629,-3.7486,-3.8604,-3.9504,-4.0368,-4.2224,-4.5078,-4.648,-4.7387,-4.7763,-4.901,-4.9731,-4.9987,-5.0788,-5.1488,-5.2085,-5.2807,-5.3359,-5.3716,-5.3458,-5.3546,-5.3682,0.0,0.0,0.0,0.0,0.0,0.0,0.0,0.0,0.0,-4.9123,-4.9441,-4.9907,-4.9988,-4.9872,-4.9706,-4.9657,-4.9222,-4.874,-4.8513,-4.8289,-4.81,-4.785,-4.8622,-4.9671,-5.0608,-5.0846,-5.0964,-5.1199,-5.1912,-5.2909,-5.3994,-5.5294,-5.6398,-5.7187,-5.7075,-5.676,-5.6076,-5.6044,-5.4825,-5.1792,-5.1815,-5.0729,-4.7581,-4.8314,-4.8865,-4.8784,-4.9264,-5.0038,-5.0917,-5.0643,-5.0654,-5.0909,-5.1138,-5.0181,-4.8093,-4.8445,-4.7678,-4.6271,-4.4068,-4.3097,-4.2979,-4.1686,-4.1293,-4.1421,-4.1416,-4.0841,-3.9745,-3.878,-3.7986,-3.7098,-3.4981,-3.2263,-2.9426,0.0,0.0,-2.4927,-2.6367,0.0,-2.6929,-2.7596,-2.7917,-2.8351,-2.9095,-2.936,-3.0053,0.0,0.0,0.0,-3.3122,-3.4032,-3.4624,-3.4666,-3.6146,-3.7011,-3.7011,-3.7812,-3.8707,-3.9552,-4.0093,-4.1111,-4.2797,-4.4749,-4.6148,-4.7049,-4.8909,-4.9962,-5.0206,-5.064,-5.145,-5.2524,-5.2709,-5.3305,-5.4061,-5.3284,-5.3355,-5.3813,-5.2962,0.0,0.0,0.0,0.0,0.0,0.0,0.0,0.0,-4.8827,-4.9481,-5.0578,-4.9919,-4.9749,-4.983,-4.9866,-4.9342,-4.8707,-4.8413,-4.8158,-4.7959,-4.8084,-4.9151,-5.0455,-5.1699,-5.2121,-5.2347,-5.2674,-5.3508,-5.4272,-5.4582,-5.6163,-5.7303,-5.7274,-5.6731,-5.6019,-5.5278,-5.4939,-5.3388,-4.9829,-5.0027,-4.9044,-4.6206,-4.6737,-4.7531,-4.8068,-4.8634,-4.9238,-4.9924,-4.9811,-4.9914,-4.9914,-5.0571,-4.9672,-4.7645,-4.8231,-4.7447,-4.5347,-4.3814,-4.2958,-4.2883,-4.1981,-4.136,-4.0993,-4.1109,-4.0529,-3.9745,-3.8481,-3.7685,-3.6955,-3.5059,-3.2564,-2.9512,0.0,0.0,-2.6226,-2.6542,0.0,0.0,-2.7695,-2.8376,-2.8924,-2.9101,-3.0229,-3.1209,-3.1658,-3.2384,0.0,-3.382,-3.4326,-3.478,-3.5267,-3.6371,-3.7011,-3.7011,-3.8355,-3.9034,-3.8784,-4.0872,-4.1971,-4.1977,-4.4458,-4.6148,-4.7049,-4.8909,-4.9962,-5.0283,-5.1851,-5.2838,-5.3414,-5.4852,-5.5609,-5.5857,-5.578,-5.5301,-5.4696,-5.518,-5.4044,0.0,0.0,0.0,0.0,0.0,0.0,0.0,-5.0045,-5.0671,-5.1366,-5.1318,-5.0904,-5.04,-5.0007,-4.9243,-4.8399,-4.7721,-4.6932,-4.6548,-4.7605,-4.84,-4.9494,-5.103,-5.2733,-5.3943,-5.4036,-5.5078,-5.5869,-5.6006,-5.6683,-5.7104,-5.6618,-5.6047,-5.516,-5.407,-5.3437,-5.2033,-4.9392,-4.9218,-4.8311,-4.591,-4.627,-4.6933,-4.7432,-4.7611,-4.842,-4.9871,-4.9508,-4.9522,-4.9943,-5.0472,-4.975,-4.7681,-4.8199,-4.7447,-4.5347,-4.3814,-4.2398,-4.1352,-4.1269,-4.1062,-4.0993,-4.0781,-4.0197,-3.9272,-3.8322,-3.7188,-3.5646,-3.4725,-3.2067,-2.867,0.0,0.0,0.0,0.0,0.0,0.0,0.0,0.0,-2.9243,-2.9632,-3.0792,-3.1773,-3.2192,-3.2742,0.0,0.0,-3.4794,-3.5462,-3.6194,-3.7054,-3.7739,-3.8101,-3.9034,-3.9568,-3.9626,-4.1656,-4.2753,-4.2909,-4.5341,-4.6749,-4.724,-4.9124,-5.0135,-5.0423,-5.1607,-5.2717,-5.3723,-5.4272,-5.5038,-5.5818,-5.4981,-5.4497,-5.4289,-5.4258,-5.3258,-5.199,-5.2532,0.0,0.0,0.0,0.0,0.0,0.0,0.0,-5.1987,-5.1384,-5.0996,-5.0552,-5.0032,-4.9215,-4.8236,-4.7237,-4.6643,-4.6487,-4.706,-4.7951,-4.9133,-5.069,-5.2347,-5.378,-5.4416,-5.5031,-5.5596,-5.5887,-5.6156,-5.6133,-5.5593,-5.4873,-5.4042,-5.2705,-5.2307,-5.0972,-4.8336,-4.8326,-4.7537,-4.5336,-4.5737,-4.624,-4.6473,-4.6746,-4.751,-4.8615,-4.8393,-4.8563,-4.9059,-4.9982,-4.9308,-4.7248,-4.8093,-4.7021,-4.4228,-4.3514,-4.2116,-4.0658,-4.0827,-4.0913,-4.0654,-4.0086,-3.9713,-3.9254,-3.7946,-3.6654,-3.5572,-3.4622,-3.1812,-2.7976,0.0,0.0,0.0,0.0,0.0,0.0,0.0,0.0,0.0,-3.0344,-3.1253,-3.2094,-3.2763,-3.3104,-3.3625,0.0,0.0,0.0,-3.7123,-3.7812,-3.857,-3.9402,-3.9747,-4.0313,-4.1217,-4.2736,-4.3908,-4.4685,-4.6814,-4.7922,-4.8125,-4.9587,-5.0363,-5.0645,-5.1095,-5.2136,-5.3553,-5.3027,-5.3666,-5.4909,-5.3351,-5.2977,-5.3251,-5.2585,-5.2064,-5.1644,-5.1327,-5.0493,-4.9435,-4.9074,0.0,0.0,0.0,0.0,-5.2371,-5.1138,-5.0769,-5.0557,-4.9971,-4.9058,-4.7981,-4.6913,-4.6693,-4.6658,-4.646,-4.7464,-4.8709,-5.0028,-5.1512,-5.303,-5.4253,-5.4504,-5.4701,-5.5324,-5.5357,-5.4991,-5.4426,-5.3704,-5.2734,-5.1621,-5.1258,-5.0038,-4.723,-4.7503,-4.681,-4.467,-4.4961,-4.5362,-4.5576,-4.6117,-4.6579,-4.7158,-4.7302,-4.7535,-4.8003,-4.9296,-4.8906,-4.6786,-4.7533,-4.63,-4.3097,-4.2958,-4.1997,-4.0371,-4.0747,-4.0644,-4.0215,-3.9433,-3.9099,-3.8966,-3.7449,-3.6333,-3.551,-3.4767,-3.1599,-2.7459,0.0,0.0,0.0,0.0,0.0,0.0,0.0,0.0,0.0,0.0,-3.1806,-3.2401,-3.2639,-3.3407,-3.4354,-3.5238,-3.6262,-3.716,-3.7993,0.0,0.0,-3.963,-4.0357,-4.1351,-4.2597,-4.4929,-4.6284,-4.6615,-4.8569,-4.9974,-5.0947,-5.0675,-5.0567,-5.0645,-5.1674,-5.233,-5.2718,-5.3436,-5.3813,-5.3974,-5.3747,-5.3081,-5.2369,-5.2972,-5.2236,-5.0855,-5.0932,-5.0328,-4.9512,-4.9557,-5.0042,0.0,0.0,0.0,-5.2444,-5.17,-5.1095,-5.0545,-4.982,-4.8513,-4.7176,-4.652,-4.6181,-4.5837,-4.5521,-4.6279,-4.7424,-4.8692,-5.086,-5.303,-5.4253,-5.4504,-5.465,-5.536,-5.4972,-5.4439,-5.3772,-5.2661,-5.1611,-5.0857,-5.0496,-4.9262,-4.669,-4.6685,-4.6055,-4.4196,-4.4136,-4.4561,-4.5549,-4.5652,-4.5998,-4.6591,-4.71,-4.7341,-4.7367,-4.9072,-4.8833,-4.6776,-4.6107,-4.48,-4.3097,-4.2678,-4.1714,-4.0351,-4.0403,-4.0184,-3.9781,-3.9012,-3.8513,-3.8126,-3.747,-3.5893,-3.4199,-3.4716,-3.1467,-2.6592,0.0,0.0,0.0,0.0,0.0,0.0,0.0,0.0,0.0,0.0,0.0,-3.3346,-3.3446,-3.439,-3.5375,-3.6266,-3.6729,-3.7341,-3.8138,-3.874,-3.9455,-4.0321,-4.1451,-4.2736,-4.4184,-4.5941,-4.7199,-4.7909,-4.934,-5.0627,-5.1698,-5.1604,-5.179,-5.2314,-5.2862,-5.318,-5.3273,-5.3243,-5.3163,-5.3039,-5.2521,-5.195,-5.1447,-5.1773,-5.1298,-5.0375,-5.0193,-5.0023,-4.9923,-4.9728,-5.0339,-5.1234,-5.1511,0.0,0.0,0.0,-5.1401,-5.0316,-4.9127,-4.8294,-4.7408,-4.6225,-4.6034,-4.5853,-4.514,-4.5689,-4.6778,-4.7946,-4.9126,-5.0486,-5.2499,-5.282,-5.3001,-5.325,-5.278,-5.2289,-5.1991,-5.0796,-5.0067,-5.0311,-4.9669,-4.8538,-4.6879,-4.6862,-4.6084,-4.4197,-4.4227,-4.4561,-4.5122,-4.5122,-4.549,-4.6473,-4.6699,-4.712,-4.7782,-4.927,-4.9234,-4.7685,-4.5773,-4.409,-4.3097,-4.2257,-4.1126,-4.0043,-4.0051,-3.9662,-3.909,-3.8517,-3.8061,-3.7529,-3.6377,-3.5204,-3.4134,-3.377,-3.0405,-2.5885,0.0,0.0,0.0,0.0,0.0,0.0,0.0,0.0,0.0,0.0,0.0,-3.4046,-3.4044,0.0,0.0,0.0,-3.7094,-3.7525,-3.8138,-3.913,-4.0061,-4.0965,-4.2217,-4.3797,-4.5693,-4.6548,-4.7608,-4.8894,-4.9782,-5.0922,-5.2223,-5.25,-5.3261,-5.4294,-5.3961,-5.3715,-5.3545,-5.2923,-5.2434,-5.208,-5.1348,-5.1066,-5.1134,-5.0971,-5.0891,-5.0755,-4.9963,-4.9959,-5.0259,-5.0005,-5.0538,-5.139,-5.1801,-5.218,0.0,0.0,0.0,-5.003,-4.8606,-4.8199,-4.7737,-4.6029,-4.5919,-4.5996,-4.4646,-4.5198,-4.625,-4.7286,-4.7556,-4.823,-5.0287,-5.0801,-5.0927,-5.1144,-5.0549,-5.0125,-5.0095,-4.9049,-4.8528,-4.9135,-4.8731,-4.7854,-4.6483,-4.6643,-4.6024,-4.4135,-4.4335,-4.4561,-4.4722,-4.4722,-4.514,-4.6003,-4.6299,-4.6872,-4.7754,-4.8687,-4.8761,-4.802,-4.5368,-4.3675,-4.284,-4.1693,-4.0698,-3.9734,-3.9493,-3.9062,-3.8471,-3.7857,-3.744,-3.7054,-3.5435,-3.4618,-3.4324,-3.3056,-2.9907,-2.6025,0.0,0.0,0.0,0.0,0.0,0.0,0.0,0.0,0.0,0.0,0.0,-3.3876,-3.4011,-3.54,-3.6468,-3.6712,-3.7395,-3.7967,-3.8174,-3.913,-4.0157,-4.1219,-4.2344,0.0,-4.6832,-4.6974,-4.7871,-4.9728,-5.0121,-5.1272,-5.3148,-5.3456,-5.4577,-5.6182,-5.4546,-5.3401,-5.2663,-5.2562,-5.1975,-5.1058,-5.0969,-5.1299,-5.1798,-5.1561,-5.1926,-5.236,-5.0798,-5.0296,-5.035,-5.063,-5.0623,-5.0721,-5.2245,-5.2625,-5.248,0.0,0.0,0.0,-4.8562,-4.8067,-4.7572,-4.5767,-4.5792,-4.5856,-4.4088,-4.4523,-4.5483,-4.6486,-4.678,-4.7105,-4.8117,-4.8581,-4.9017,-4.9658,-4.9231,-4.8702,-4.8292,-4.7709,-4.7109,-4.6745,-4.7381,-4.7046,-4.4719,-4.5483,-4.5391,-4.3635,-4.3738,-4.4162,-4.4722,-4.4722,-4.4748,-4.4826,-4.5857,-4.6482,-4.6578,-4.6828,-4.6895,-4.6631,-4.4913,-4.3397,-4.1997,-4.131,-4.0433,-3.9714,-3.903,-3.8467,-3.7901,-3.6849,-3.6412,-3.654,-3.5326,-3.4703,-3.4356,-3.3315,-3.0993,-2.7858,0.0,0.0,0.0,0.0,0.0,0.0,0.0,0.0,0.0,0.0,0.0,0.0,0.0,-3.6435,-3.7256,-3.7433,-3.7993,-3.8554,-3.913,-4.0314,-4.1401,-4.2307,-4.3332,-4.4899,-4.6974,-4.7174,-4.8174,-5.0062,-5.0347,-5.1221,-5.264,-5.278,-5.3822,-5.5567,-5.5488,-5.4685,-5.339,-5.3327,-5.242,-5.091,-5.0914,-5.0971,-5.1182,-5.1423,-5.1547,-5.1584,-5.1301,-5.1381,-5.1597,-5.156,-5.1761,-5.2023,-5.2509,-5.2589,-5.2315,-5.1431,-5.0424,-4.9424,-4.8463,-4.8067,-4.7737,-4.6586,-4.6126,-4.5703,-4.4789,-4.4436,-4.4402,-4.5167,-4.5608,-4.5962,-4.6373,-4.7372,-4.8219,-4.8458,-4.7678,-4.7148,-4.7462,-4.6402,-4.5802,-4.6652,-4.6721,-4.6078,-4.4469,-4.5402,-4.5227,-4.3372,-4.395,-4.4535,-4.4722,-4.4722,-4.5062,-4.582,-4.6652,-4.7642,-4.87,-4.7453,-4.6768,-4.6477,-4.4483,-4.2818,-4.1551,-4.0576,-3.9714,-3.9011,-3.8136,-3.7696,-3.7568,-3.6664,-3.5923,-3.5383,-3.4109,-3.3385,-3.3014,-3.1827,-3.0027,-2.7621,0.0,0.0,0.0,-2.9176,0.0,-3.072,-3.1493,-3.2265,-3.3002,-3.353,0.0,0.0,0.0,0.0,-3.7685,-3.7967,-3.8401,-3.8982,-3.9785,-4.1,-4.2052,-4.2872,-4.3933,-4.5172,-4.6523,-4.7095,-4.8175,-4.9786,-5.0355,-5.1222,-5.2343,-5.2416,-5.3259,-5.4713,-5.5335,-5.5109,-5.4214,-5.3886,-5.2949,-5.1722,-5.1357,-5.151,-5.199,-5.2131,-5.2219,-5.2171,-5.2027,-5.2074,-5.2268,-5.2149,-5.227,-5.255,-5.2727,-5.2444,-5.1921,-5.0823,-4.9939,-4.9153,-4.8397,-4.8067,-4.7803,-4.7012,-4.641,-4.589,-4.5105,-4.4527,-4.4227,-4.4443,-4.488,-4.523,-4.528,-4.6077,-4.6934,-4.7347,-4.6579,-4.5962,-4.6369,-4.5237,-4.4769,-4.594,-4.6107,-4.5669,-4.4571,-4.5627,-4.5503,-4.3598,-4.4196,-4.483,-4.4938,-4.523,-4.5972,-4.7383,-4.7745,-4.8525,-4.9685,-4.7727,-4.6391,-4.58,-4.371,-4.2116,-4.1004,-4.0146,-3.9281,-3.8574,-3.7696,-3.7255,-3.696,-3.6052,-3.5228,-3.4277,-3.3139,-3.2545,-3.2173,-3.0966,-2.9771,-2.8335,-2.7736,-2.8368,-2.9176,-2.9983,-3.0756,-3.1493,-3.23,-3.3073,-3.36,-3.3846,0.0,0.0,0.0,0.0,0.0,-3.8201,-3.8652,-3.929,-4.0067,-4.1155,-4.2126,-4.2938,-4.3971,-4.4909,-4.5697,-4.6857,-4.7971,-4.9067,-5.0183,-5.1276,-5.2378,-5.2512,-5.3034,-5.3867,-5.393,-5.439,-5.5013,-5.4019,-5.3494,-5.3271,-5.2319,-5.2972,-5.437,-5.3742,-5.3951,-5.4365,-5.2939,-5.238,-5.2342,-5.2348,-5.2178,-5.2154,-5.278,-5.2253,-5.1239,-5.0666,-4.9848,-4.9029,0.0,0.0,0.0,-4.7045,-4.6848,-4.6377,-4.4926,-4.4807,-4.497,-4.4452,-4.4791,-4.5112,-4.465,-4.4739,-4.525,-4.6344,-4.5809,-4.5138,-4.5001,-4.4388,-4.4038,-4.4288,-4.548,-4.5903,-4.4795,-4.6083,-4.6326,-4.4516,-4.46,-4.4938,-4.5502,-4.6168,-4.7349,-4.9033,-4.9087,-4.905,-4.9125,-4.7352,-4.5845,-4.4454,-4.2732,-4.1431,-4.0289,-3.9858,-3.9281,-3.8428,-3.7696,-3.696,-3.6052,-3.5306,-3.4498,-3.3664,-3.2585,-3.2073,-3.1667,-3.0795,-3.0447,-2.9873,-2.8579,-2.9211,-3.0018,-3.0756,-3.1563,-3.2335,-3.3108,-3.388,-3.4582,0.0,0.0,0.0,-3.6696,-3.7398,-3.7998,-3.8455,-3.9401,-4.0337,-4.1192,-4.2277,-4.3212,-4.4037,-4.4918,-4.5848,-4.6895,-4.8009,-4.9089,-5.0183,-5.0742,-5.1192,-5.1511,-5.162,-5.2136,-5.2969,-5.3031,-5.3429,-5.4008,-5.3715,-5.3088,-5.2358,-5.2684,-5.2982,-5.3197,-5.3432,-5.3475,-5.3414,-5.3423,-5.338,-5.3272,-5.3082,-5.289,-5.2725,-5.2672,-5.1845,-5.0868,-5.0666,-4.9746,-4.8664,-4.846,0.0,0.0,0.0,0.0,0.0,-4.627,-4.5642,-4.5091,-4.4588,-4.4869,-4.5005,-4.4482,-4.4501,-4.4862,-4.5531,-4.4798,-4.4198,-4.4228,-4.3788,-4.3718,-4.4191,-4.5476,-4.5756,-4.4478,-4.5916,-4.6201,-4.415,-4.4411,-4.4722,-4.4938,-4.591,-4.7113,-4.8391,-4.8391,-4.8683,-4.9098,-4.6731,-4.496,-4.4068,-4.207,-4.0506,-3.9414,-3.8997,-3.8282,-3.7255,-3.6793,-3.5921,-3.4875,-3.4406,-3.372,-3.3041,-3.1888,-3.1272,-3.0836,-3.0465,-3.0308,-2.9619,-2.9351,-3.0018,-3.0791,-3.1563,-3.2335,-3.3108,-3.388,-3.4653,-3.532,0.0,0.0,0.0,-3.7206,-3.8114,-3.8725,-3.8743,-4.0151,-4.1268,-4.1791,-4.2752,-4.367,-4.4458,-4.5284,-4.6064,-4.6834,-4.8266,-4.935,-5.0085,-5.0815,-5.1162,-5.1186,-5.1297,-5.1599,-5.2103,-5.2069,-5.2255,-5.255,-5.2831,-5.2988,-5.299,-5.2982,-5.3307,-5.3786,-5.3829,-5.3704,-5.3474,-5.372,-5.3714,-5.3604,-5.3495,-5.3262,-5.2968,-5.2699,-5.1736,-5.0677,-5.0666,-4.9678,-4.85,-4.8494,-4.8265,-4.8001,-4.8001,0.0,0.0,-4.651,-4.5911,-4.5175,-4.4174,-4.4395,-4.4539,-4.3834,-4.4057,-4.4241,-4.4333,-4.3842,-4.3604,-4.4068,-4.3678,-4.3608,-4.4594,-4.5913,-4.6255,-4.511,-4.6406,-4.655,-4.4439,-4.4539,-4.504,-4.5757,-4.6747,-4.7713,-4.8879,-4.8912,-4.8983,-4.8842,-4.6312,-4.4563,-4.3752,-4.1417,-3.9718,-3.8923,-3.8747,-3.7843,-3.6516,-3.6349,-3.5306,-3.382,-3.3348,-3.2747,-3.2347,-3.1235,-3.0616,-3.034,-3.0121,-2.9986,-2.8973,0.0,-3.0896,-3.1668,-3.2406,-3.3213,-3.3986,-3.4688,-3.546,-3.5952,0.0,-3.6587,-3.7203,-3.7649,-3.8958,-3.959,-3.9135,-4.0979,-4.2168,-4.2168,-4.2956,-4.3745,-4.4496,-4.5359,-4.5978,-4.6252,-4.8159,-4.9296,-4.9616,-5.0658,-5.1218,-5.1206,-5.1324,-5.1402,-5.1371,-5.1278,-5.1113,-5.1035,-5.1702,-5.2875,-5.4216,-5.3221,-5.3811,-5.5183,-5.456,-5.4228,-5.405,-5.3833,-5.3678,-5.3561,-5.3641,-5.3382,-5.2981,-5.2744,-5.1777,-5.0717,-5.0641,-4.9582,-4.85,-4.8494,-4.8265,-4.8001,-4.8001,-4.8001,0.0,-4.6269,-4.5985,-4.5516,-4.3997,-4.399,-4.4086,-4.3429,-4.3596,-4.3694,-4.323,-4.314,-4.3349,-4.4107,-4.3778,-4.3898,-4.5155,-4.6471,-4.6962,-4.6123,-4.7207,-4.6991,-4.483,-4.48,-4.5516,-4.7176,-4.7835,-4.8595,-4.9756,-4.9783,-4.9328,-4.8521,-4.5846,-4.4159,-4.3356,-4.0636,-3.9049,-3.8437,-3.8389,-3.7549,-3.6052,-3.6052,-3.4857,-3.3044,-3.2266,-3.1879,-3.1638,-3.068,-3.0137,-2.9884,-2.9631,-2.9392,-2.8668,-3.0826,-3.209,-3.3108,-3.3283,-3.4442,-3.5425,-3.5565,-3.6268,-3.6759,-3.6759,-3.7055,-3.7503,-3.8099,-3.915,-3.9963,-4.0397,-4.204,-4.3031,-4.3031,-4.382,-4.4346,-4.4496,-4.596,-4.6927,-4.7373,-4.9105,-5.0298,-5.0773,-5.1053,-5.1225,-5.1293,-5.1364,-5.1402,-5.1371,-5.1278,-5.1113,-5.0996,-5.1097,-5.1857,-5.3082,-5.3531,-5.4204,-5.4866,-5.4463,-5.4125,-5.3833,-5.3794,-5.3756,-5.3678,-5.3474,-5.3188,-5.29,-5.2245,-5.1457,-5.0745,-5.023,-4.9447,-4.8697,-4.8527,-4.8298,-4.8166,-4.8034,-4.8001,0.0,-4.7638,-4.7571,-4.7304,-4.633,-4.6237,-4.6,-4.529,-4.5055,-4.4861,-4.4312,-4.4051,-4.3879,-4.3509,-4.3868,-4.4407,-4.5185,-4.6471,-4.6962,-4.6123,-4.6714,-4.655,-4.4804,-4.5166,-4.5741,-4.6645,-4.7118,-4.781,-4.8521,-4.8289,-4.8029,-4.7938,-4.4374,-4.2593,-4.2454,-3.9595,-3.7885,-3.7416,-3.7226,-3.6645,-3.5605,-3.5025,-3.3971,-3.2588,-3.184,-3.1433,-3.1045,-2.9837,-2.9798,-3.0177,-2.9366,-2.9229,-2.8513,-3.1633,-3.2722,-3.3634,-3.4021,-3.5039,-3.5952,-3.6338,-3.6724,-3.697,-3.697,-3.7517,-3.814,-3.8869,-4.0122,-4.0914,-4.0881,-4.2726,-4.368,-4.3332,-4.4045,-4.4496,-4.4496,-4.6214,-4.7365,-4.775,-4.9565,-5.0678,-5.1089,-5.1217,-5.1263,-5.1297,-5.1367,-5.1385,-5.1347,-5.1178,-5.1042,-5.0959,-5.1283,-5.1991,-5.297,-5.3086,-5.3698,-5.4528,-5.4196,-5.3981,-5.3794,-5.3794,-5.3794,-5.368,-5.3429,-5.2988,-5.2473,-5.2005,-5.124,-5.0311,-5.0011,-4.9351,-4.8793,-4.8556,-4.8394,-4.8196,-4.8131,-4.8066,0.0,0.0,-4.7471,-4.7202,-4.641,-4.6269,-4.6198,-4.5881,-4.5706,-4.5416,-4.4887,-4.4662,-4.4312,-4.3723,-4.3708,-4.4077,-4.4736,-4.5992,-4.6491,-4.5577,-4.6406,-4.6311,-4.4778,-4.5297,-4.5872,-4.6447,-4.7022,-4.7597,-4.8172,-4.7821,-4.7324,-4.644,-4.366,-4.1919,-4.1243,-3.8677,-3.7358,-3.6922,-3.6607,-3.5921,-3.5025,-3.4122,-3.3061,-3.1993,-3.1071,-3.0541,-3.0027,-2.922,-2.9327,-2.99,-2.9032,-2.8699,-2.8176,-3.2476,-3.3213,-3.3986,-3.4758,-3.553,-3.6268,-3.69,-3.711,-3.7251,-3.7391,-3.8153,-3.8911,-3.9708,-4.118,-4.1962,-4.1682,-4.3483,-4.4374,-4.3792,-4.4355,-4.4731,-4.4721,-4.6452,-4.7591,-4.8022,-4.9778,-5.0851,-5.1102,-5.1232,-5.1297,-5.1297,-5.1363,-5.1362,-5.1323,-5.1278,-5.1244,-5.1213,-5.1913,-5.2585,-5.3222,-5.2661,-5.3225,-5.4364,-5.4017,-5.387,-5.3794,-5.3794,-5.383,-5.3866,-5.347,-5.2944,-5.2457,-5.1953,-5.1141,-5.0264,-4.9841,-4.9385,-4.8962,-4.8647,-4.8453,-4.8289,-4.8292,-4.8196,-4.7968,0.0,0.0,0.0,-4.6378,-4.6269,-4.6237,-4.6346,-4.6416,-4.6205,-4.5593,-4.5227,-4.4887,-4.4266,-4.3723,-4.3648,-4.4308,-4.5436,-4.5873,-4.5099,-4.6252,-4.6373,-4.4961,-4.5647,-4.6251,-4.6604,-4.7064,-4.7638,-4.8212,-4.7859,-4.6907,-4.5257,-4.3341,-4.157,-4.0119,-3.8167,-3.7038,-3.6553,-3.6164,-3.5324,-3.4122,-3.3348,-3.2283,-3.1087,-3.036,-2.9641,-2.9058,-2.872,-2.898,-2.9379,-2.8496,-2.8168,-2.7814,-3.3354,-3.4021,-3.4793,-3.5565,-3.6338,-3.6865,-3.7009,-3.7532,-3.8234,-3.8971,-3.9276,-3.9711,-4.042,-4.1464,-4.257,-4.3818,-4.4797,-4.5372,-4.5319,-4.5423,-4.5527,-4.5547,-4.6755,-4.7832,-4.8815,-5.0067,-5.0835,-5.1101,-5.1225,-5.1297,-5.1297,-5.1363,-5.141,-5.1406,-5.1979,-5.2185,-5.2175,-5.2872,-5.3276,-5.3452,-5.3366,-5.3905,-5.4716,-5.4364,-5.4054,-5.3794,-5.3794,-5.4238,-5.4603,-5.378,-5.3781,-5.3759,-5.1847,-5.1494,-5.1381,-4.9603,-4.9492,-4.9767,-4.8938,-4.8769,-4.8707,-4.8483,-4.8483,-4.842,-4.8356,0.0,-4.8258,-4.8194,0.0,-4.8194,-4.8194,0.0,0.0,-4.7172,-4.6486,-4.5809,-4.511,-4.4419,-4.4152,-4.4819,-4.5368,-4.5619,-4.5317,-4.6117,-4.6404,-4.559,-4.7215,-4.7779,-4.6887,-4.7315,-4.7741,-4.8094,-4.7733,-4.6959,-4.5621,-4.364,-4.1437,-3.9392,-3.8062,-3.6758,-3.5705,-3.5758,-3.4857,-3.3348,-3.2892,-3.167,-3.0159,-2.9964,-2.9341,-2.8557,-2.8557,-2.8813,-2.9045,-2.7985,-2.7814,-2.7257,-3.3494,-3.4477,-3.546,-3.5776,-3.6478,-3.697,-3.697,-3.7637,-3.855,-3.9814,-4.0074,-4.0382,-4.11,-4.174,-4.2703,-4.4118,-4.4761,-4.543,-4.6225,-4.6293,-4.6323,-4.6448,-4.7669,-4.8556,-4.9039,-5.0272,-5.1023,-5.1152,-5.1252,-5.1307,-5.1363,-5.1396,-5.1367,-5.1375,-5.2028,-5.2304,-5.2327,-5.3513,-5.404,-5.4115,-5.4421,-5.4676,-5.4746,-5.4231,-5.3944,-5.3868,-5.4351,-5.4684,-5.4865,-5.4211,-5.377,-5.3243,-5.154,-5.1083,-5.0935,-4.9501,-4.965,-5.0091,-4.9034,-4.8769,-4.8769,-4.8707,-4.8547,-4.8547,-4.8644,-4.8547,-4.8483,-4.8483,0.0,0.0,0.0,0.0,0.0,0.0,-4.7306,-4.6625,-4.5624,-4.4962,-4.4588,-4.4461,-4.532,-4.5903,-4.5959,-4.6394,-4.6139,-4.4978,-4.6972,-4.7588,-4.6269,-4.7313,-4.794,-4.8077,-4.7922,-4.6759,-4.4454,-4.288,-4.075,-3.8447,-3.7096,-3.6017,-3.5519,-3.5103,-3.4122,-3.274,-3.2146,-3.1181,-2.9964,-2.9468,-2.8859,-2.8359,-2.8538,-2.8622,-2.8522,-2.8002,-2.7133,-2.5788,-3.4126,-3.5039,-3.5881,-3.6092,-3.6619,-3.711,-3.7567,-3.8093,-3.9006,-4.0586,-4.0797,-4.1121,-4.1991,-4.2328,-4.3104,-4.4489,-4.5113,-4.5793,-4.6719,-4.7011,-4.7222,-4.7429,-4.8427,-4.9171,-4.9508,-5.0526,-5.1139,-5.1152,-5.1263,-5.131,-5.1365,-5.1394,-5.1352,-5.1303,-5.2241,-5.2615,-5.264,-5.4208,-5.4754,-5.4594,-5.5033,-5.4895,-5.4463,-5.4018,-5.3794,-5.3905,-5.4723,-5.5169,-5.5275,-5.4865,-5.4182,-5.3338,-5.1776,-5.1137,-5.0729,-4.9615,-4.9835,-5.0215,-4.9221,-4.8894,-4.8894,-4.8832,-4.8769,-4.8673,-4.8832,-4.8769,-4.861,-4.861,-4.861,0.0,0.0,0.0,-4.8736,-4.8289,0.0,-4.7104,-4.6127,-4.5405,-4.4768,-4.422,-4.5364,-4.631,-4.6718,-4.7319,-4.6998,-4.5257,-4.7217,-4.7618,-4.577,-4.7019,-4.779,-4.7943,-4.7883,-4.6384,-4.353,-4.2458,-4.0327,-3.7383,-3.6365,-3.563,-3.5174,-3.4423,-3.3365,-3.2299,-3.1379,-3.0483,-2.9542,-2.8833,-2.8543,-2.8247,-2.8541,-2.8472,-2.8011,-2.7953,-2.6568,-2.443,-3.5741,-3.5776,-3.6057,-3.6829,-3.697,-3.7496,-3.9006,-3.9252,-3.9814,-4.1358,-4.1569,-4.2027,-4.3202,-4.3351,-4.4012,-4.5627,-4.647,-4.6872,-4.6701,-4.7479,-4.8145,-4.8526,-4.8829,-4.9482,-5.0528,-5.0921,-5.1075,-5.1088,-5.1232,-5.1297,-5.1301,-5.1363,-5.1347,-5.1281,-5.2874,-5.3469,-5.3481,-5.5075,-5.5361,-5.4798,-5.4806,-5.443,-5.3832,-5.3794,-5.3794,-5.3905,-5.4723,-5.554,-5.6166,-5.5631,-5.5412,-5.4957,-5.2766,-5.2001,-5.1563,-4.9973,-5.0017,-5.04,-4.9433,-4.9168,-4.9168,-4.9018,-4.9018,-4.9018,-4.8984,-4.9018,-4.9018,-4.9018,-4.9018,-4.9018,-4.8984,-4.9107,-4.9107,-4.8984,-4.7868,0.0,0.0,-4.5551,-4.4572,-4.4572,-4.5793,-4.6961,-4.7538,-4.9243,-4.9293,-4.724,-4.8664,-4.8518,-4.5984,-4.6622,-4.7257,-4.7408,-4.7572,-4.6191,-4.3061,-4.2922,-4.0696,-3.6182,-3.6182,-3.5605,-3.4441,-3.3668,-3.2588,-3.1395,-3.0454,-2.9546,-2.8776,-2.8579,-2.8412,-2.8288,-2.8314,-2.7972,-2.7673,-2.7953,-2.6399,-2.408,-3.6478,-3.6584,-3.6689,-3.6935,-3.697,-3.7496,-3.9076,-3.9743,-4.0797,-4.2868,-4.3114,-4.3652,-4.5094,-4.5569,-4.6342,-4.7647,-4.7821,-4.8237,-4.9027,-4.8903,-4.894,-4.9315,-4.9619,-5.0057,-5.0661,-5.0937,-5.1136,-5.1232,-5.1279,-5.1318,-5.1364,-5.1385,-5.1347,-5.1273,-5.2891,-5.3532,-5.352,-5.5075,-5.5508,-5.5064,-5.4654,-5.4231,-5.3794,-5.3794,-5.4128,-5.4723,-5.5577,-5.6395,-5.7019,-5.63,-5.5942,-5.5426,-5.3655,-5.279,-5.2196,-5.1049,-5.0754,-5.0686,-5.023,-5.0161,-5.01,-4.9949,-4.9949,-4.9814,-4.9243,-4.9107,-4.9168,-4.929,-4.929,-4.929,-4.9168,-4.929,-4.929,-4.9046,-4.8256,-4.7506,0.0,-4.5551,-4.491,-4.5803,-4.6364,-4.7022,-4.7969,-4.8316,-4.7574,-4.5603,-4.6114,-4.6024,-4.4869,-4.5817,-4.6612,-4.7055,-4.7426,-4.6037,-4.2966,-4.1988,-3.9737,-3.6201,-3.5324,-3.4574,-3.3668,-3.3061,-3.1977,-3.0454,-2.9974,-2.9336,-2.8565,-2.8191,-2.8331,-2.852,-2.8312,-2.8101,-2.7776,-2.7862,-2.6464,-2.3947,-3.69,-3.697,-3.697,-3.697,-3.7216,-3.7812,-3.9111,-4.0446,-4.192,-4.3676,-4.4378,-4.522,-4.652,-4.7074,-4.777,-4.867,-4.9025,-4.9381,-4.9884,-4.9986,-5.0128,-5.0339,-5.0811,-5.1289,-5.1691,-5.1586,-5.1586,-5.1687,-5.144,-5.1322,-5.1394,-5.1382,-5.1297,-5.1191,-5.2858,-5.349,-5.3415,-5.4912,-5.5389,-5.5064,-5.4397,-5.3981,-5.3794,-5.3794,-5.4314,-5.5131,-5.5986,-5.6722,-5.726,-5.6942,-5.6406,-5.5577,-5.4082,-5.3057,-5.2288,-5.1593,-5.1198,-5.1004,-5.1062,-5.0925,-5.0659,-5.0475,-5.0305,-4.9903,-4.9392,-4.929,-4.935,-4.935,-4.9411,-4.929,-4.8984,-4.9168,-4.929,-4.8923,-4.8192,-4.7306,0.0,-4.5216,-4.5187,-4.6757,-4.7023,-4.7222,-4.7877,-4.784,-4.6729,-4.457,-4.4679,-4.4565,-4.4011,-4.4914,-4.5768,-4.6524,-4.6204,-4.4777,-4.2269,-4.0717,-3.8457,-3.5623,-3.4724,-3.3971,-3.2892,-3.2452,-3.1363,-2.9819,-2.9472,-2.8878,-2.8246,-2.803,-2.823,-2.8287,-2.8043,-2.7976,-2.7724,-2.764,-2.5902,-2.2833,-3.697,-3.7005,-3.704,-3.704,-3.7672,-3.8444,-3.9252,-4.1358,-4.3149,-4.3921,-4.5361,-4.666,-4.7467,-4.8009,-4.8442,-4.8844,-5.0044,-5.0415,-4.9426,-5.0766,-5.1607,-5.1582,-5.227,-5.2944,-5.3507,-5.2753,-5.2394,-5.2416,-5.1693,-5.1394,-5.1406,-5.1391,-5.1271,-5.1163,-5.286,-5.3468,-5.3336,-5.4724,-5.5091,-5.4716,-5.4054,-5.3794,-5.3794,-5.3794,-5.4351,-5.5169,-5.5986,-5.6561,-5.6993,-5.747,-5.683,-5.562,-5.4189,-5.3011,-5.2046,-5.1765,-5.1384,-5.1262,-5.1898,-5.1493,-5.0944,-5.0693,-5.0086,-4.9599,-4.9505,-4.9471,-4.9471,-4.929,-4.9229,-4.9046,-4.861,-4.8861,-4.9107,-4.8702,-4.7704,-4.6384,-4.4843,-4.4603,-4.5372,-4.7373,-4.7507,-4.7502,-4.7496,-4.7783,-4.686,-4.4306,-4.4306,-4.4233,-4.3634,-4.4087,-4.478,-4.5758,-4.4245,-4.2507,-4.0717,-3.9161,-3.7014,-3.429,-3.429,-3.3668,-3.2435,-3.1702,-3.0624,-2.9383,-2.8935,-2.8466,-2.7975,-2.8249,-2.807,-2.7956,-2.7708,-2.746,-2.7392,-2.7665,-2.4878,-2.0492,-3.697,-3.7426,-3.7812,-3.7812,-3.848,-3.9252,-4.0059,-4.2131,-4.4097,-4.5431,-4.6976,-4.8451,-4.9855,-5.0722,-5.1256,-5.1393,-5.1834,-5.2048,-5.1819,-5.1703,-5.1801,-5.231,-5.2551,-5.2944,-5.3507,-5.3359,-5.3013,-5.2461,-5.2338,-5.1986,-5.1389,-5.1418,-5.1583,-5.2006,-5.3093,-5.3817,-5.422,-5.4992,-5.4952,-5.4397,-5.3944,-5.3794,-5.3794,-5.3794,-5.4723,-5.5986,-5.6209,-5.6763,-5.7376,-5.7564,-5.7389,-5.6962,-5.6009,-5.4768,-5.3682,-5.3625,-5.2775,-5.2114,-5.2846,-5.2467,-5.1821,-5.1699,-5.1089,-5.0369,-4.9786,-4.9649,-4.9649,-4.9742,-4.9471,-4.9073,-4.848,-4.8889,-4.8889,-4.7869,-4.7033,-4.6127,-4.5173,-4.5232,-4.5895,-4.7434,-4.6425,-4.6394,-4.8407,-4.723,-4.5818,-4.4664,-4.3226,-4.265,-4.2901,-4.3385,-4.417,-4.5113,-4.3734,-4.2254,-4.0717,-3.8583,-3.6275,-3.35,-3.3213,-3.2283,-3.0763,-3.0856,-3.0039,-2.895,-2.8627,-2.8465,-2.8263,-2.8,-2.8008,-2.823,-2.7785,-2.7409,-2.716,-2.7621,-2.449,-2.0124,-3.6984,-3.7602,-3.8269,-3.8789,-3.9521,-4.0377,-4.1394,-4.2868,-4.4448,-4.6028,-4.7573,-4.8872,-4.975,-5.1285,-5.2299,-5.2299,-5.2839,-5.3051,-5.2789,-5.2847,-5.2975,-5.3188,-5.3704,-5.4164,-5.4559,-5.4351,-5.3829,-5.3019,-5.2745,-5.2187,-5.1414,-5.1804,-5.209,-5.2356,-5.3598,-5.4281,-5.4528,-5.4944,-5.4776,-5.4262,-5.3907,-5.3794,0.0,-5.3794,-5.4611,-5.5726,-5.5726,-5.6348,-5.7254,-5.7078,-5.6891,-5.6681,-5.6062,-5.5233,-5.4508,-5.4508,-5.3847,-5.3296,-5.4096,-5.335,-5.2399,-5.2339,-5.1425,-5.041,-4.9963,-4.986,-4.9801,-4.9624,-4.929,-4.8889,-4.8096,-4.8386,-4.8423,-4.773,-4.7313,-4.6845,-4.6197,-4.6268,-4.67,-4.7732,-4.6991,-4.7043,-4.9095,-4.6054,-4.3868,-4.3392,-4.2169,-4.1776,-4.2327,-4.2664,-4.3417,-4.457,-4.313,-4.1645,-4.0289,-3.8312,-3.583,-3.2892,-3.2906,-3.1911,-3.0358,-3.0709,-3.0067,-2.8641,-2.879,-2.8537,-2.8054,-2.7808,-2.7945,-2.8011,-2.7561,-2.7133,-2.7099,-2.7247,-2.4251,-2.0167,-3.7035,-3.7775,-3.8584,-3.9686,-4.0608,-4.1603,-4.3068,-4.3886,-4.4869,-4.6295,-4.7854,-4.8837,-4.8837,-5.0891,-5.2299,-5.2299,-5.3244,-5.3572,-5.312,-5.395,-5.4398,-5.418,-5.5094,-5.573,-5.6012,-5.5459,-5.466,-5.3702,-5.3068,-5.2304,-5.1414,-5.2273,-5.2636,-5.255,-5.4181,-5.4768,-5.4556,-5.4732,-5.4591,-5.4231,-5.3944,-5.3794,-5.3831,-5.3943,-5.4463,-5.5206,-5.528,-5.6002,-5.6838,-5.6437,-5.6164,-5.5872,-5.5455,-5.5166,-5.4909,-5.4909,-5.4649,-5.4617,-5.5297,-5.4209,-5.2799,-5.2695,-5.1442,-5.0172,-5.0011,-4.9976,-4.9801,-4.9168,-4.8923,-4.858,-4.767,-4.7768,-4.7996,-4.8069,-4.8058,-4.7854,-4.7324,-4.7341,-4.7694,-4.8332,-4.8061,0.0,-4.9403,-4.5412,-4.2519,-4.2162,-4.1847,-4.1752,-4.1897,-4.2138,-4.2715,-4.4025,-4.2327,-4.0838,-3.9737,-3.7874,-3.5533,-3.274,-3.2813,-3.1887,-3.049,-3.0725,-3.0086,-2.8641,-2.8949,-2.8579,-2.7802,-2.7853,-2.7753,-2.7574,-2.7194,-2.7027,-2.6917,-2.6887,-2.3935,-2.007,-3.7775,-3.8559,-3.9281,-3.979,-4.1059,-4.2797,-4.5194,-4.6274,-4.7116,-4.7994,-4.9504,-5.0487,-5.0487,-5.1535,-5.2299,-5.2299,-5.3244,-5.3833,-5.3904,-5.4251,-5.4625,-5.4982,-5.5378,-5.573,-5.6012,-5.6001,-5.5242,-5.3702,-5.3689,-5.289,-5.1414,-5.2273,-5.2948,-5.3443,-5.4453,-5.4843,-5.4762,-5.4798,-5.443,-5.387,-5.3832,-5.3794,-5.3868,-5.4537,-5.5317,-5.6172,-5.684,-5.7006,-5.6838,-5.6437,-5.6527,-5.6753,-5.6331,-5.5948,-5.5724,-5.5688,-5.5495,-5.5297,-5.5437,-5.4535,-5.346,-5.2834,-5.1941,-5.1026,-5.0207,-4.9825,-4.958,-4.9256,-4.8513,-4.7935,-4.8054,-4.7934,-4.8093,-4.8842,-4.8041,-4.7307,-4.6967,-4.7669,-4.8271,-4.884,-4.803,-4.7867,-4.9224,-4.7759,-4.6305,-4.5071,-4.4201,-4.3237,-4.2186,-4.2209,-4.2467,-4.2948,-4.1499,-4.0423,-4.0085,-3.7014,-3.4654,-3.3011,-3.1713,-3.0475,-2.9556,-2.9836,-2.9606,-2.8949,-2.8938,-2.8574,-2.8096,-2.7932,-2.7682,-2.7293,-2.7087,-2.7027,-2.6905,-2.6515,-2.3652,-2.0106,-3.8002,-3.8791,-3.9733,-4.116,-4.2029,-4.3608,-4.6876,-4.7748,-4.8099,-4.8521,-4.9188,-4.9679,-4.9679,-5.1213,-5.2299,-5.2299,-5.3285,-5.3982,-5.4091,-5.4554,-5.4933,-5.5212,-5.5588,-5.5884,-5.6012,-5.6162,-5.5644,-5.4372,-5.4528,-5.3974,-5.278,-5.3571,-5.4078,-5.4285,-5.4978,-5.5203,-5.5037,-5.4866,-5.4528,-5.4091,-5.4316,-5.4426,-5.4574,-5.5837,-5.684,-5.7621,-5.7992,-5.8282,-5.837,-5.7302,-5.711,-5.7188,-5.66,-5.6273,-5.6162,-5.6162,-5.6049,-5.5993,-5.5993,-5.5164,-5.4103,-5.3331,-5.2446,-5.1668,-5.115,-5.0264,-4.959,-4.9603,-4.8857,-4.8458,-4.905,-4.8593,-4.852,-4.9673,-4.8879,-4.8091,-4.8151,-4.8677,-4.9151,-4.9334,-4.9042,-4.9085,-4.9872,-4.9318,-4.7742,-4.4501,-4.415,-4.3237,-4.1567,-4.1994,-4.2343,-4.2682,-4.1924,-4.0679,-3.8728,-3.7201,-3.4918,-3.1772,-3.1383,-3.0686,-2.9895,-2.99,-2.977,-2.9271,-2.8923,-2.8582,-2.8417,-2.7991,-2.7713,-2.7206,-2.6979,-2.7111,-2.7097,-2.6561,-2.3704,-2.0193,-3.8598,-3.9249,-4.0366,-4.2518,-4.3048,-4.4302,-4.7751,-4.8415,-4.8661,-4.9047,-4.9047,-4.9012,-4.9012,-5.0963,-5.2299,-5.2299,-5.3326,-5.4019,-5.4091,-5.4739,-5.5134,-5.5212,-5.573,-5.6012,-5.6012,-5.6205,-5.5863,-5.4996,-5.5194,-5.4771,-5.3756,-5.4671,-5.5102,-5.5137,-5.5519,-5.5508,-5.5183,-5.4895,-5.456,-5.4233,-5.4764,-5.5131,-5.5466,-5.7138,-5.8252,-5.8995,-5.9367,-5.9899,-6.0163,-5.8835,-5.8032,-5.7492,-5.685,-5.6525,-5.6383,-5.6383,-5.6383,-5.6383,-5.6383,-5.5699,-5.4803,-5.3847,-5.2976,-5.2283,-5.2052,-5.0875,-4.9932,-5.0159,-4.956,-4.9267,-5.0172,-4.9555,-4.9317,-5.0402,-4.9726,-4.9094,-4.9171,-4.9572,-4.9824,-4.9644,-5.0032,-5.0199,-4.9823,-4.9776,-4.7815,-4.3238,-4.3623,-4.3162,-4.1235,-4.1777,-4.2335,-4.2704,-4.2728,-4.1198,-3.8127,-3.7519,-3.5316,-3.1559,-3.1319,-3.1003,-3.02,-3.0188,-2.9873,-2.9411,-2.8919,-2.8628,-2.8485,-2.8053,-2.7683,-2.7027,-2.7027,-2.7001,-2.708,-2.6596,-2.3776,-2.0113,-4.0352,-4.0793,-4.1357,-4.299,-4.3865,-4.5057,-4.7171,-4.8064,-4.9047,-5.0487,-5.0662,-5.0662,-5.0662,-5.1643,-5.2299,-5.2299,-5.3326,-5.4019,-5.4091,-5.4739,-5.5134,-5.5212,-5.573,-5.6012,-5.6012,-5.6205,-5.5863,-5.4996,-5.5194,-5.4459,-5.2858,-5.4398,-5.5341,-5.5797,-5.573,-5.5375,-5.4836,-5.4806,-5.443,-5.3906,-5.4686,-5.5466,-5.6357,-5.7992,-5.9107,-5.9998,-6.1521,-6.1846,-6.1544,-6.1053,-5.9417,-5.7564,-5.7509,-5.6989,-5.6383,-5.6383,-5.6383,-5.6383,-5.6383,-5.609,-5.544,-5.3954,-5.3529,-5.3207,-5.2192,-5.1292,-5.0659,-5.0973,-5.0416,-5.0204,-5.094,-5.0831,-5.0721,-5.0928,-5.0164,-4.9497,-4.9078,-4.9539,-4.9942,-4.9908,-5.0441,-4.9897,-4.7812,-4.8226,-4.679,-4.2588,-4.3958,-4.407,-4.2233,-4.2075,-4.2201,-4.2704,-4.2522,-4.202,-4.0963,-3.737,-3.5181,-3.4435,-3.1771,-3.0185,-2.9707,-2.9689,-2.9481,-2.9234,-2.8906,-2.8351,-2.7978,-2.8029,-2.7683,-2.7027,-2.7027,-2.6818,-2.6699,-2.6409,-2.3585,-1.9539,-4.107,-4.1767,-4.2603,-4.4404,-4.499,-4.6012,-4.8399,-4.9012,-4.9609,-5.0733,-5.0873,-5.0873,-5.0873,-5.1714,-5.2345,-5.2391,-5.3447,-5.4128,-5.42,-5.4798,-5.5186,-5.5212,-5.573,-5.6051,-5.6128,-5.6244,-5.6146,-5.5825,-5.6015,-5.5708,-5.5044,-5.5472,-5.5719,-5.5788,-5.5707,-5.535,-5.4844,-5.5307,-5.5112,-5.4686,-5.6506,-5.7435,-5.7992,-6.011,-6.1113,-6.1515,-6.2401,-6.2523,-6.2091,-6.1676,-6.054,-5.9166,-5.7958,-5.7382,-5.7025,-5.6525,-5.6383,-5.6383,-5.6383,-5.5917,-5.547,-5.5328,-5.4581,-5.385,-5.4007,-5.2528,-5.1191,-5.1393,-5.1102,-5.1102,-5.2268,-5.1981,-5.1575,-5.1575,-5.086,-5.0058,-4.9316,-4.9995,-5.0397,-4.9905,-4.9714,-4.9075,-4.76,-4.7086,-4.5899,-4.3543,-4.4215,-4.3828,-4.1727,-4.1932,-4.2056,-4.2059,-4.1611,-4.0646,-3.8912,-3.6582,-3.4624,-3.3257,-3.1284,-3.0245,-3.0265,-2.9719,-2.9261,-2.9044,-2.8871,-2.838,-2.8067,-2.7875,-2.7472,-2.7027,-2.7027,-2.6914,-2.6736,-2.6467,-2.3476,-1.9681,-4.1494,-4.2346,-4.3578,-4.5615,-4.5996,-4.6847,-4.9311,-4.9679,-4.996,-5.0768,-5.0873,-5.0873,-5.0873,-5.1714,-5.2345,-5.2518,-5.3487,-5.4198,-5.4371,-5.4886,-5.5262,-5.5298,-5.575,-5.6051,-5.6205,-5.6265,-5.6343,-5.6386,-5.6482,-5.6425,-5.614,-5.5847,-5.5681,-5.5703,-5.5868,-5.5658,-5.5193,-5.5933,-5.5873,-5.5577,-5.7806,-5.8846,-5.9292,-6.1558,-6.2562,-6.2777,-6.2962,-6.2755,-6.2308,-6.1878,-6.106,-6.0048,-5.8422,-5.7596,-5.7132,-5.6561,-5.6383,-5.6454,-5.6668,-5.6347,-5.599,-5.6311,-5.5562,-5.4758,-5.4957,-5.3489,-5.1975,-5.1797,-5.1605,-5.1847,-5.2921,-5.2667,-5.2155,-5.1852,-5.1149,-5.034,-4.9591,-5.0089,-5.0457,-5.0109,-4.9397,-4.855,-4.7295,-4.6302,-4.5187,-4.3687,-4.3771,-4.3159,-4.1707,-4.2063,-4.2096,-4.1874,-4.1252,-4.0085,-3.835,-3.629,-3.4603,-3.3175,-3.1302,-3.048,-3.0439,-2.9666,-2.9312,-2.9192,-2.8942,-2.8526,-2.8195,-2.7845,-2.7377,-2.7039,-2.7111,-2.7057,-2.6712,-2.6593,-2.3587,-1.979,-4.1849,-4.2699,-4.3952,-4.627,-4.6672,-4.7386,-4.9381,-4.9679,-4.996,-5.0768,-5.0873,-5.0873,-5.0873,-5.1714,-5.2345,-5.2518,-5.3487,-5.4265,-5.4654,-5.5026,-5.5336,-5.5566,-5.5865,-5.6051,-5.6205,-5.6275,-5.6347,-5.6386,-5.639,-5.5939,-5.5122,-5.4861,-5.5055,-5.5742,-5.6231,-5.6283,-5.5996,-5.65,-5.6519,-5.6432,-5.8066,-5.9181,-6.0072,-6.1781,-6.2896,-6.3557,-6.3147,-6.2755,-6.2308,-6.1878,-6.0927,-5.9773,-5.8952,-5.7667,-5.6418,-5.6383,-5.6383,-5.6561,-5.7346,-5.756,-5.7382,-5.6597,-5.6383,-5.5968,-5.4534,-5.3679,-5.2955,-5.1999,-5.202,-5.2243,-5.2589,-5.2803,-5.2639,-5.1612,-5.0808,-5.0201,-4.9938,-4.9702,-4.9854,-5.0419,-4.9994,-4.8733,-4.6491,-4.5615,-4.4518,-4.2496,-4.2099,-4.2094,-4.212,-4.2389,-4.248,-4.2376,-4.172,-4.1268,-4.0882,-3.72,-3.5192,-3.5129,-3.2462,-3.0951,-3.0405,-2.9852,-2.9472,-2.9499,-2.9244,-2.9002,-2.8474,-2.792,-2.7377,-2.7051,-2.7317,-2.7026,-2.6348,-2.6599,-2.3535,-1.9216,-4.2644,-4.434,-4.5799,-4.655,-4.784,-4.8925,-4.9609,-5.0171,-5.0592,-5.0873,-5.0873,-5.0873,-5.0873,-5.1813,-5.2481,-5.2535,-5.3604,-5.4371,-5.4746,-5.5053,-5.5336,-5.5588,-5.5865,-5.6089,-5.6244,-5.6275,-5.6367,-5.6546,-5.6439,-5.6163,-5.5719,-5.6178,-5.6483,-5.6626,-5.7111,-5.7159,-5.6936,-5.7404,-5.7715,-5.8066,-5.9653,-6.0759,-6.1575,-6.2558,-6.315,-6.3419,-6.2705,-6.2449,-6.2291,-6.1523,-6.0317,-5.9059,-5.8809,-5.8024,-5.7204,-5.7204,-5.7204,-5.7382,-5.8131,-5.7989,-5.7774,-5.8595,-5.7277,-5.5731,-5.5897,-5.4056,-5.215,-5.1655,-5.1869,-5.2243,-5.2589,-5.2803,-5.2639,-5.1528,-5.1209,-5.072,-4.9998,-4.928,-4.9033,-4.9328,-4.7778,-4.6488,-4.5667,-4.4678,-4.3892,-4.3426,-4.3451,-4.3032,-4.1934,-4.1683,-4.1608,-4.171,-4.0755,-4.0288,-4.0614,-3.6758,-3.5189,-3.5502,-3.2055,-3.0223,-2.9866,-2.9824,-2.978,-2.978,-2.8976,-2.8655,-2.8474,-2.7571,-2.7208,-2.7051,-2.7317,-2.7026,-2.6348,-2.6599,-2.3535,-1.9216,-4.2825,-4.4406,-4.5836,-4.6749,-4.7919,-4.9079,-4.9977,-5.0557,-5.0873,-5.0873,-5.0873,-5.0873,-5.0873,-5.1861,-5.2535,-5.2623,-5.3643,-5.4472,-5.4914,-5.5107,-5.5384,-5.573,-5.5902,-5.6089,-5.6283,-5.6314,-5.639,-5.658,-5.6403,-5.6379,-5.6459,-5.6888,-5.7253,-5.7511,-5.7848,-5.7878,-5.7769,-5.809,-5.8604,-5.9292,-6.0543,-6.1582,-6.2353,-6.3076,-6.3419,-6.3336,-6.2515,-6.2308,-6.2291,-6.1408,-6.0023,-5.8774,-5.9095,-5.8452,-5.7596,-5.7596,-5.7596,-5.781,-5.8881,-5.8809,-5.8702,-5.9666,-5.8273,-5.6528,-5.5919,-5.3673,-5.1721,-5.1573,-5.2097,-5.2598,-5.238,-5.272,-5.2734,-5.1732,-5.1102,-5.0603,-5.0273,-4.9144,-4.847,-4.861,-4.6892,-4.5581,-4.5464,-4.4522,-4.3998,-4.3993,-4.3553,-4.2781,-4.2013,-4.1902,-4.1495,-4.099,-4.031,-3.9659,-3.918,-3.6505,-3.5122,-3.4915,-3.1874,-3.0322,-2.9824,-2.9833,-2.9913,-2.9913,-2.8835,-2.8474,-2.8474,-2.739,-2.7087,-2.7208,-2.7461,-2.7168,-2.6496,-2.6736,-2.3605,-1.9224,-4.2543,-4.323,-4.4515,-4.676,-4.7329,-4.8161,-5.0554,-5.0873,-5.0873,-5.0873,-5.0873,-5.0873,-5.0873,-5.1922,-5.2587,-5.2587,-5.3643,-5.4533,-5.5186,-5.5212,-5.5455,-5.5995,-5.6012,-5.6089,-5.6283,-5.6314,-5.639,-5.658,-5.6366,-5.6599,-5.7216,-5.7191,-5.7588,-5.835,-5.8529,-5.8565,-5.8575,-5.8723,-5.9255,-6.0072,-6.0927,-6.1781,-6.2562,-6.326,-6.3557,-6.3465,-6.2631,-6.2324,-6.2255,-6.1315,-5.9987,-5.8845,-5.9594,-5.8809,-5.7596,-5.7703,-5.7739,-5.806,-5.9594,-5.9987,-5.9987,-5.9929,-5.9284,-5.788,-5.4838,-5.2942,-5.1754,-5.1499,-5.2345,-5.286,-5.2005,-5.2523,-5.2659,-5.1709,-5.0659,-5.0122,-5.0336,-4.904,-4.8024,-4.8167,-4.6921,-4.5897,-4.5632,-4.5035,-4.4512,-4.4379,-4.2839,-4.1983,-4.2398,-4.2716,-4.2107,-4.0351,-4.0323,-3.9347,-3.7295,-3.6254,-3.5062,-3.3516,-3.1932,-3.0973,-3.0657,-3.0106,-2.9927,-2.9761,-2.8848,-2.8474,-2.8294,-2.7414,-2.7196,-2.7449,-2.7727,-2.724,-2.6725,-2.6976,-2.3726,-1.924,-4.2813,-4.4537,-4.6102,-4.7022,-4.8449,-4.9777,-5.0749,-5.0873,-5.0873,-5.0873,-5.0873,-5.0873,-5.0873,-5.1922,-5.2587,-5.2587,-5.3683,-5.4597,-5.5148,-5.5212,-5.5455,-5.5995,-5.6012,-5.6089,-5.6283,-5.6314,-5.6312,-5.6386,-5.6853,-5.7119,-5.7255,-5.8363,-5.8856,-5.8846,-5.9315,-5.9303,-5.9025,-5.9424,-6.011,-6.0964,-6.1693,-6.2464,-6.3169,-6.3252,-6.3373,-6.3336,-6.2515,-6.2291,-6.2182,-6.0669,-5.9523,-5.8738,-5.8952,-5.8345,-5.781,-5.9023,-5.938,-5.9559,-6.0558,-6.0808,-6.0689,-6.0132,-5.8619,-5.6573,-5.4023,-5.3008,-5.2375,-5.1704,-5.1274,-5.1357,-5.1846,-5.178,-5.1483,-5.0708,-5.0235,-4.9613,-4.8429,-4.6889,-4.5871,-4.6116,-4.5027,-4.4556,-4.5059,-4.4928,-4.4771,-4.4914,-4.4075,-4.3233,-4.242,-4.2332,-4.1778,-4.082,-4.0484,-3.9641,-3.8131,-3.6676,-3.4338,-3.1512,-3.1444,-3.0918,-3.0429,-3.002,-2.9853,-2.9677,-2.8925,-2.8294,-2.7933,-2.7427,-2.7365,-2.7473,-2.7557,-2.7214,-2.6725,-2.6591,-2.3346,-1.924,-4.3229,-4.461,-4.6018,-4.7022,-4.8335,-4.9664,-5.0694,-5.0873,-5.0873,-5.0873,-5.0873,-5.0981,-5.1228,-5.2018,-5.2667,-5.2968,-5.387,-5.4629,-5.5148,-5.5212,-5.5455,-5.5995,-5.6051,-5.6167,-5.6283,-5.6354,-5.6347,-5.6308,-5.7047,-5.7505,-5.7795,-5.8941,-5.9523,-5.9578,-5.9741,-5.9798,-5.9816,-5.9868,-6.063,-6.1781,-6.2138,-6.2769,-6.3511,-6.3419,-6.3289,-6.3147,-6.25,-6.2238,-6.1915,-6.0827,-5.9916,-5.9345,-5.9701,-5.9273,-5.8881,-6.0094,-6.0201,-6.0094,-6.0879,-6.1093,-6.0818,-5.9809,-5.805,-5.6208,-5.4444,-5.341,-5.2594,-5.175,-5.127,-5.0993,-5.119,-5.0934,-5.0607,-5.0314,-4.9968,-4.9104,-4.7608,-4.6462,-4.5565,-4.4957,-4.4432,-4.4256,-4.472,-4.5042,-4.5046,-4.4753,-4.4071,-4.3288,-4.2214,-4.1587,-4.1089,-4.0671,-4.0747,-3.9581,-3.7274,-3.5261,-3.3151,-3.1077,-3.1245,-3.0877,-3.0154,-2.9993,-2.9634,-2.9404,-2.8719,-2.8113,-2.7752,-2.7488,-2.7498,-2.7642,-2.7487,-2.714,-2.6884,-2.6442,-2.3346,-1.9248,-4.3568,-4.4191,-4.525,-4.6897,-4.782,-4.8896,-5.0624,-5.0873,-5.0873,-5.0873,-5.0873,-5.1105,-5.1629,-5.2159,-5.2747,-5.3413,-5.4017,-5.4597,-5.5148,-5.5212,-5.5455,-5.5995,-5.6128,-5.6239,-5.6288,-5.6451,-5.651,-5.6503,-5.724,-5.7929,-5.8605,-5.9326,-5.9881,-6.0208,-5.9937,-5.9952,-6.0227,-6.0166,-6.0927,-6.2264,-6.2487,-6.3007,-6.3602,-6.3602,-6.3373,-6.2953,-6.2515,-6.2095,-6.1656,-6.1127,-6.0451,-6.0023,-6.0701,-6.0451,-6.0058,-6.0843,-6.0629,-6.0237,-6.0915,-6.0974,-6.0477,-5.9247,-5.7805,-5.6398,-5.5237,-5.3989,-5.2747,-5.177,-5.1438,-5.1137,-5.0454,-5.004,-4.9951,-5.0197,-4.9403,-4.8378,-4.7252,-4.6512,-4.5633,-4.4332,-4.4286,-4.4476,-4.4484,-4.5196,-4.5175,-4.4343,-4.3514,-4.2818,-4.2018,-4.0944,-4.0471,-4.0479,-4.0712,-3.9357,-3.6004,-3.3522,-3.1915,-3.1315,-3.1137,-3.0822,-2.998,-2.994,-2.9594,-2.9132,-2.8693,-2.8151,-2.7694,-2.7573,-2.763,-2.7896,-2.7416,-2.7256,-2.7067,-2.6487,-2.317,-1.9297,-4.3568,-4.4191,-4.525,-4.6897,-4.782,-4.8896,-5.0624,-5.0873,-5.0873,-5.0873,-5.0873,-5.1052,-5.1551,-5.2149,-5.274,-5.333,-5.387,-5.4463,-5.5148,-5.5212,-5.5455,-5.5995,-5.6128,-5.6233,-5.63,-5.6475,-5.6832,-5.7381,-5.8131,-5.8837,-5.9531,-6.025,-6.0341,-5.9906,-5.9842,-5.951,-5.9078,-6.0449,-6.115,-6.1521,-6.2896,-6.349,-6.3602,-6.3602,-6.3373,-6.2953,-6.2515,-6.2095,-6.1548,-6.0483,-6.0023,-5.9916,-6.0058,-6.0023,-6.0058,-6.0843,-6.1022,-6.095,-6.1058,-6.0192,-5.918,-5.8977,-5.7785,-5.6425,-5.5292,-5.435,-5.3335,-5.1866,-5.0787,-5.0168,-5.0278,-4.9789,-4.9524,-4.9965,-4.8357,-4.6922,-4.6405,-4.4657,-4.3458,-4.3796,-4.3958,-4.4253,-4.4748,-4.5301,-4.5175,-4.4343,-4.3514,-4.2818,-4.2018,-4.1255,-4.0959,-4.0962,-4.0574,-3.9334,-3.6788,-3.341,-3.1564,-3.1315,-3.0973,-3.0573,-3.0287,-3.0034,-2.9637,-2.9333,-2.8678,-2.8195,-2.7691,-2.7739,-2.7908,-2.7972,-2.7483,-2.7214,-2.7067,-2.5906,-2.3062,-1.9459,-4.3568,-4.4522,-4.5657,-4.6965,-4.8162,-4.9378,-5.0694,-5.0873,-5.0873,-5.0873,-5.0873,-5.1211,-5.2006,-5.2289,-5.2747,-5.3719,-5.3944,-5.433,-5.5107,-5.516,-5.5408,-5.5995,-5.6128,-5.6486,-5.704,-5.7223,-5.764,-5.8316,-5.9071,-5.9533,-5.9724,-6.0487,-6.0494,-5.9809,-5.9809,-5.9888,-6.011,-6.089,-6.1707,-6.2562,-6.3305,-6.3602,-6.3602,-6.3602,-6.3194,-6.2581,-6.2464,-6.1933,-6.1315,-6.0724,-6.0558,-6.0558,-6.0558,-6.0558,-6.0629,-6.0986,-6.1093,-6.1034,-6.0635,-5.9709,-5.8806,-5.8424,-5.7446,-5.6381,-5.5739,-5.4632,-5.3331,-5.2029,-5.0818,-4.9787,-4.945,-4.8929,-4.8712,-4.8845,-4.7435,-4.6044,-4.5259,-4.4223,-4.3489,-4.321,-4.4038,-4.4655,-4.4783,-4.5318,-4.5206,-4.3791,-4.3236,-4.2538,-4.1431,-4.0883,-4.0747,-4.1062,-3.9466,-3.8043,-3.6958,-3.3466,-3.1734,-3.1315,-3.0794,-3.0519,-3.0114,-2.9787,-2.9338,-2.8856,-2.8377,-2.8099,-2.7618,-2.7908,-2.8101,-2.8044,-2.7349,-2.7056,-2.7056,-2.5906,-2.2885,-1.9492,-4.3628,-4.4776,-4.6039,-4.7056,-4.8357,-4.97,-5.0729,-5.0873,-5.0873,-5.0873,-5.0981,-5.1434,-5.2381,-5.2481,-5.2993,-5.4242,-5.428,-5.4709,-5.5625,-5.5679,-5.5768,-5.5995,-5.6321,-5.7014,-5.8047,-5.8111,-5.8487,-5.9182,-5.9746,-6.0036,-6.0033,-6.0646,-6.0546,-5.9809,-5.9804,-6.0189,-6.0927,-6.1113,-6.2041,-6.3342,-6.3527,-6.3602,-6.3602,-6.3511,-6.2965,-6.2324,-6.2255,-6.1748,-6.1093,-6.1093,-6.1093,-6.1093,-6.1093,-6.1093,-6.1093,-6.1093,-6.0974,-6.0696,-6.0164,-5.9447,-5.8703,-5.7959,-5.703,-5.6257,-5.5857,-5.4685,-5.324,-5.2009,-5.0753,-4.9582,-4.8769,-4.8301,-4.791,-4.7804,-4.657,-4.5296,-4.4382,-4.3914,-4.3548,-4.3259,-4.4207,-4.4976,-4.4995,-4.5355,-4.4914,-4.3236,-4.2958,-4.2321,-4.117,-4.0736,-4.0692,-4.1203,-3.8419,-3.7009,-3.6928,-3.3475,-3.1685,-3.1137,-3.0616,-3.0272,-2.9913,-2.9362,-2.908,-2.8678,-2.8257,-2.7879,-2.7727,-2.8065,-2.8246,-2.8128,-2.7372,-2.7067,-2.6874,-2.5906,-2.2885,-1.9492,-4.3628,-4.4549,-4.5814,-4.7011,-4.8264,-4.9542,-5.0714,-5.0873,-5.0873,-5.0873,-5.1315,-5.1714,-5.2253,-5.274,-5.3617,-5.4987,-5.5099,-5.5763,-5.7301,-5.7395,-5.6994,-5.6033,-5.6958,-5.7986,-5.9062,-5.8982,-5.9265,-6.0,-5.9946,-6.0246,-6.092,-6.0959,-6.0572,-5.9809,-5.9798,-5.9885,-6.0072,-6.0853,-6.1707,-6.2562,-6.3305,-6.3602,-6.3557,-6.3194,-6.2805,-6.2308,-6.1878,-6.1466,-6.1093,-6.1093,-6.1093,-6.1093,-6.1093,-6.1093,-6.1093,-6.1093,-6.0635,-6.01,-6.0001,-5.9447,-5.8703,-5.7707,-5.6954,-5.6126,-5.5077,-5.417,-5.311,-5.1406,-5.0437,-4.9582,-4.8769,-4.8301,-4.7804,-4.7287,-4.56,-4.4409,-4.4199,-4.3034,-4.2766,-4.4224,-4.4567,-4.4887,-4.5489,-4.516,-4.4366,-4.3236,-4.2419,-4.1925,-4.1648,-4.1224,-4.1151,-4.1778,-3.8707,-3.6962,-3.6947,-3.3231,-3.1151,-3.0616,-3.0272,-2.9913,-2.9913,-2.9362,-2.9287,-2.9225,-2.8419,-2.8209,-2.8512,-2.8294,-2.7974,-2.7815,-2.7249,-2.6874,-2.6305,-2.5712,-2.2885,-1.9492,-4.4191,-4.5243,-4.6422,-4.7636,-4.8885,-4.9994,-5.0784,-5.0873,-5.0873,-5.0873,-5.128,-5.1764,-5.2253,-5.2784,-5.3617,-5.4946,-5.5286,-5.604,-5.7396,-5.771,-5.7774,-5.7675,-5.8129,-5.8865,-5.9882,-5.9832,-6.0166,-6.0895,-6.0807,-6.0867,-6.1,-6.1,-6.057,-5.9798,-5.9792,-6.0148,-6.0741,-6.1076,-6.1967,-6.3193,-6.349,-6.3602,-6.3557,-6.3147,-6.2755,-6.2344,-6.1878,-6.1466,-6.1093,-6.1093,-6.1414,-6.1843,-6.1843,-6.1843,-6.1736,-6.1236,-6.0574,-5.9768,-5.8855,-5.8117,-5.7318,-5.6404,-5.5831,-5.5542,-5.5422,-5.4146,-5.2813,-5.1801,-5.0529,-4.9259,-4.8521,-4.8218,-4.7718,-4.6956,-4.5345,-4.4348,-4.4282,-4.3285,-4.3051,-4.4451,-4.472,-4.4984,-4.5583,-4.489,-4.409,-4.3097,-4.2698,-4.2099,-4.1275,-4.1344,-4.1578,-4.2168,-3.8772,-3.6862,-3.6828,-3.3231,-3.1151,-3.0616,-3.0093,-2.984,-2.965,-2.9274,-2.8945,-2.8756,-2.8433,-2.8265,-2.8367,-2.8439,-2.814,-2.7839,-2.726,-2.6681,-2.6305,-2.5712,-2.2885,-1.9492,-4.4764,-4.5883,-4.7097,-4.8346,-4.9561,-5.0509,-5.0819,-5.0873,-5.0873,-5.0873,-5.1699,-5.2354,-5.2697,-5.3536,-5.4552,-5.5686,-5.6179,-5.6927,-5.8098,-5.8667,-5.9009,-5.9163,-5.9242,-5.9757,-6.0733,-6.0672,-6.0876,-6.1389,-6.1273,-6.1176,-6.1002,-6.1272,-6.1003,-6.0241,-6.0203,-6.0714,-6.1558,-6.1298,-6.2153,-6.3602,-6.3602,-6.3602,-6.3557,-6.3002,-6.2654,-6.2381,-6.2001,-6.1745,-6.1521,-6.1736,-6.2199,-6.2628,-6.2628,-6.2485,-6.2235,-6.1914,-6.0803,-5.9338,-5.8077,-5.6983,-5.6044,-5.5358,-5.5247,-5.5208,-5.5002,-5.3857,-5.2428,-5.1498,-5.0241,-4.9128,-4.8469,-4.8001,-4.7376,-4.6224,-4.5107,-4.4286,-4.3893,-4.345,-4.3497,-4.4766,-4.4848,-4.5005,-4.5685,-4.4573,-4.3675,-4.3097,-4.2586,-4.198,-4.1264,-4.1622,-4.2131,-4.2402,-3.882,-3.6878,-3.6825,-3.2939,-3.0794,-3.0451,-3.0093,-2.966,-2.9495,-2.9039,-2.8678,-2.8582,-2.8278,-2.8258,-2.8355,-2.8344,-2.8031,-2.7453,-2.7067,-2.6487,-2.5906,-2.5712,-2.2846,-1.9419,-4.5144,-4.6408,-4.7614,-4.8889,-5.0076,-5.0873,-5.0873,-5.0873,-5.0873,-5.0908,-5.2516,-5.3577,-5.3614,-5.5233,-5.6617,-5.7435,-5.7904,-5.8669,-5.9716,-6.0556,-6.0771,-6.0226,-6.0227,-6.0684,-6.168,-6.1498,-6.1408,-6.1389,-6.1195,-6.106,-6.1002,-6.1891,-6.1862,-6.1083,-6.1115,-6.158,-6.2339,-6.1558,-6.2153,-6.3602,-6.3602,-6.3602,-6.3511,-6.2705,-6.2397,-6.2401,-6.2341,-6.2271,-6.2414,-6.3127,-6.3377,-6.3413,-6.3413,-6.2913,-6.2449,-6.3163,-6.126,-5.8737,-5.7876,-5.6448,-5.5237,-5.505,-5.5371,-5.5328,-5.3661,-5.2989,-5.2173,-5.0295,-4.9613,-4.9128,-4.8469,-4.7728,-4.6741,-4.4993,-4.4563,-4.4016,-4.2662,-4.3136,-4.4083,-4.4924,-4.4934,-4.5146,-4.5797,-4.4206,-4.3097,-4.3097,-4.2158,-4.1686,-4.1706,-4.2106,-4.2447,-4.2422,-3.882,-3.6825,-3.683,-3.269,-3.0437,-2.9913,-2.9913,-2.9734,-2.9195,-2.8949,-2.8678,-2.8396,-2.829,-2.8367,-2.862,-2.8031,-2.7453,-2.7067,-2.6487,-2.5906,-2.5518,-2.5518,-2.276,-1.9264,-4.5917,-4.7131,-4.8346,-4.9595,-5.0425,-5.0873,-5.0873,-5.0873,-5.1034,-5.1331,-5.2677,-5.3717,-5.407,-5.5401,-5.6617,-5.7435,-5.8084,-5.9109,-6.057,-6.0894,-6.0982,-6.0963,-6.1019,-6.1264,-6.168,-6.1498,-6.1408,-6.1389,-6.1195,-6.1118,-6.106,-6.1292,-6.1272,-6.1102,-6.1077,-6.158,-6.2376,-6.2153,-6.2636,-6.3602,-6.3602,-6.3602,-6.3511,-6.2705,-6.2725,-6.3075,-6.2521,-6.2628,-6.3092,-6.3306,-6.377,-6.4234,-6.4234,-6.4091,-6.3716,-6.2917,-6.1634,-6.0183,-5.8715,-5.7463,-5.6231,-5.4456,-5.4574,-5.497,-5.4762,-5.3422,-5.2023,-5.153,-4.9915,-4.8622,-4.8773,-4.7674,-4.6569,-4.5817,-4.5223,-4.4396,-4.3416,-4.4175,-4.4939,-4.527,-4.5373,-4.5279,-4.5142,-4.3952,-4.284,-4.2419,-4.1586,-4.1554,-4.2611,-4.2408,-4.2422,-4.2384,-3.8705,-3.6731,-3.6313,-3.2528,-3.0437,-2.9913,-2.9913,-2.9766,-2.9231,-2.9136,-2.8881,-2.8581,-2.8463,-2.8548,-2.862,-2.8031,-2.7453,-2.7067,-2.6487,-2.5906,-2.5518,-2.5518,-2.276,-1.9248,-4.6743,-4.7851,-4.8862,-5.0167,-5.0675,-5.0873,-5.0873,-5.0873,-5.1158,-5.1978,-5.3207,-5.4345,-5.517,-5.6446,-5.7472,-5.7918,-5.8643,-5.9598,-6.085,-6.1309,-6.164,-6.1774,-6.2238,-6.2233,-6.1719,-6.1849,-6.1771,-6.1389,-6.1543,-6.1621,-6.1621,-6.2078,-6.2209,-6.2085,-6.1898,-6.222,-6.2859,-6.2562,-6.2859,-6.3602,-6.3602,-6.3602,-6.3548,-6.3035,-6.3126,-6.3475,-6.331,-6.3484,-6.3912,-6.4234,-6.4662,-6.509,-6.509,-6.465,-6.4008,-6.3436,-6.2022,-6.0432,-5.9245,-5.8051,-5.6726,-5.4775,-5.463,-5.4987,-5.4988,-5.3661,-5.2238,-5.1701,-5.0061,-4.8621,-4.841,-4.7278,-4.6203,-4.584,-4.4995,-4.4367,-4.4388,-4.4792,-4.5178,-4.5432,-4.5597,-4.5309,-4.4595,-4.3675,-4.271,-4.1955,-4.1351,-4.1494,-4.2661,-4.2506,-4.2114,-4.1372,-3.8355,-3.6313,-3.5114,-3.1997,-3.0272,-2.9913,-2.9734,-2.943,-2.9148,-2.9065,-2.8805,-2.8463,-2.8572,-2.862,-2.862,-2.7839,-2.7453,-2.7067,-2.6294,-2.5712,-2.5324,-2.4535,-2.2163,-1.9042,-4.7436,-4.8367,-4.934,-5.0624,-5.0873,-5.0873,-5.0873,-5.0943,-5.1458,-5.2723,-5.4048,-5.5374,-5.661,-5.7925,-5.8698,-5.8739,-5.9434,-6.0159,-6.0873,-6.1852,-6.2469,-6.2599,-6.3638,-6.3506,-6.1953,-6.2512,-6.2393,-6.1505,-6.2124,-6.2394,-6.2414,-6.3512,-6.3867,-6.3606,-6.3125,-6.3177,-6.3565,-6.2822,-6.2933,-6.3602,-6.3602,-6.3557,-6.3539,-6.3496,-6.3547,-6.3639,-6.4362,-6.4662,-6.484,-6.5554,-6.5804,-6.5804,-6.5804,-6.4782,-6.362,-6.4321,-6.2427,-6.0063,-5.9644,-5.8436,-5.702,-5.5848,-5.5507,-5.5247,-5.4552,-5.3789,-5.2681,-5.1272,-5.0133,-4.891,-4.7583,-4.6661,-4.5851,-4.5448,-4.4609,-4.4261,-4.5109,-4.5036,-4.5044,-4.5597,-4.5544,-4.5087,-4.4183,-4.3419,-4.2565,-4.1723,-4.1251,-4.1403,-4.2407,-4.2366,-4.1466,-3.9699,-3.7674,-3.562,-3.3395,-3.1137,-2.9913,-2.9913,-2.9388,-2.9196,-2.8932,-2.8669,-2.8368,-2.8258,-2.8512,-2.862,-2.8428,-2.7453,-2.7056,-2.7056,-2.5906,-2.5518,-2.5324,-2.315,-2.0987,-1.8845,-4.7537,-4.8895,-4.9985,-5.0585,-5.0819,-5.0819,-5.0675,-5.131,-5.2166,-5.3291,-5.4762,-5.6088,-5.7228,-5.8174,-5.8821,-5.9102,-5.9772,-6.0655,-6.1757,-6.2144,-6.2704,-6.3487,-6.454,-6.4687,-6.375,-6.3715,-6.3275,-6.2413,-6.2394,-6.2394,-6.2394,-6.2429,-6.2908,-6.3606,-6.3272,-6.33,-6.3602,-6.3416,-6.3453,-6.3602,-6.3602,-6.3419,-6.3124,-6.3393,-6.3693,-6.4043,-6.4455,-6.5019,-6.559,-6.5732,-6.5804,-6.5804,-6.5804,-6.5136,-6.4217,-6.3794,-6.2741,-6.1537,-6.044,-5.9135,-5.7904,-5.7326,-5.6251,-5.5295,-5.4838,-5.386,-5.2723,-5.1287,-5.0365,-4.9491,-4.8139,-4.7304,-4.6572,-4.6169,-4.5309,-4.4923,-4.5232,-4.557,-4.5605,-4.5559,-4.5203,-4.4527,-4.3375,-4.2479,-4.1773,-4.1616,-4.1534,-4.2015,-4.2863,-4.2222,-4.1292,-3.9609,-3.7485,-3.5288,-3.2867,-3.0959,-2.9913,-2.9913,-2.9611,-2.9495,-2.9225,-2.8943,-2.865,-2.8536,-2.8596,-2.862,-2.8428,-2.7453,-2.7056,-2.7056,-2.5906,-2.5518,-2.5324,-2.315,-2.0987,-1.8449,-4.7704,-4.9154,-5.0307,-5.0474,-5.062,-5.0729,-5.0585,-5.108,-5.2113,-5.3953,-5.4846,-5.6061,-5.7909,-5.8475,-5.9054,-5.9995,-6.0563,-6.1387,-6.2565,-6.3274,-6.3884,-6.4388,-6.5498,-6.5951,-6.5537,-6.5334,-6.4597,-6.3323,-6.3555,-6.3632,-6.3632,-6.3565,-6.3791,-6.4215,-6.3729,-6.3551,-6.3602,-6.3602,-6.3602,-6.3602,-6.3602,-6.3595,-6.3616,-6.3925,-6.4291,-6.4685,-6.5064,-6.5447,-6.5875,-6.6232,-6.6125,-6.5804,-6.5804,-6.4976,-6.3935,-6.3539,-6.2634,-6.1447,-6.0205,-5.9067,-5.81,-5.7326,-5.6219,-5.5246,-5.4915,-5.4158,-5.3175,-5.1771,-5.0571,-4.9397,-4.8345,-4.7012,-4.6169,-4.6297,-4.5623,-4.5305,-4.5994,-4.6045,-4.5966,-4.5959,-4.5298,-4.4228,-4.27,-4.1851,-4.1314,-4.1319,-4.1334,-4.1768,-4.2388,-4.2023,-4.0562,-3.8082,-3.6748,-3.4591,-3.1479,-3.0437,-2.9734,-2.9554,-2.93,-2.9218,-2.9314,-2.8842,-2.8545,-2.862,-2.862,-2.8428,-2.8224,-2.7453,-2.6874,-2.6681,-2.5906,-2.5518,-2.5119,-2.1967,-1.8616,-1.5068,-4.7955,-4.9428,-5.0397,-5.0341,-5.0509,-5.062,-5.0759,-5.0939,-5.2006,-5.4677,-5.5003,-5.5962,-5.8429,-5.8933,-5.9627,-6.0875,-6.1514,-6.2322,-6.3449,-6.4518,-6.5159,-6.5308,-6.6351,-6.6912,-6.6912,-6.6717,-6.5803,-6.4211,-6.4754,-6.4986,-6.4986,-6.5037,-6.5009,-6.4894,-6.4292,-6.3873,-6.3647,-6.3647,-6.3647,-6.3639,-6.3659,-6.387,-6.4141,-6.4585,-6.4903,-6.5215,-6.5788,-6.6089,-6.6303,-6.6946,-6.666,-6.5982,-6.5853,-6.4706,-6.3358,-6.3107,-6.1998,-6.0672,-5.9413,-5.8609,-5.7838,-5.6723,-5.596,-5.5246,-5.4749,-5.4359,-5.3624,-5.2157,-5.0698,-4.9347,-4.8283,-4.6746,-4.5915,-4.6283,-4.5835,-4.5847,-4.6802,-4.6439,-4.6106,-4.6358,-4.5324,-4.3814,-4.2018,-4.1379,-4.1122,-4.1042,-4.1092,-4.146,-4.1697,-4.1766,-3.9997,-3.6352,-3.6166,-3.4082,-2.9913,-2.9913,-2.9734,-2.9182,-2.8988,-2.9085,-2.9128,-2.8466,-2.8355,-2.862,-2.862,-2.8236,-2.7839,-2.7249,-2.6874,-2.6305,-2.5712,-2.5518,-2.4924,-2.079,-1.585,-1.1282,-4.8578,-4.9756,-5.0341,-5.0263,-5.0453,-5.0774,-5.1394,-5.1689,-5.2785,-5.5424,-5.5752,-5.6499,-5.8503,-5.9891,-6.0766,-6.098,-6.2289,-6.3424,-6.4359,-6.4855,-6.543,-6.6192,-6.6658,-6.6912,-6.6912,-6.6717,-6.6114,-6.5121,-6.5025,-6.4986,-6.4986,-6.4578,-6.469,-6.5123,-6.4705,-6.4247,-6.3873,-6.3873,-6.3742,-6.3631,-6.397,-6.3906,-6.3709,-6.4758,-6.4939,-6.4867,-6.6303,-6.7231,-6.7802,-6.7909,-6.7445,-6.6738,-6.5999,-6.4706,-6.3142,-6.1851,-6.0897,-5.9911,-5.8626,-5.7855,-5.7217,-5.6593,-5.596,-5.5164,-5.4327,-5.4189,-5.3538,-5.157,-5.1079,-5.03,-4.7948,-4.7568,-4.7328,-4.6382,-4.614,-4.6287,-4.7109,-4.6264,-4.5841,-4.6358,-4.4618,-4.2678,-4.1147,-4.1357,-4.1448,-4.1062,-4.137,-4.1758,-4.1843,-4.1456,-3.9648,-3.6231,-3.5793,-3.3746,-2.9913,-2.9913,-2.9734,-2.9182,-2.9179,-2.909,-2.857,-2.8278,-2.8355,-2.862,-2.862,-2.8236,-2.7839,-2.7249,-2.6874,-2.6305,-2.5712,-2.5518,-2.4924,-2.079,-1.585,-1.1282,-4.9289,-5.0007,-5.0263,-5.0092,-5.0285,-5.0558,-5.0885,-5.179,-5.3119,-5.5039,-5.5884,-5.6923,-5.8503,-6.0076,-6.1207,-6.1662,-6.3121,-6.4397,-6.5282,-6.6076,-6.6509,-6.6413,-6.7169,-6.7341,-6.6789,-6.6644,-6.6347,-6.5915,-6.576,-6.5682,-6.5682,-6.5218,-6.5102,-6.5192,-6.4777,-6.4326,-6.3878,-6.3878,-6.3786,-6.3631,-6.4033,-6.4222,-6.4221,-6.4932,-6.5525,-6.6161,-6.7731,-6.8195,-6.8159,-6.8623,-6.798,-6.6851,-6.6072,-6.4983,-6.383,-6.2683,-6.1508,-6.0374,-5.9234,-5.8019,-5.6988,-5.6075,-5.5504,-5.4915,-5.4274,-5.3931,-5.3201,-5.1446,-5.072,-4.9795,-4.8294,-4.7787,-4.7353,-4.6773,-4.6861,-4.6944,-4.6916,-4.6418,-4.5745,-4.4732,-4.3653,-4.2646,-4.1378,-4.1269,-4.1312,-4.1424,-4.1436,-4.1426,-4.1413,-4.12,-3.9393,-3.6003,-3.5556,-3.3746,-2.9913,-2.9734,-2.9195,-2.8835,-2.8686,-2.8594,-2.8582,-2.8436,-2.8512,-2.862,-2.8236,-2.7839,-2.7453,-2.6874,-2.6294,-2.5906,-2.5518,-2.4136,-2.1771,-1.9602,-1.5645,-1.1282]}]]